[[{"header":{"parameterUnit":"m.s-1","parameterCategory":1,"la1":31.0,"la2":29.5877,"lo1":-88.7671,"lo2":-86.6584,"dy":0.0162,"dx":0.0185,"nx":115,"ny":88,"refTime":"2026-05-18T12:00:00:Z","depth":0,"parameterNumber":2,"parameterNumberName":"U-component_of_WINDS"},"data":[0.0,0.0,0.0,0.0,0.0,0.0,0.0,0.0,0.0,0.0,0.0,0.0,0.0,0.0,0.0,0.0,0.0,0.0,0.0,0.0,0.0,0.0,0.0,0.0,0.0,0.0,0.0,0.0,0.0,0.0,0.0,0.0,0.0,0.0,0.0,0.0,0.0,0.0,0.0,0.0,0.0,0.0,0.0,0.0,0.0,0.0,0.0,0.0,0.0,0.0,0.0,0.0,0.0,0.0,0.0,0.0,0.0,0.0,0.0,0.0,0.0,0.0,0.0,0.0,0.0,0.0,0.0,0.0,0.0,0.0,0.0,0.0,0.0,0.0,0.0,0.0,0.0,0.0,0.0,0.0,0.0,0.0,0.0,0.0,0.0,0.0,0.0,0.0,0.0,0.0,0.0,0.0,0.0,0.0,0.0,0.0,0.0,0.0,0.0,0.0,0.0,0.0,0.0,0.0,0.0,0.0,0.0,0.0,0.0,0.0,0.0,0.0,0.0,0.0,0.0,0.0,0.0,0.0,0.0,0.0,0.0,0.0,0.0,0.0,0.0,0.0,0.0,0.0,0.0,0.0,0.0,0.0,0.0,0.0,0.0,0.0,0.0,0.0,0.0,0.0,0.0,0.0,0.0,0.0,0.0,0.0,0.0,0.0,0.0,0.0,0.0,0.0,0.0,0.0,0.0,0.0,0.0,0.0,0.0,0.0,0.0,0.0,0.0,0.0,0.0,0.0,0.0,0.0,0.0,0.0,0.0,0.0,0.0,0.0,0.0,0.0,0.0,0.0,0.0,0.0,0.0,0.0,0.0,0.0,0.0,0.0,0.0,0.0,0.0,0.0,0.0,0.0,0.0,0.0,0.0,0.0,0.0,0.0,0.0,0.0,0.0,0.0,0.0,0.0,0.0,0.0,0.0,0.0,0.0,0.0,0.0,0.0,0.0,0.0,0.0,0.0,0.0,0.0,0.0,0.0,0.0,0.0,0.0,0.0,0.0,0.0,0.0,0.0,0.0,0.0,0.0,0.0,0.0,0.0,0.0,0.0,0.0,0.0,0.0,0.0,0.0,0.0,0.0,0.0,0.0,0.0,0.0,0.0,0.0,0.0,0.0,0.0,0.0,0.0,0.0,0.0,0.0,0.0,0.0,0.0,0.0,0.0,0.0,0.0,0.0,0.0,0.0,0.0,0.0,0.0,0.0,0.0,0.0,0.0,0.0,0.0,0.0,0.0,0.0,0.0,0.0,0.0,0.0,0.0,0.0,0.0,0.0,0.0,0.0,0.0,0.0,0.0,0.0,0.0,0.0,0.0,0.0,0.0,0.0,0.0,0.0,0.0,0.0,0.0,0.0,0.0,0.0,0.0,0.0,0.0,0.0,0.0,0.0,0.0,0.0,0.0,0.0,0.0,0.0,0.0,0.0,0.0,0.0,0.0,0.0,0.0,0.0,0.0,0.0,0.0,0.0,0.0,0.0,0.0,0.0,0.0,0.0,0.0,0.0,0.0,0.0,0.0,0.0,0.0,0.0,0.0,0.0,0.0,0.0,0.0,0.0,0.0,0.0,0.0,0.0,0.0,0.0,0.0,0.0,0.0,0.0,0.0,0.0,0.0,0.0,0.0,0.0,0.0,0.0,0.0,0.0,0.0,0.0,0.0,0.0,0.0,0.0,0.0,0.0,0.0,0.0,0.0,0.0,0.0,0.0,0.0,0.0,0.0,0.0,0.0,0.0,0.0,0.0,0.0,0.0,0.0,0.0,0.0,0.0,0.0,0.0,0.0,0.0,0.0,0.0,0.0,0.0,0.0,0.0,0.0,0.0,0.0,0.0,0.0,0.0,0.0,0.0,0.0,0.0,0.0,0.0,0.0,0.0,0.0,0.0,0.0,0.0,0.0,0.0,0.0,0.0,0.0,0.0,0.0,0.0,0.0,0.0,0.0,0.0,0.0,0.0,0.0,0.0,0.0,0.0,0.0,0.0,0.0,0.0,0.0,0.0,0.0,0.0,0.0,0.0,0.0,0.0,0.0,0.0,0.0,0.0,0.0,0.0,0.0,0.0,0.0,0.0,0.0,0.0,0.0,0.0,0.0,0.0,0.0,0.0,0.0,0.0,0.0,0.0,0.0,0.0,0.0,0.0,0.0,0.0,0.0,0.0,0.0,0.0,0.0,0.0,0.0,0.0,0.0,0.0,0.0,0.0,0.0,0.0,0.0,0.0,0.0,0.0,0.0,0.0,0.0,0.0,0.0,0.0,0.0,0.0,0.0,0.0,0.0,0.0,0.0,0.0,0.0,0.0,0.0,0.0,0.0,0.0,0.0,0.0,0.0,0.0,0.0,0.0,0.0,0.0,0.0,0.0,0.0,0.0,0.0,0.0,0.0,0.0,0.0,0.0,0.0,0.0,0.0,0.0,0.0,0.0,0.0,0.0,0.0,0.0,0.0,0.0,0.0,0.0,0.0,0.0,0.0,0.0,0.0,0.0,0.0,0.0,0.0,0.0,0.0,0.0,0.0,0.0,0.0,0.0,0.0,0.0,0.0,0.0,0.0,0.0,0.0,0.0,0.0,0.0,0.0,0.0,0.0,0.0,0.0,0.0,0.0,0.0,0.0,0.0,0.0,0.0,0.0,0.0,0.0,0.0,0.0,0.0,0.0,0.0,0.0,0.0,0.0,0.0,0.0,0.0,0.0,0.0,0.0,0.0,0.0,0.0,0.0,0.0,0.0,0.0,0.0,0.0,0.0,0.0,0.0,0.0,0.0,0.0,0.0,0.0,0.0,0.0,0.0,0.0,0.0,0.0,0.0,0.0,0.0,0.0,0.0,0.0,0.0,0.0,0.0,0.0,0.0,0.0,0.0,0.0,0.0,0.0,0.0,0.0,0.0,0.0,0.0,0.0,0.0,0.0,0.0,0.0,0.0,0.0,0.0,0.0,0.0,0.0,0.0,0.0,0.0,0.0,0.0,0.0,0.0,0.0,0.0,0.0,0.0,0.0,0.0,0.0,0.0,0.0,0.0,0.0,0.0,0.0,0.0,0.0,0.0,0.0,0.0,0.0,0.0,0.0,0.0,0.0,0.0,0.0,0.0,0.0,0.0,0.0,0.0,0.0,0.0,0.0,0.0,0.0,0.0,0.0,0.0,0.0,0.0,0.0,0.0,0.0,0.0,0.0,0.0,0.0,0.0,0.0,0.0,0.0,0.0,0.0,0.0,0.0,0.0,0.0,0.0,0.0,0.0,0.0,0.0,0.0,0.0,0.0,0.0,0.0,0.0,0.0,0.0,0.0,0.0,0.0,0.0,0.0,0.0,0.0,0.0,0.0,0.0,0.0,0.0,0.0,0.0,0.0,0.0,0.0,0.0,0.0,0.0,0.0,0.0,0.0,0.0,0.0,0.0,0.0,0.0,0.0,0.0,0.0,0.0,0.0,0.0,0.0,0.0,0.0,0.0,0.0,0.0,0.0,0.0,0.0,0.0,0.0,0.0,0.0,0.0,0.0,0.0,0.0,0.0,0.0,0.0,0.0,0.0,0.0,0.0,0.0,0.0,0.0,0.0,0.0,0.0,0.0,0.0,0.0,0.0,0.0,0.0,0.0,0.0,0.0,0.0,0.0,0.0,0.0,0.0,0.0,0.0,0.0,0.0,0.0,0.0,0.0,0.0,0.0,0.0,0.0,0.0,0.0,0.0,0.0,0.0,0.0,0.0,0.0,0.0,0.0,0.0,0.0,0.0,0.0,0.0,0.0,0.0,0.0,0.0,0.0,0.0,0.0,0.0,0.0,0.0,0.0,0.0,0.0,0.0,0.0,0.0,0.0,0.0,0.0,0.0,0.0,0.0,0.0,0.0,0.0,0.0,0.0,0.0,0.0,0.0,0.0,0.0,0.0,0.0,0.0,0.0,0.0,0.0,0.0,0.0,0.0,0.0,0.0,0.0,0.0,0.0,0.0,0.0,0.0,0.0,0.0,0.0,0.0,0.0,0.0,0.0,0.0,0.0,0.0,0.0,0.0,0.0,0.0,0.0,0.0,0.0,0.0,0.0,0.0,0.0,0.0,0.0,0.0,0.0,0.0,0.0,0.0,0.0,0.0,0.0,0.0,0.0,0.0,0.0,0.0,0.0,0.0,0.0,0.0,0.0,0.0,0.0,0.0,0.0,0.0,0.0,0.0,0.0,0.0,0.0,0.0,0.0,0.0,0.0,0.0,0.0,0.0,0.0,0.0,0.0,0.0,0.0,0.0,0.0,0.0,0.0,-4.417,0.0,0.0,0.0,-4.0374,0.0,0.0,0.0,0.0,0.0,0.0,0.0,0.0,0.0,0.0,0.0,0.0,0.0,0.0,0.0,0.0,0.0,0.0,0.0,0.0,0.0,0.0,0.0,0.0,0.0,0.0,0.0,0.0,0.0,0.0,0.0,0.0,0.0,0.0,0.0,0.0,0.0,0.0,0.0,0.0,0.0,0.0,0.0,0.0,0.0,0.0,0.0,0.0,0.0,0.0,0.0,0.0,0.0,0.0,0.0,0.0,0.0,0.0,0.0,0.0,0.0,0.0,0.0,0.0,0.0,0.0,0.0,0.0,0.0,0.0,0.0,0.0,0.0,0.0,0.0,0.0,0.0,0.0,0.0,0.0,0.0,0.0,0.0,0.0,0.0,0.0,0.0,0.0,0.0,0.0,0.0,0.0,0.0,0.0,0.0,0.0,0.0,0.0,0.0,0.0,0.0,0.0,0.0,0.0,0.0,0.0,0.0,0.0,0.0,0.0,-4.4985,-4.4208,-4.3303,-4.2107,-4.0628,0.0,0.0,0.0,0.0,0.0,0.0,0.0,0.0,0.0,0.0,0.0,0.0,0.0,0.0,0.0,0.0,0.0,0.0,0.0,0.0,0.0,0.0,0.0,0.0,0.0,0.0,0.0,0.0,0.0,0.0,0.0,0.0,0.0,0.0,0.0,0.0,0.0,0.0,0.0,0.0,0.0,0.0,0.0,0.0,0.0,0.0,0.0,0.0,0.0,0.0,0.0,0.0,0.0,0.0,0.0,0.0,0.0,0.0,0.0,0.0,0.0,0.0,0.0,0.0,0.0,0.0,0.0,0.0,0.0,0.0,0.0,0.0,0.0,0.0,0.0,0.0,0.0,0.0,0.0,0.0,0.0,0.0,0.0,0.0,0.0,0.0,0.0,0.0,0.0,0.0,0.0,0.0,0.0,0.0,0.0,0.0,0.0,0.0,0.0,0.0,0.0,0.0,0.0,0.0,0.0,0.0,0.0,0.0,0.0,0.0,0.0,0.0,-4.4433,-4.2818,-4.0392,0.0,0.0,0.0,0.0,0.0,0.0,0.0,0.0,0.0,0.0,0.0,0.0,0.0,0.0,0.0,0.0,0.0,0.0,0.0,0.0,0.0,0.0,0.0,0.0,0.0,0.0,0.0,0.0,0.0,0.0,0.0,0.0,0.0,0.0,0.0,0.0,0.0,0.0,0.0,0.0,0.0,0.0,0.0,0.0,0.0,0.0,0.0,0.0,0.0,0.0,0.0,0.0,0.0,0.0,0.0,0.0,0.0,0.0,0.0,0.0,0.0,0.0,0.0,0.0,0.0,0.0,0.0,0.0,0.0,0.0,0.0,0.0,0.0,0.0,0.0,0.0,0.0,0.0,0.0,0.0,0.0,0.0,0.0,0.0,0.0,0.0,0.0,0.0,0.0,0.0,0.0,0.0,0.0,0.0,0.0,0.0,0.0,0.0,0.0,0.0,0.0,0.0,0.0,0.0,0.0,0.0,0.0,0.0,0.0,0.0,-4.6227,-4.6936,-4.6098,0.0,-4.0081,0.0,0.0,0.0,0.0,0.0,0.0,0.0,0.0,0.0,0.0,0.0,0.0,0.0,0.0,0.0,0.0,0.0,0.0,0.0,0.0,0.0,0.0,0.0,0.0,0.0,0.0,0.0,0.0,0.0,0.0,0.0,0.0,0.0,0.0,0.0,0.0,0.0,0.0,0.0,0.0,0.0,0.0,0.0,0.0,0.0,0.0,0.0,0.0,0.0,0.0,0.0,0.0,0.0,0.0,0.0,0.0,0.0,0.0,0.0,0.0,0.0,0.0,0.0,0.0,0.0,0.0,0.0,0.0,0.0,0.0,0.0,0.0,0.0,0.0,0.0,0.0,0.0,0.0,0.0,0.0,0.0,0.0,0.0,0.0,0.0,0.0,0.0,0.0,0.0,0.0,0.0,0.0,0.0,0.0,0.0,0.0,0.0,0.0,0.0,0.0,0.0,0.0,0.0,0.0,0.0,0.0,0.0,0.0,0.0,0.0,-4.6834,-4.7196,-4.5602,-4.3136,0.0,0.0,0.0,0.0,0.0,0.0,0.0,0.0,0.0,0.0,0.0,0.0,0.0,0.0,0.0,0.0,0.0,0.0,0.0,0.0,0.0,0.0,0.0,0.0,0.0,0.0,0.0,0.0,0.0,0.0,0.0,0.0,0.0,0.0,0.0,0.0,0.0,0.0,0.0,0.0,0.0,0.0,0.0,0.0,0.0,0.0,0.0,0.0,0.0,0.0,0.0,0.0,0.0,0.0,0.0,0.0,0.0,0.0,0.0,0.0,0.0,0.0,0.0,0.0,0.0,0.0,0.0,0.0,0.0,0.0,0.0,0.0,0.0,0.0,0.0,0.0,0.0,0.0,0.0,0.0,0.0,0.0,0.0,0.0,0.0,0.0,0.0,0.0,0.0,0.0,0.0,0.0,0.0,0.0,0.0,0.0,0.0,0.0,0.0,0.0,0.0,0.0,0.0,0.0,0.0,0.0,0.0,0.0,0.0,0.0,-4.6997,-4.7304,-4.7469,-4.5751,-4.3293,-4.0178,0.0,0.0,0.0,0.0,0.0,0.0,0.0,0.0,0.0,0.0,0.0,0.0,0.0,0.0,0.0,0.0,0.0,0.0,0.0,0.0,0.0,0.0,0.0,0.0,0.0,0.0,0.0,0.0,0.0,0.0,0.0,0.0,0.0,0.0,0.0,0.0,0.0,0.0,0.0,0.0,0.0,0.0,0.0,0.0,0.0,0.0,0.0,0.0,0.0,0.0,0.0,0.0,0.0,0.0,0.0,0.0,0.0,0.0,0.0,0.0,0.0,0.0,0.0,0.0,0.0,0.0,0.0,0.0,0.0,0.0,0.0,0.0,0.0,0.0,0.0,0.0,0.0,0.0,0.0,0.0,0.0,0.0,0.0,0.0,0.0,0.0,0.0,0.0,0.0,0.0,0.0,0.0,0.0,0.0,0.0,0.0,0.0,0.0,0.0,0.0,0.0,0.0,0.0,0.0,0.0,0.0,0.0,0.0,-4.8214,-4.7609,-4.7598,-4.8422,-4.7416,-4.4983,0.0,0.0,0.0,0.0,0.0,0.0,0.0,0.0,0.0,0.0,0.0,0.0,0.0,0.0,0.0,0.0,0.0,0.0,0.0,0.0,0.0,0.0,0.0,0.0,0.0,0.0,0.0,0.0,0.0,0.0,0.0,0.0,0.0,0.0,0.0,0.0,0.0,0.0,0.0,0.0,0.0,0.0,0.0,0.0,0.0,0.0,0.0,0.0,0.0,0.0,0.0,0.0,0.0,0.0,0.0,0.0,0.0,0.0,0.0,0.0,0.0,0.0,0.0,0.0,0.0,0.0,0.0,0.0,0.0,0.0,0.0,0.0,0.0,0.0,0.0,0.0,0.0,0.0,0.0,0.0,0.0,0.0,0.0,0.0,0.0,0.0,0.0,0.0,0.0,0.0,0.0,0.0,0.0,0.0,0.0,0.0,0.0,0.0,0.0,0.0,0.0,0.0,0.0,0.0,0.0,0.0,0.0,0.0,0.0,-4.7577,-4.7907,-4.8718,-4.998,-4.6636,-4.388,0.0,0.0,0.0,0.0,0.0,0.0,0.0,0.0,0.0,0.0,0.0,0.0,0.0,0.0,0.0,0.0,0.0,0.0,0.0,0.0,0.0,0.0,0.0,0.0,0.0,0.0,0.0,0.0,0.0,0.0,0.0,0.0,0.0,0.0,0.0,0.0,0.0,0.0,0.0,0.0,0.0,0.0,0.0,0.0,0.0,0.0,0.0,0.0,0.0,0.0,0.0,0.0,0.0,0.0,0.0,0.0,0.0,0.0,0.0,0.0,0.0,0.0,0.0,0.0,0.0,0.0,0.0,0.0,0.0,0.0,0.0,0.0,0.0,0.0,0.0,0.0,0.0,0.0,0.0,0.0,0.0,0.0,0.0,0.0,0.0,0.0,0.0,0.0,0.0,0.0,0.0,0.0,0.0,0.0,0.0,0.0,0.0,0.0,0.0,0.0,0.0,0.0,0.0,0.0,0.0,0.0,0.0,0.0,0.0,-4.7521,0.0,-4.962,-5.0004,-4.6299,-4.3448,0.0,0.0,0.0,0.0,0.0,0.0,0.0,0.0,0.0,0.0,0.0,0.0,0.0,0.0,0.0,0.0,0.0,0.0,0.0,0.0,0.0,0.0,0.0,0.0,0.0,0.0,0.0,0.0,0.0,0.0,0.0,0.0,0.0,0.0,0.0,0.0,0.0,0.0,0.0,0.0,0.0,0.0,0.0,0.0,0.0,0.0,0.0,0.0,0.0,0.0,0.0,0.0,0.0,0.0,0.0,0.0,0.0,0.0,0.0,0.0,0.0,0.0,0.0,0.0,0.0,0.0,0.0,0.0,0.0,0.0,0.0,0.0,0.0,0.0,0.0,0.0,0.0,0.0,0.0,0.0,0.0,0.0,0.0,0.0,0.0,0.0,0.0,0.0,0.0,0.0,0.0,0.0,0.0,0.0,0.0,0.0,0.0,0.0,0.0,0.0,0.0,0.0,0.0,0.0,0.0,0.0,0.0,0.0,-4.6217,-4.8242,-5.0072,-5.0173,-4.841,-4.6666,-4.3987,0.0,0.0,0.0,0.0,0.0,0.0,0.0,0.0,0.0,0.0,0.0,0.0,0.0,0.0,0.0,0.0,0.0,0.0,0.0,0.0,0.0,0.0,0.0,0.0,0.0,0.0,0.0,0.0,0.0,0.0,0.0,0.0,0.0,0.0,0.0,0.0,0.0,0.0,0.0,0.0,0.0,0.0,0.0,0.0,0.0,0.0,0.0,0.0,0.0,0.0,0.0,0.0,0.0,0.0,0.0,0.0,0.0,0.0,0.0,0.0,0.0,0.0,0.0,0.0,0.0,0.0,0.0,0.0,0.0,0.0,0.0,0.0,0.0,0.0,0.0,0.0,0.0,0.0,0.0,0.0,0.0,0.0,0.0,0.0,0.0,0.0,0.0,0.0,0.0,0.0,0.0,0.0,0.0,0.0,0.0,0.0,0.0,0.0,0.0,0.0,0.0,0.0,0.0,0.0,0.0,0.0,0.0,0.0,0.0,-4.8455,-4.958,-5.0324,-5.0373,-4.69,-4.4498,0.0,0.0,0.0,0.0,0.0,0.0,0.0,0.0,0.0,0.0,0.0,0.0,0.0,0.0,0.0,0.0,0.0,0.0,0.0,0.0,0.0,0.0,0.0,0.0,0.0,0.0,0.0,0.0,0.0,0.0,0.0,0.0,0.0,0.0,0.0,0.0,0.0,0.0,0.0,0.0,0.0,0.0,0.0,0.0,0.0,0.0,0.0,0.0,0.0,0.0,0.0,0.0,0.0,0.0,0.0,0.0,0.0,0.0,0.0,0.0,0.0,0.0,0.0,0.0,0.0,0.0,0.0,0.0,0.0,0.0,0.0,0.0,0.0,0.0,0.0,0.0,0.0,0.0,0.0,0.0,0.0,0.0,0.0,0.0,0.0,0.0,0.0,0.0,0.0,0.0,0.0,0.0,0.0,0.0,0.0,0.0,0.0,0.0,0.0,0.0,0.0,0.0,0.0,0.0,0.0,0.0,0.0,0.0,0.0,-4.9501,-5.0599,-5.1205,-5.1212,-4.7512,-4.514,-4.4284,0.0,0.0,0.0,0.0,0.0,0.0,0.0,0.0,0.0,0.0,0.0,0.0,0.0,0.0,0.0,0.0,0.0,0.0,0.0,0.0,0.0,0.0,0.0,0.0,0.0,0.0,0.0,0.0,0.0,0.0,0.0,0.0,0.0,0.0,0.0,0.0,0.0,0.0,0.0,0.0,0.0,0.0,0.0,0.0,0.0,0.0,0.0,0.0,0.0,0.0,0.0,0.0,0.0,0.0,0.0,0.0,0.0,0.0,0.0,0.0,0.0,0.0,0.0,0.0,0.0,0.0,0.0,0.0,0.0,0.0,0.0,0.0,0.0,0.0,0.0,0.0,0.0,0.0,0.0,0.0,0.0,0.0,0.0,0.0,0.0,0.0,0.0,0.0,0.0,0.0,0.0,0.0,0.0,0.0,0.0,0.0,0.0,0.0,0.0,0.0,0.0,0.0,0.0,0.0,0.0,0.0,0.0,0.0,-5.1137,-5.2796,-5.277,-5.0942,-4.8507,-4.6012,0.0,0.0,0.0,0.0,0.0,0.0,0.0,0.0,0.0,0.0,0.0,0.0,0.0,0.0,0.0,0.0,0.0,0.0,0.0,0.0,0.0,0.0,0.0,0.0,0.0,0.0,0.0,0.0,0.0,0.0,0.0,0.0,0.0,0.0,0.0,0.0,0.0,0.0,0.0,0.0,0.0,0.0,0.0,0.0,0.0,0.0,0.0,0.0,0.0,0.0,0.0,0.0,0.0,0.0,0.0,0.0,0.0,0.0,0.0,0.0,0.0,0.0,0.0,0.0,0.0,0.0,0.0,0.0,0.0,0.0,0.0,0.0,0.0,0.0,0.0,0.0,0.0,0.0,0.0,0.0,0.0,0.0,0.0,0.0,0.0,0.0,0.0,0.0,0.0,0.0,0.0,0.0,0.0,0.0,0.0,0.0,0.0,0.0,0.0,0.0,0.0,0.0,0.0,0.0,0.0,0.0,0.0,0.0,0.0,-5.2889,-5.4002,-5.4056,-5.298,-5.0023,-4.8093,0.0,0.0,0.0,0.0,0.0,0.0,0.0,0.0,0.0,0.0,0.0,0.0,0.0,0.0,0.0,0.0,0.0,0.0,0.0,0.0,0.0,0.0,0.0,0.0,0.0,0.0,0.0,0.0,0.0,0.0,0.0,0.0,0.0,0.0,0.0,0.0,0.0,0.0,0.0,0.0,0.0,0.0,0.0,0.0,0.0,0.0,0.0,0.0,0.0,0.0,0.0,0.0,0.0,0.0,0.0,0.0,0.0,0.0,0.0,0.0,0.0,0.0,0.0,0.0,0.0,0.0,0.0,0.0,0.0,0.0,0.0,0.0,0.0,0.0,0.0,0.0,0.0,0.0,0.0,0.0,0.0,0.0,0.0,0.0,0.0,0.0,0.0,0.0,0.0,0.0,0.0,0.0,0.0,0.0,0.0,0.0,0.0,0.0,0.0,0.0,0.0,0.0,0.0,0.0,0.0,0.0,0.0,0.0,-5.2825,-5.4203,-5.5025,-5.5193,-5.4707,-5.197,-4.9851,0.0,0.0,0.0,0.0,0.0,0.0,0.0,0.0,0.0,0.0,0.0,0.0,0.0,0.0,0.0,0.0,0.0,0.0,0.0,0.0,0.0,0.0,0.0,0.0,0.0,0.0,0.0,0.0,0.0,0.0,0.0,0.0,0.0,0.0,0.0,0.0,0.0,0.0,0.0,0.0,0.0,0.0,0.0,0.0,0.0,0.0,0.0,0.0,0.0,0.0,0.0,0.0,0.0,0.0,0.0,0.0,0.0,0.0,0.0,0.0,0.0,0.0,0.0,0.0,0.0,0.0,0.0,0.0,0.0,0.0,0.0,0.0,0.0,0.0,0.0,0.0,0.0,0.0,0.0,0.0,0.0,0.0,0.0,0.0,0.0,0.0,0.0,0.0,0.0,0.0,0.0,0.0,0.0,0.0,0.0,0.0,0.0,0.0,0.0,0.0,0.0,0.0,0.0,0.0,0.0,0.0,0.0,0.0,-5.4072,-5.5075,-5.5825,-5.6115,-5.5846,-5.3766,-5.1288,0.0,0.0,0.0,0.0,0.0,0.0,0.0,0.0,0.0,0.0,0.0,0.0,0.0,0.0,0.0,0.0,0.0,0.0,0.0,0.0,0.0,0.0,0.0,0.0,0.0,0.0,0.0,0.0,0.0,0.0,0.0,0.0,0.0,0.0,0.0,0.0,0.0,0.0,0.0,0.0,0.0,0.0,0.0,0.0,0.0,0.0,0.0,0.0,0.0,0.0,0.0,0.0,0.0,0.0,0.0,0.0,0.0,0.0,0.0,0.0,0.0,0.0,0.0,0.0,0.0,0.0,0.0,0.0,0.0,0.0,0.0,0.0,0.0,0.0,0.0,0.0,0.0,0.0,0.0,0.0,0.0,0.0,0.0,0.0,0.0,0.0,0.0,0.0,0.0,0.0,0.0,0.0,0.0,0.0,0.0,0.0,0.0,0.0,0.0,0.0,0.0,0.0,0.0,0.0,0.0,0.0,0.0,0.0,-5.4044,-5.492,-5.5877,-5.6213,-5.5885,-5.3408,-5.146,0.0,0.0,0.0,0.0,0.0,0.0,0.0,0.0,0.0,0.0,0.0,0.0,0.0,0.0,0.0,0.0,0.0,0.0,0.0,0.0,0.0,0.0,0.0,0.0,0.0,0.0,0.0,0.0,0.0,0.0,0.0,0.0,0.0,0.0,0.0,0.0,0.0,0.0,0.0,0.0,0.0,0.0,0.0,0.0,0.0,0.0,0.0,0.0,-4.7645,0.0,0.0,0.0,0.0,0.0,0.0,0.0,0.0,0.0,0.0,0.0,0.0,0.0,0.0,0.0,0.0,0.0,0.0,0.0,0.0,0.0,0.0,0.0,0.0,0.0,0.0,0.0,0.0,0.0,0.0,0.0,0.0,0.0,0.0,0.0,0.0,0.0,0.0,0.0,0.0,0.0,0.0,0.0,0.0,0.0,0.0,0.0,0.0,0.0,0.0,0.0,0.0,0.0,0.0,0.0,0.0,0.0,0.0,0.0,-5.4656,-5.5573,-5.6119,-5.6285,-5.5974,-5.421,-5.2414,0.0,0.0,0.0,0.0,0.0,0.0,0.0,0.0,0.0,0.0,0.0,0.0,0.0,0.0,0.0,0.0,0.0,0.0,0.0,0.0,0.0,0.0,0.0,0.0,0.0,0.0,0.0,0.0,0.0,0.0,0.0,0.0,0.0,0.0,0.0,0.0,0.0,0.0,0.0,0.0,0.0,0.0,0.0,0.0,0.0,0.0,0.0,0.0,0.0,0.0,0.0,0.0,0.0,0.0,0.0,0.0,0.0,0.0,0.0,0.0,0.0,0.0,0.0,0.0,0.0,0.0,0.0,0.0,0.0,0.0,0.0,0.0,0.0,0.0,0.0,0.0,0.0,0.0,0.0,0.0,0.0,0.0,0.0,0.0,0.0,0.0,0.0,0.0,0.0,0.0,0.0,0.0,0.0,0.0,0.0,0.0,0.0,0.0,0.0,0.0,0.0,0.0,0.0,0.0,0.0,0.0,0.0,-5.3865,-5.5161,-5.6316,-5.6406,-5.6344,-5.6227,-5.5404,-5.3646,-5.088,0.0,0.0,0.0,0.0,0.0,0.0,0.0,0.0,0.0,0.0,0.0,0.0,0.0,0.0,0.0,0.0,0.0,0.0,0.0,0.0,0.0,0.0,0.0,0.0,0.0,0.0,0.0,0.0,0.0,0.0,0.0,0.0,0.0,0.0,0.0,0.0,0.0,0.0,-4.4696,-4.8329,0.0,0.0,0.0,0.0,0.0,0.0,0.0,0.0,-4.9196,0.0,0.0,0.0,0.0,0.0,0.0,0.0,0.0,0.0,0.0,0.0,0.0,0.0,0.0,0.0,0.0,0.0,0.0,0.0,0.0,0.0,0.0,0.0,0.0,0.0,0.0,0.0,0.0,0.0,0.0,0.0,0.0,0.0,0.0,0.0,0.0,0.0,0.0,0.0,0.0,0.0,0.0,0.0,0.0,0.0,0.0,0.0,0.0,0.0,0.0,0.0,0.0,0.0,0.0,0.0,0.0,-5.2983,-5.3111,-5.4142,-5.6164,-5.6344,-5.6406,-5.6358,-5.6221,-5.453,-5.1242,0.0,0.0,0.0,0.0,0.0,0.0,0.0,0.0,0.0,0.0,0.0,0.0,0.0,0.0,0.0,0.0,0.0,0.0,0.0,0.0,0.0,0.0,0.0,0.0,0.0,0.0,0.0,0.0,0.0,0.0,0.0,0.0,0.0,0.0,0.0,0.0,0.0,0.0,0.0,-4.971,-5.1108,0.0,0.0,0.0,0.0,0.0,0.0,0.0,0.0,-4.8768,0.0,0.0,0.0,0.0,0.0,0.0,0.0,0.0,0.0,0.0,0.0,0.0,0.0,0.0,0.0,0.0,0.0,0.0,0.0,0.0,0.0,0.0,0.0,0.0,0.0,0.0,0.0,0.0,0.0,0.0,0.0,0.0,0.0,0.0,0.0,0.0,0.0,0.0,0.0,0.0,0.0,0.0,0.0,0.0,0.0,0.0,0.0,0.0,0.0,0.0,0.0,0.0,0.0,0.0,0.0,-5.2421,-5.3578,-5.4727,-5.5999,-5.6198,-5.6306,-5.6279,-5.5865,-5.4225,0.0,0.0,0.0,0.0,0.0,0.0,0.0,0.0,0.0,0.0,0.0,0.0,0.0,0.0,0.0,0.0,0.0,0.0,0.0,0.0,0.0,0.0,0.0,0.0,0.0,0.0,0.0,0.0,0.0,0.0,0.0,0.0,0.0,0.0,0.0,0.0,0.0,0.0,0.0,0.0,-5.0197,-5.1493,-5.2448,0.0,0.0,0.0,0.0,0.0,0.0,-4.862,-4.8759,0.0,0.0,0.0,0.0,0.0,0.0,0.0,0.0,0.0,0.0,0.0,0.0,0.0,0.0,0.0,0.0,0.0,0.0,0.0,0.0,0.0,0.0,0.0,0.0,0.0,0.0,0.0,0.0,0.0,0.0,0.0,0.0,0.0,0.0,0.0,0.0,0.0,0.0,0.0,0.0,0.0,0.0,0.0,0.0,0.0,0.0,0.0,0.0,0.0,0.0,0.0,0.0,0.0,0.0,0.0,-5.1641,-5.3784,-5.5154,-5.5743,-5.6019,-5.6167,-5.618,-5.5538,-5.3905,0.0,0.0,0.0,0.0,0.0,0.0,0.0,0.0,0.0,0.0,0.0,0.0,0.0,0.0,0.0,0.0,0.0,0.0,0.0,0.0,0.0,0.0,0.0,0.0,0.0,0.0,0.0,0.0,0.0,0.0,0.0,0.0,0.0,0.0,0.0,0.0,0.0,0.0,0.0,0.0,0.0,-5.1894,-5.247,-5.1154,0.0,0.0,0.0,0.0,-4.869,-4.8822,0.0,0.0,0.0,0.0,0.0,0.0,0.0,0.0,0.0,0.0,0.0,0.0,0.0,0.0,0.0,0.0,0.0,0.0,0.0,0.0,0.0,0.0,0.0,0.0,0.0,0.0,0.0,0.0,0.0,0.0,0.0,0.0,0.0,0.0,0.0,0.0,0.0,0.0,0.0,0.0,0.0,0.0,0.0,0.0,0.0,0.0,0.0,0.0,0.0,0.0,0.0,0.0,0.0,0.0,0.0,0.0,-5.0524,-5.2491,-5.4074,-5.5301,-5.5743,-5.6025,-5.6174,-5.6101,-5.4489,0.0,0.0,0.0,0.0,0.0,0.0,0.0,0.0,0.0,0.0,0.0,0.0,0.0,0.0,0.0,0.0,0.0,0.0,0.0,0.0,0.0,0.0,0.0,0.0,0.0,0.0,0.0,0.0,0.0,0.0,0.0,0.0,0.0,0.0,0.0,0.0,0.0,0.0,0.0,0.0,0.0,-5.2112,-5.0667,-5.0573,-5.0454,0.0,0.0,-4.891,-4.9396,-4.9497,0.0,0.0,0.0,0.0,0.0,0.0,0.0,0.0,0.0,0.0,0.0,0.0,0.0,0.0,0.0,0.0,0.0,0.0,0.0,0.0,0.0,0.0,0.0,0.0,0.0,0.0,0.0,0.0,0.0,0.0,0.0,0.0,0.0,0.0,0.0,0.0,0.0,0.0,0.0,0.0,0.0,0.0,0.0,0.0,0.0,0.0,0.0,0.0,0.0,0.0,0.0,0.0,0.0,0.0,0.0,-4.7773,-4.978,-5.2249,-5.3968,-5.4822,-5.5238,-5.5526,-5.5681,-5.4985,-5.3514,0.0,0.0,0.0,0.0,0.0,0.0,0.0,0.0,0.0,0.0,0.0,0.0,0.0,0.0,0.0,0.0,0.0,0.0,0.0,0.0,0.0,0.0,0.0,0.0,0.0,0.0,0.0,0.0,0.0,0.0,0.0,0.0,0.0,0.0,0.0,0.0,0.0,0.0,0.0,0.0,0.0,0.0,-5.1433,-5.086,0.0,0.0,0.0,-4.8914,-4.9215,0.0,0.0,0.0,0.0,0.0,0.0,0.0,0.0,0.0,0.0,0.0,0.0,0.0,0.0,0.0,0.0,0.0,0.0,0.0,0.0,0.0,0.0,0.0,0.0,0.0,0.0,0.0,0.0,0.0,0.0,0.0,0.0,0.0,0.0,0.0,0.0,0.0,0.0,0.0,0.0,0.0,0.0,0.0,0.0,0.0,0.0,0.0,0.0,0.0,0.0,0.0,0.0,0.0,0.0,0.0,0.0,0.0,-4.8944,-5.1985,-5.3813,-5.4322,-5.475,-5.4993,-5.508,-5.4051,0.0,0.0,0.0,0.0,0.0,0.0,0.0,0.0,0.0,0.0,0.0,0.0,0.0,0.0,0.0,0.0,0.0,0.0,0.0,0.0,0.0,0.0,0.0,0.0,0.0,0.0,0.0,-3.6969,0.0,0.0,0.0,0.0,0.0,0.0,0.0,0.0,0.0,0.0,0.0,0.0,0.0,0.0,-5.0004,-5.1343,-5.0656,-5.0112,0.0,0.0,-4.8897,-4.9111,-4.9384,-4.9232,0.0,0.0,0.0,0.0,0.0,0.0,0.0,0.0,0.0,0.0,0.0,0.0,0.0,0.0,0.0,0.0,0.0,0.0,0.0,0.0,0.0,0.0,0.0,0.0,0.0,0.0,0.0,0.0,0.0,0.0,0.0,0.0,0.0,0.0,0.0,0.0,0.0,0.0,0.0,0.0,0.0,0.0,0.0,0.0,0.0,0.0,0.0,0.0,0.0,0.0,0.0,0.0,0.0,0.0,-4.6452,-4.7956,-5.1188,-5.3165,-5.3832,-5.4305,-5.4547,-5.4541,-5.4058,-5.2596,0.0,0.0,0.0,0.0,0.0,0.0,0.0,0.0,0.0,0.0,0.0,0.0,0.0,0.0,0.0,0.0,0.0,0.0,0.0,0.0,0.0,0.0,0.0,0.0,0.0,0.0,0.0,0.0,0.0,0.0,0.0,0.0,0.0,0.0,0.0,0.0,0.0,0.0,0.0,0.0,0.0,-4.9335,-4.8694,-4.919,-4.9749,0.0,-4.9432,-4.9014,-4.9405,-4.9476,-4.8956,-4.7369,0.0,0.0,0.0,0.0,0.0,0.0,0.0,0.0,0.0,0.0,0.0,0.0,0.0,0.0,0.0,0.0,0.0,0.0,0.0,0.0,0.0,0.0,0.0,0.0,0.0,0.0,0.0,0.0,0.0,0.0,0.0,0.0,0.0,0.0,0.0,0.0,0.0,0.0,0.0,0.0,0.0,0.0,0.0,0.0,0.0,0.0,0.0,0.0,0.0,0.0,0.0,0.0,0.0,-4.5863,-4.648,-5.0353,-5.248,-5.2758,-5.3608,-5.4066,-5.4085,-5.316,-5.176,0.0,0.0,0.0,0.0,0.0,0.0,0.0,0.0,0.0,0.0,0.0,0.0,0.0,0.0,0.0,0.0,0.0,0.0,0.0,0.0,0.0,0.0,0.0,0.0,0.0,0.0,0.0,0.0,-3.994,-4.0569,-4.0377,0.0,0.0,0.0,0.0,0.0,0.0,0.0,0.0,0.0,0.0,-4.8324,-4.9003,-4.939,0.0,0.0,-4.9246,-4.8963,-4.9108,-4.8923,-4.8348,-4.7202,-4.6579,0.0,0.0,0.0,0.0,0.0,0.0,0.0,0.0,0.0,0.0,0.0,0.0,0.0,0.0,0.0,0.0,0.0,0.0,0.0,0.0,0.0,0.0,0.0,0.0,0.0,0.0,0.0,0.0,0.0,0.0,0.0,0.0,0.0,0.0,0.0,0.0,0.0,0.0,0.0,0.0,0.0,0.0,0.0,0.0,0.0,0.0,0.0,0.0,0.0,0.0,0.0,0.0,-4.5399,-4.5614,-4.9485,-5.1576,-5.1808,-5.2779,-5.3296,-5.3278,-5.2539,-5.1359,0.0,0.0,0.0,0.0,0.0,0.0,0.0,0.0,0.0,0.0,0.0,0.0,0.0,0.0,0.0,0.0,0.0,0.0,0.0,0.0,0.0,0.0,0.0,0.0,0.0,0.0,0.0,0.0,-4.069,-4.0929,-4.0692,0.0,0.0,0.0,0.0,0.0,0.0,0.0,0.0,0.0,0.0,-4.7046,-4.8431,-4.8631,-4.8691,-4.8837,-4.8468,-4.8292,-4.8674,-4.8167,-4.7578,-4.7108,0.0,0.0,0.0,0.0,0.0,0.0,0.0,0.0,0.0,0.0,0.0,0.0,0.0,0.0,0.0,0.0,0.0,0.0,0.0,0.0,0.0,0.0,0.0,0.0,0.0,0.0,0.0,-4.5477,0.0,0.0,-4.3383,0.0,0.0,0.0,0.0,0.0,0.0,0.0,0.0,0.0,0.0,0.0,0.0,0.0,0.0,0.0,0.0,0.0,0.0,0.0,0.0,0.0,0.0,-4.4961,-4.5641,-4.8556,-5.04,-5.1112,-5.1765,-5.2141,-5.2147,-5.2347,-5.1693,-5.0038,0.0,0.0,0.0,0.0,0.0,0.0,0.0,0.0,0.0,0.0,0.0,0.0,0.0,0.0,0.0,0.0,0.0,0.0,0.0,0.0,0.0,0.0,0.0,0.0,0.0,0.0,-4.103,-3.9823,-3.9366,0.0,0.0,0.0,0.0,0.0,0.0,0.0,0.0,0.0,-4.3277,-4.4437,-4.5545,-4.6407,-4.6472,-4.6781,-4.7356,-4.691,-4.6914,-4.8096,-4.727,-4.6583,0.0,0.0,0.0,0.0,0.0,0.0,0.0,0.0,0.0,0.0,0.0,0.0,0.0,0.0,0.0,0.0,0.0,0.0,0.0,0.0,0.0,0.0,0.0,0.0,0.0,0.0,0.0,-4.3965,-4.4595,0.0,0.0,0.0,0.0,0.0,0.0,0.0,0.0,0.0,0.0,0.0,-3.9847,-4.0831,0.0,0.0,0.0,0.0,0.0,0.0,0.0,0.0,0.0,0.0,0.0,0.0,-4.4421,-4.5691,-4.8045,-4.9608,-5.0362,-5.1068,-5.1444,-5.1426,-5.0532,-4.8985,-4.679,0.0,0.0,0.0,0.0,0.0,0.0,0.0,0.0,0.0,0.0,0.0,0.0,0.0,0.0,0.0,0.0,0.0,0.0,0.0,0.0,0.0,0.0,0.0,0.0,0.0,-4.1875,0.0,0.0,0.0,0.0,0.0,0.0,0.0,0.0,0.0,0.0,-4.1582,-4.2583,-4.3863,-4.4705,-4.5481,-4.6283,-4.6389,-4.646,0.0,0.0,0.0,0.0,0.0,0.0,0.0,0.0,0.0,0.0,0.0,0.0,0.0,0.0,-4.7432,-4.6145,-4.5665,-4.5483,-4.5619,0.0,0.0,0.0,0.0,0.0,0.0,0.0,0.0,0.0,0.0,0.0,0.0,0.0,0.0,-4.3259,-4.4123,-4.3587,0.0,0.0,0.0,0.0,0.0,0.0,0.0,0.0,-3.9291,-3.9252,-3.9185,-3.9953,-4.0499,0.0,-4.0802,-4.0991,0.0,0.0,0.0,0.0,0.0,0.0,0.0,0.0,-4.3501,-4.479,-4.6972,-4.8443,-4.9159,-5.0178,-5.0593,-5.0321,-4.9074,-4.7488,-4.5548,-4.459,-4.3718,0.0,0.0,0.0,0.0,0.0,0.0,0.0,0.0,0.0,0.0,0.0,0.0,0.0,0.0,0.0,0.0,0.0,0.0,0.0,0.0,0.0,0.0,0.0,-4.2064,0.0,0.0,0.0,0.0,0.0,0.0,0.0,0.0,0.0,-4.109,-4.1749,-4.2629,-4.389,-4.4601,-4.5182,-4.5713,0.0,0.0,0.0,0.0,0.0,0.0,0.0,-4.5138,-4.5552,-4.5012,-4.4653,-4.5015,-4.623,-4.7138,-4.6826,0.0,0.0,-4.6977,-4.6592,-4.6502,-4.6891,-4.7371,-4.7786,-4.786,-4.75,-4.6935,0.0,0.0,0.0,0.0,0.0,0.0,0.0,0.0,-4.2078,-4.2758,0.0,-4.3736,0.0,0.0,0.0,0.0,-3.872,-3.8304,0.0,0.0,-3.9164,-3.915,-3.8033,-3.8599,-3.9006,-3.929,-4.0389,-4.0616,-4.0101,-3.9912,0.0,0.0,0.0,0.0,0.0,0.0,-4.2349,-4.3134,-4.5375,-4.6897,-4.7573,-4.9086,-4.9515,-4.8803,-4.8063,-4.7238,-4.6383,-4.5529,-4.4092,-4.1933,-4.2241,0.0,0.0,0.0,0.0,0.0,0.0,0.0,0.0,0.0,0.0,0.0,0.0,0.0,0.0,0.0,0.0,0.0,0.0,0.0,0.0,-4.3165,0.0,0.0,0.0,0.0,0.0,0.0,0.0,0.0,0.0,-4.0143,-4.1073,-4.1727,-4.2452,-4.3244,0.0,0.0,0.0,0.0,-4.4786,-4.5399,-4.4971,-4.5025,-4.6161,-4.5355,-4.4998,-4.6143,0.0,0.0,-4.5235,-4.6413,-4.7111,-4.641,-4.7385,-4.8402,-4.874,-4.8139,-4.7786,-4.8106,-4.814,-4.8021,-4.7654,-4.7476,-4.7272,-4.0167,0.0,0.0,0.0,0.0,-3.8926,-3.9503,-4.0415,-4.0415,-4.0946,-4.1794,-4.0793,0.0,0.0,0.0,0.0,0.0,0.0,-3.775,-3.735,-3.7727,-3.7927,-3.8051,-3.8212,-3.8803,-3.9661,-3.9576,-3.9385,-3.9284,-3.9525,-3.9454,-3.9093,0.0,0.0,0.0,0.0,-4.254,-4.3773,-4.4939,-4.5864,-4.6592,-4.7208,-4.7208,-4.6612,-4.6826,-4.6542,-4.5792,-4.4836,-4.4028,-4.3343,-4.1864,0.0,0.0,0.0,0.0,0.0,0.0,0.0,0.0,0.0,0.0,0.0,0.0,0.0,0.0,0.0,0.0,0.0,0.0,0.0,-3.9314,-3.9846,-3.9696,0.0,0.0,0.0,0.0,0.0,0.0,0.0,0.0,0.0,-4.0885,-4.1148,-4.1554,0.0,0.0,-4.297,-4.3591,-4.368,-4.3943,-4.4742,-4.4692,0.0,-4.5062,-4.4841,-4.472,-4.5062,-4.532,-4.5476,-4.5411,-4.6123,-4.6753,-4.6975,-4.7368,-4.7838,-4.8328,-4.8311,-4.8253,-4.8572,-4.8255,-4.7924,-4.8002,-4.7352,-4.6628,-3.9112,-3.87,-3.7896,-3.7709,-3.7895,-3.7594,-3.8176,-3.9361,-3.9176,-3.9628,-4.0534,-3.9658,-3.9214,-3.8999,-3.7825,0.0,0.0,0.0,-3.6919,-3.6819,-3.6819,-3.7045,-3.7402,-3.7402,-3.7815,-3.8456,-3.8297,-3.8187,-3.8174,-3.8671,-3.865,-3.8148,0.0,-4.0084,-4.0117,-4.0894,-4.1999,-4.3379,-4.4173,-4.4796,-4.5211,-4.5187,-4.5012,-4.4702,-4.4717,-4.4574,-4.4108,-4.3541,-4.3048,-4.2763,-4.1589,-4.079,0.0,0.0,0.0,0.0,0.0,0.0,0.0,0.0,0.0,0.0,0.0,-3.7041,-3.7293,0.0,0.0,0.0,-3.8318,-3.8526,-3.824,-3.9118,0.0,0.0,0.0,0.0,0.0,0.0,0.0,-3.9447,-3.9508,-3.9619,-3.9895,-4.0131,-4.0741,-4.1837,-4.1981,-4.2189,-4.2724,0.0,-4.297,-4.3515,-4.3873,-4.4093,-4.4093,-4.4384,-4.4496,-4.4164,-4.4146,-4.4353,-4.4637,-4.4953,-4.5399,-4.6039,-4.64,-4.6687,-4.7063,-4.7541,-4.7987,-4.8124,-4.7545,-4.714,-4.7492,-4.6679,-4.5931,-3.8691,-3.8454,-3.7326,-3.7319,-3.7828,-3.6362,-3.6879,-3.8759,-3.8254,-3.8639,-3.9648,-3.9651,-3.9264,-3.8603,-3.701,0.0,-3.7017,-3.604,-3.5881,-3.6417,-3.6417,-3.6417,-3.6417,-3.6417,-3.6417,-3.6439,-3.6839,-3.7061,-3.7093,-3.7628,-3.7592,-3.6976,-3.917,-4.0301,-4.0286,-4.0375,-4.1069,-4.2381,-4.3317,-4.3768,-4.3816,-4.3298,-4.3085,-4.312,-4.2382,-4.2029,-4.1981,-4.1933,-4.1582,-4.0944,-4.129,-4.0733,-3.9016,0.0,0.0,0.0,0.0,0.0,0.0,0.0,0.0,0.0,0.0,0.0,0.0,0.0,0.0,-3.7415,-3.8662,0.0,-3.8506,-3.9597,0.0,0.0,0.0,-3.7788,-3.6611,-3.7466,-3.7942,-3.7357,0.0,0.0,-3.8314,-3.8913,-3.9955,-4.1462,-4.1739,-4.1804,-4.1901,-4.1901,-4.1933,-4.2093,-4.2693,-4.3183,-4.3081,-4.3685,-4.3889,-4.3255,-4.2689,-4.2678,-4.3213,-4.3305,-4.3531,-4.4267,-4.4775,-4.5179,-4.522,-4.6211,-4.6985,-4.672,-4.6305,-4.6045,-4.6248,-4.5687,-4.5292,-3.6891,-3.5453,-3.5155,-3.6158,-3.7977,-3.7572,-3.7709,-3.8166,-3.7632,-3.7581,-3.7814,-3.7402,-3.7119,-3.6978,-3.6552,-3.6438,-3.6565,-3.6298,-3.6279,-3.6405,-3.6417,-3.6417,-3.6417,-3.6417,-3.6417,-3.6392,-3.6535,-3.6553,-3.6599,-3.7597,-3.7719,-3.716,-3.8532,-3.9181,-3.9122,-4.0046,-4.115,-4.2396,-4.3055,-4.3526,-4.37,-4.3116,-4.2868,-4.302,-4.2365,-4.1981,-4.1997,-4.1379,-4.095,-4.0745,-4.033,-3.9894,-3.9454,-3.8798,0.0,0.0,0.0,0.0,0.0,0.0,0.0,0.0,0.0,-3.5056,-3.3991,0.0,-3.5383,0.0,-3.5175,-3.5561,-3.5397,-3.569,0.0,0.0,-3.5563,-3.5566,-3.6207,-3.6127,-3.6141,-3.6451,-3.7462,-3.7809,-3.6834,-3.8266,-3.922,-3.8898,-3.952,-4.0255,-4.0894,-4.1013,-4.1247,-4.1836,-4.2125,-4.2122,-4.1716,-4.1812,-4.1953,-4.1725,-4.2003,-4.2371,-4.2523,-4.2555,-4.2766,-4.3393,-4.3656,-4.3926,-4.435,-4.4294,-4.406,-4.4095,-4.4991,-4.5718,-4.5235,-4.4673,-4.4322,-3.5745,-3.4506,-3.4719,-3.5577,-3.6757,-3.6075,-3.5896,-3.6051,-3.536,-3.5024,-3.5001,-3.4713,-3.4593,-3.4593,-3.4593,-3.4605,-3.4593,-3.4593,-3.4909,-3.5463,-3.4848,-3.5198,-3.6358,-3.5763,-3.5823,-3.6405,-3.6417,-3.6417,-3.6439,-3.6767,-3.6747,-3.6393,-3.7027,-3.7604,-3.809,-3.9255,-4.0187,-4.0868,-4.116,-4.1415,-4.1548,-4.1098,-4.0945,-4.1092,-4.0962,-4.0842,-4.0826,-4.0393,-4.0115,-4.01,-3.973,-3.9295,-3.8899,-3.8214,-3.7513,0.0,0.0,0.0,0.0,0.0,0.0,0.0,0.0,0.0,0.0,0.0,-3.4355,-3.3827,-3.4372,-3.473,-3.473,-3.4989,-3.5292,-3.5662,-3.5386,-3.5416,-3.6129,-3.5908,-3.5813,-3.6156,-3.6721,-3.6852,-3.6316,-3.7252,-3.7762,-3.7175,-3.761,-3.8487,-3.9819,-4.0115,-4.0324,-4.0758,-4.118,-4.1355,-4.1022,-4.0518,-4.0176,-4.0189,-4.0229,-4.0492,-4.117,-4.1007,-4.1112,-4.2099,-4.2362,-4.2462,-4.2801,-4.3115,-4.3044,-4.2858,-4.3664,-4.4311,-4.3924,-4.3806,-4.382,-3.4625,-3.4107,-3.4538,-3.4736,-3.4637,-3.3195,-3.3052,-3.3754,-3.2717,-3.228,-3.228,-3.228,-3.228,-3.228,-3.228,-3.228,-3.228,-3.228,-3.2944,-3.4019,-3.2844,-3.3589,-3.5798,-3.4666,-3.4824,-3.6108,-3.6081,-3.6116,-3.6245,-3.5658,-3.5395,-3.5395,-3.5382,-3.5869,-3.6862,-3.7866,-3.862,-3.9113,-3.9001,-3.8917,-3.889,-3.8644,-3.8496,-3.8517,-3.8881,-3.9069,-3.898,-3.898,-3.898,-3.898,-3.898,-3.8603,-3.7822,-3.7703,-3.6984,0.0,-3.4721,0.0,0.0,0.0,0.0,0.0,0.0,0.0,0.0,-3.3196,-3.3513,-3.4186,-3.4683,-3.4998,-3.4998,-3.5474,-3.5801,-3.5801,-3.5814,-3.5814,-3.5814,-3.5814,-3.5814,-3.5814,-3.592,-3.5974,-3.5734,-3.6013,-3.6212,-3.6093,-3.6237,-3.6993,-3.8568,-3.909,-3.9235,-3.9337,-3.9893,-4.0124,-4.0055,-3.9305,-3.8613,-3.8549,-3.8344,-3.8261,-3.9586,-3.9276,-3.9236,-4.0414,-4.0809,-4.0888,-4.0905,-4.1979,-4.2573,-4.1926,-4.2333,-4.2718,-4.2713,-4.305,-4.3477,-3.2523,-3.1124,-3.1529,-3.172,-3.1639,-3.0665,-3.1619,-3.3754,-3.2705,-3.228,-3.228,-3.228,-3.228,-3.228,-3.228,-3.228,-3.228,-3.228,-3.2431,-3.2694,-3.2431,-3.2593,-3.3032,-3.2794,-3.3403,-3.4703,-3.427,-3.46,-3.5646,-3.5107,-3.4876,-3.4831,-3.4876,-3.474,-3.4578,0.0,0.0,0.0,-3.9265,-3.8988,-3.8961,-3.8408,-3.792,-3.7487,-3.7536,0.0,-3.6841,-3.6799,-3.6799,-3.6799,-3.6799,0.0,0.0,0.0,0.0,0.0,0.0,0.0,0.0,0.0,0.0,0.0,-3.0555,-3.0482,-3.1356,-3.2057,-3.2804,-3.3714,-3.3615,-3.3517,-3.3517,-3.3606,-3.3713,-3.367,-3.3713,-3.367,-3.3658,-3.37,-3.3713,-3.3713,-3.4457,-3.4664,-3.3982,-3.5116,-3.5854,-3.517,-3.5668,-3.6316,-3.6721,-3.7587,-3.8435,-3.9154,-3.8702,-3.7926,-3.7412,-3.7248,-3.7108,-3.7076,-3.7537,-3.7841,-3.8171,-3.818,-3.8007,-3.8533,-3.8947,-3.9371,-3.9371,-4.0085,-4.0738,-4.0509,-4.0944,-4.1443,-4.1871,-4.2442,-4.2865,-3.1324,-3.0244,-3.0693,-3.0898,0.0,-3.0166,-3.0621,-3.164,-3.0716,-3.0307,-3.0317,-3.0317,-3.0307,-3.0317,-3.0307,-3.0317,-3.0317,-3.0317,-3.0669,-3.1276,-3.0618,-3.103,-3.228,-3.1633,-3.2039,-3.333,-3.2834,-3.2941,-3.3541,-3.2839,-3.2458,-3.2504,-3.2458,-3.2659,-3.304,-3.4167,-3.5596,-3.732,-3.7307,-3.7149,-3.6915,-3.7324,-3.7151,-3.6427,-3.6839,0.0,0.0,0.0,0.0,0.0,0.0,0.0,0.0,0.0,0.0,-3.2834,-3.2193,-3.161,-3.1016,-3.0712,-3.0194,-2.9444,-2.9102,-2.9172,-2.9762,-3.0979,-3.1914,-3.2414,-3.2825,-3.3124,-3.3081,-3.2568,-3.2196,-3.214,-3.214,-3.2152,-3.2227,-3.2698,-3.3081,-3.3111,-3.3543,-3.367,-3.3197,-3.394,-3.4444,-3.4024,-3.4332,-3.487,-3.5426,-3.6344,-3.7282,-3.8004,-3.7783,-3.721,-3.6615,-3.622,-3.6039,-3.6117,-3.6399,-3.6799,-3.716,-3.7219,-3.7308,-3.769,-3.8121,-3.8442,-3.8854,-3.9236,-3.9636,-4.0003,-4.0294,-4.0594,-4.0938,-4.1639,-4.2342,-3.0615,-3.0244,-3.0693,-3.0898,-3.085,-3.0312,-2.9805,-2.9352,-2.8603,0.0,0.0,-2.8301,-2.8301,-2.8301,-2.8301,-2.8301,-2.8301,-2.8301,-2.89,-2.9869,-2.8794,-2.946,-3.1531,-3.0473,-3.0627,-3.1783,-3.1418,-3.1299,-3.1371,-3.0496,-3.0059,-3.0059,-3.0059,-3.057,-3.1639,-3.3071,-3.3757,-3.3794,-3.4736,-3.489,-3.4317,-3.5513,-3.5631,-3.4457,-3.5389,-3.5596,-3.5035,-3.5008,-3.5008,-3.5008,-3.5008,-3.4627,-3.3779,-3.2769,-3.1819,-3.0944,-2.9943,-2.9228,-2.8779,-2.8532,-2.813,-2.7401,-2.7805,-2.8261,-2.8667,-3.0074,-3.0899,-3.0855,-3.1833,-3.2426,-3.2438,-3.1545,-3.0855,-3.0911,-3.0899,-3.0855,-3.0956,-3.2008,-3.2698,-3.2785,-3.2982,-3.3124,-3.3124,-3.3167,-3.3124,-3.3124,-3.324,-3.3398,-3.4345,-3.5467,-3.6286,-3.6408,-3.6483,-3.6571,-3.6134,-3.5585,-3.5309,-3.5522,-3.5554,-3.5718,-3.6212,-3.6415,-3.6692,-3.7145,-3.7456,-3.7819,-3.837,-3.8701,-3.9113,-3.9756,-4.002,-4.0113,-4.0171,-4.0838,-4.1621,-3.0625,-3.0234,-3.0703,-3.0898,-3.083,-3.0066,-2.9209,-2.8476,-2.835,-2.8301,-2.8301,-2.8301,-2.8301,-2.8301,-2.8301,-2.8301,-2.8301,-2.8301,-2.8398,-2.8548,-2.8398,-2.8495,-2.8847,-2.8644,-2.911,-2.9973,-2.9497,-2.9651,-3.0278,-2.9788,-2.9508,-2.9473,-2.9508,-2.9611,-2.9794,-3.0034,-3.016,-3.0182,-3.2763,-3.3571,-3.2515,-3.2711,-3.197,-3.0364,-3.0893,-3.0904,-3.036,-3.0427,-3.0348,-3.0337,-3.0348,-3.027,-3.0146,-3.0011,-2.9795,-2.9681,-2.9498,-2.9373,-2.926,-2.8315,-2.7228,-2.6114,-2.6078,-2.6975,-2.9077,-2.9499,-2.9681,-2.9681,-2.9909,-2.992,-2.9909,-2.9772,-2.9636,-2.967,-2.9636,-2.9636,-2.967,-3.0721,-3.15,-3.15,-3.2469,-3.3081,-3.2982,-3.3081,-3.3124,-3.3124,-3.3124,-3.321,-3.3641,-3.4993,-3.565,-3.502,-3.4771,-3.4679,-3.454,-3.4312,-3.462,-3.5392,-3.5487,-3.5582,-3.5701,-3.5765,-3.5814,-3.5846,-3.6415,-3.6828,-3.7054,-3.8044,-3.8701,-3.9059,-3.9489,-3.9927,-3.9969,-4.0262,-4.0594,-3.0762,-3.0605,-3.0801,-3.0898,-3.082,-2.9951,-2.9346,-2.8945,-2.8486,-2.8301,-2.8301,-2.8301,-2.8301,-2.8301,-2.8301,-2.8301,-2.8301,-2.8301,-2.8301,-2.8301,-2.8301,-2.8301,-2.8271,-2.8066,-2.8199,-2.8521,-2.7854,-2.7707,-2.8046,-2.7666,-2.7389,-2.7437,-2.8085,-2.8448,-2.8448,-2.9085,-2.9396,-2.9418,-3.1053,-3.1513,-3.0686,-3.1217,-3.0846,-2.9441,-2.9935,-2.9958,-2.9429,-2.9396,-2.9396,-2.9396,-2.9396,-2.9396,-2.9396,-2.8762,-2.8412,-2.8402,-2.7757,-2.7389,-2.7389,-2.6887,-2.6342,-2.5732,-2.5684,-2.6149,-2.7295,-2.8038,-2.8412,-2.8448,-2.9004,-2.9396,-2.935,-2.8819,-2.8412,-2.8448,-2.8412,-2.8402,-2.8541,-2.9498,-3.0226,-3.0316,-3.1323,-3.2052,-3.2052,-3.2655,-3.3124,-3.3124,-3.3124,-3.3081,-3.3081,-3.3856,-3.4442,-3.4097,-3.4219,-3.4168,-3.3796,-3.4204,-3.4553,-3.4716,-3.5477,-3.5768,-3.5609,-3.5489,-3.5489,-3.5504,-3.5814,-3.6149,-3.6461,-3.7128,-3.7729,-3.8302,-3.8541,-3.8941,-3.9305,-3.9756,-4.0286,-3.0898,-3.0898,-3.0898,-3.083,-3.0664,-2.9902,-2.9521,-2.9355,-2.8613,-2.8301,-2.8301,-2.8301,-2.8301,-2.8301,-2.8301,-2.8301,-2.8301,-2.8301,-2.8301,-2.8301,-2.8301,-2.8301,-2.8252,-2.7871,-2.7617,-2.7441,-2.6748,-2.6338,-2.6211,-2.5898,-2.5684,-2.5781,-2.6668,-2.7173,-2.7163,-2.8075,-2.8577,-2.8598,-2.8994,-2.9135,-2.9037,-2.9828,-2.9708,-2.8686,-2.8936,-2.9005,-2.8609,-2.8588,-2.8588,-2.8588,-2.8588,-2.8577,-2.8541,-2.7673,-2.7183,-2.7088,-2.6245,-2.5684,-2.5684,-2.5684,-2.5684,-2.5684,-2.5684,-2.5684,-2.5781,-2.6572,-2.7173,-2.7268,-2.7945,-2.8484,-2.8355,-2.772,-2.7173,-2.7173,-2.7173,-2.7173,-2.7268,-2.8262,-2.8993,-2.9131,-3.0045,-3.081,-3.0989,-3.1645,-3.2108,-3.2108,-3.2469,-3.2667,-3.2655,-3.2853,-3.3238,-3.3457,-3.378,-3.3695,-3.3353,-3.3845,-3.4292,-3.4123,-3.5239,-3.5677,-3.5553,-3.5489,-3.5489,-3.5504,-3.5504,-3.5718,-3.6212,-3.6554,-3.6904,-3.744,-3.7777,-3.8121,-3.8843,-3.9385,-4.0095,-3.0898,-3.0898,-3.0898,-3.0644,-3.0264,-2.9785,-2.9375,-2.8975,-2.8486,-2.8301,-2.8301,-2.8301,-2.8301,-2.8301,-2.8301,-2.8301,-2.8301,-2.8301,-2.8301,-2.8301,-2.8301,-2.8291,-2.8232,-2.7842,-2.7451,-2.706,-2.6582,-2.6162,-2.5801,-2.5713,-2.5684,-2.5684,-2.583,-2.5927,-2.5917,-2.6052,-2.611,-2.6052,-2.6102,-2.6661,-2.7694,-2.7862,-2.7303,-2.6062,-2.6092,-2.6102,-2.6197,-2.6062,-2.6062,-2.6062,-2.611,-2.6062,-2.611,-2.5965,-2.5868,-2.5917,-2.5781,-2.5684,-2.5684,-2.5684,-2.5684,-2.5684,-2.5684,-2.5684,-2.5635,-2.5781,-2.5868,-2.5917,-2.6014,-2.6245,-2.6062,-2.6014,-2.6014,-2.6062,-2.6014,-2.5878,-2.61,-2.6982,-2.7778,-2.7767,-2.8819,-2.959,-2.959,-2.9863,-2.9897,-3.0135,-3.0911,-3.1412,-3.1456,-3.2283,-3.2884,-3.2965,-3.2802,-3.2682,-3.2817,-3.2894,-3.3571,-3.4484,-3.4907,-3.5223,-3.5444,-3.5493,-3.5519,-3.5651,-3.5504,-3.5602,-3.575,-3.6071,-3.6554,-3.6707,-3.7219,-3.7978,-3.8663,-3.9005,-3.9501,-3.0898,-3.0898,-3.0898,-3.0781,-3.0557,-3.0137,-2.9697,-2.9277,-2.8848,-2.8525,-2.831,-2.8301,-2.8301,-2.8301,-2.8301,-2.8301,-2.8301,-2.8301,-2.8301,-2.8301,-2.8291,-2.8164,-2.7891,-2.748,-2.706,-2.6641,-2.6201,-2.5908,-2.5713,-2.5684,-2.5684,-2.5684,-2.5684,-2.5684,-2.5684,-2.5684,-2.5684,-2.5684,-2.5684,-2.5965,-2.6438,-2.6476,-2.6245,-2.5781,-2.5684,-2.5684,-2.5684,-2.5684,-2.5684,-2.5684,-2.5684,-2.5684,-2.5684,-2.5684,-2.5684,-2.5684,-2.5684,-2.5684,-2.5684,-2.5684,-2.5684,-2.5684,-2.5684,-2.5382,-2.4658,-2.5226,-2.543,-2.4766,-2.5226,-2.5684,-2.5684,-2.5684,-2.5684,-2.5684,-2.5684,-2.5684,-2.5732,-2.6159,-2.6476,-2.6562,-2.7542,-2.8319,-2.8448,-2.8958,-2.9361,-2.9407,-2.9897,-3.0135,-3.0226,-3.119,-3.1865,-3.2028,-3.2346,-3.2617,-3.2595,-3.3023,-3.3447,-3.3778,-3.4524,-3.524,-3.5505,-3.5317,-3.5292,-3.5892,-3.5756,-3.5579,-3.5522,-3.5668,-3.5975,-3.6133,-3.6538,-3.7203,-3.7496,-3.827,-3.909,-3.0898,-3.0898,-3.0898,-3.0898,-3.085,-3.0391,-2.9961,-2.9541,-2.9101,-2.8682,-2.831,-2.8301,-2.8301,-2.8301,-2.8301,-2.8301,-2.8301,-2.8301,-2.8301,-2.8301,-2.8301,-2.8119,-2.7646,-2.7217,-2.6797,-2.6377,-2.5957,-2.5693,-2.5684,-2.5684,-2.5684,-2.5684,-2.5684,-2.5684,-2.5684,-2.5684,-2.5684,-2.5684,-2.5684,-2.5684,-2.5732,-2.5684,-2.5684,-2.5684,-2.5684,-2.5684,-2.5684,-2.5684,-2.5684,-2.5684,-2.5684,-2.5684,-2.5684,-2.5684,-2.5684,-2.5635,-2.5333,-2.5167,-2.5177,-2.4815,-2.4609,-2.4609,-2.4609,-2.4205,-2.3543,-2.4048,-2.4156,-2.3384,-2.4048,-2.4707,-2.5635,-2.5684,-2.5684,-2.5684,-2.5684,-2.5684,-2.5684,-2.5684,-2.5732,-2.5771,-2.6572,-2.7088,-2.7163,-2.7767,-2.8215,-2.8215,-2.8588,-2.8912,-2.9039,-2.9909,-3.0721,-3.0721,-3.15,-3.2123,-3.2389,-3.3002,-3.3281,-3.3476,-3.4161,-3.4832,-3.543,-3.5117,-3.5057,-3.5619,-3.5685,-3.5666,-3.5534,-3.5537,-3.5552,-3.5619,-3.5943,-3.6446,-3.6783,-3.7642,-3.8185,-3.0898,-3.0898,-3.0898,-3.0898,-3.0859,-3.041,-2.998,-2.958,-2.9131,-2.8691,-2.835,-2.8301,-2.8301,-2.8301,-2.8301,-2.8301,-2.8301,-2.8301,-2.8301,-2.8301,-2.8301,-2.8076,-2.7656,-2.7217,-2.6797,-2.6377,-2.5947,-2.5684,-2.5684,-2.5684,-2.5684,-2.5684,-2.5684,-2.5684,-2.5684,-2.5684,-2.5684,-2.5684,-2.5684,-2.5684,-2.5684,-2.5684,-2.5586,-2.5577,-2.5684,-2.5684,-2.5684,-2.5684,-2.5684,-2.5684,-2.5586,-2.5635,-2.5635,-2.5586,-2.5528,-2.543,-2.4452,-2.3791,-2.3642,-2.2776,-2.2106,-2.2005,-2.2206,-2.1904,-2.1853,-2.2106,-2.2106,-2.1794,-2.2005,-2.3076,-2.5177,-2.5479,-2.5577,-2.5684,-2.5684,-2.5684,-2.5684,-2.5684,-2.5684,-2.5684,-2.5878,-2.6014,-2.5868,-2.583,-2.61,-2.6332,-2.6982,-2.7673,-2.7814,-2.868,-2.9361,-2.9498,-2.9818,-3.0395,-3.242,-3.2825,-3.3093,-3.3431,-3.3617,-3.4033,-3.4547,-3.4992,-3.5124,-3.5449,-3.5879,-3.5956,-3.563,-3.5519,-3.5549,-3.5582,-3.5537,-3.5863,-3.6259,-3.6523,-3.7068,-3.0898,-3.0898,-3.0898,-3.0898,-3.0879,-3.0713,-3.0391,-2.9941,-2.9512,-2.9101,-2.8691,-2.8408,-2.8301,-2.8301,-2.8301,-2.8301,-2.8291,-2.8301,-2.8301,-2.8301,-2.8301,-2.8066,-2.7699,-2.7217,-2.6797,-2.6377,-2.5957,-2.5684,-2.5684,-2.5684,-2.5684,-2.5684,-2.5684,-2.5684,-2.5684,-2.5684,-2.5684,-2.5684,-2.5684,-2.5684,-2.5528,-2.4864,-2.4402,-2.4452,-2.5274,-2.5684,-2.5684,-2.5684,-2.5323,-2.4461,-2.4402,-2.4048,-2.3235,-2.3126,-2.3126,-2.3076,-2.2667,-2.2416,-2.2357,-2.2005,-2.1693,-2.1693,-2.1693,-2.1194,-2.0735,-2.1143,-2.1347,-2.0743,-2.1245,-2.2567,-2.389,-2.4402,-2.4756,-2.5528,-2.5684,-2.5684,-2.5684,-2.5684,-2.5684,-2.5684,-2.5684,-2.5684,-2.5684,-2.5684,-2.5684,-2.5732,-2.611,-2.638,-2.6572,-2.7447,-2.8226,-2.8412,-2.8912,-2.9681,-3.0361,-3.1456,-3.2085,-3.2928,-3.3405,-3.3895,-3.438,-3.4386,-3.4476,-3.554,-3.6085,-3.6429,-3.6156,-3.5922,-3.5896,-3.5639,-3.5594,-3.5707,-3.5846,-3.6257,-3.6631,-3.0898,-3.0898,-3.0898,-3.0898,-3.0898,-3.0898,-3.0325,-2.946,-2.8984,-2.8341,-2.753,-2.7519,-2.7618,-2.7609,-2.7565,-2.7565,-2.7663,-2.8067,-2.8301,-2.8301,-2.8301,-2.8076,-2.7699,-2.7217,-2.6534,-2.5789,-2.5269,-2.5226,-2.5684,-2.5684,-2.5684,-2.5684,-2.5684,-2.5684,-2.5684,-2.5684,-2.5538,-2.5177,-2.5069,-2.4864,-2.4362,-2.3534,-2.3076,-2.3176,-2.3939,-2.4402,-2.4402,-2.4402,-2.4048,-2.3235,-2.3076,-2.2667,-2.1845,-2.1693,-2.1693,-2.1693,-2.1237,-2.0998,-2.0939,-2.0633,-2.0326,-2.0377,-2.0326,-1.9922,-1.9117,-1.9826,-1.9767,-1.942,-1.9723,-2.0888,-2.2005,-2.2366,-2.3285,-2.5118,-2.5684,-2.5684,-2.5684,-2.5684,-2.5684,-2.5684,-2.5684,-2.5684,-2.5684,-2.5684,-2.5684,-2.5684,-2.5684,-2.5684,-2.583,-2.6342,-2.6993,-2.703,-2.7531,-2.8179,-2.8819,-2.9544,-3.0822,-3.1736,-3.2986,-3.3505,-3.3943,-3.3858,-3.4259,-3.5443,-3.6194,-3.664,-3.6698,-3.6428,-3.6119,-3.5791,-3.5863,-3.6004,-3.6064,-3.6137,-3.6455,-3.0898,-3.0889,-3.0889,-3.083,-3.0889,-3.0704,-2.9676,-2.8159,-2.7598,-2.6517,-2.5269,-2.5675,-2.6045,-2.61,-2.61,-2.61,-2.6327,-2.7286,-2.7789,-2.7843,-2.8067,-2.781,-2.7328,-2.6753,-2.5684,-2.4265,-2.3863,-2.4353,-2.5284,-2.5274,-2.5274,-2.5479,-2.5274,-2.5177,-2.5528,-2.5226,-2.4824,-2.3949,-2.3692,-2.3126,-2.1904,-2.1752,-2.1702,-2.1643,-2.1693,-2.1651,-2.1693,-2.1853,-2.1954,-2.1744,-2.1702,-2.1702,-2.1397,-2.1338,-2.1499,-2.1135,-2.0282,-1.9679,-1.9472,-1.8558,-1.8042,-1.8042,-1.7838,-1.7996,-1.7943,-1.7943,-1.7943,-1.7884,-1.7943,-1.8401,-1.962,-1.9981,-2.1405,-2.4775,-2.5216,-2.5216,-2.5372,-2.5577,-2.5635,-2.5586,-2.5586,-2.5684,-2.5684,-2.5684,-2.5684,-2.5684,-2.5684,-2.5684,-2.5684,-2.5878,-2.5781,-2.582,-2.6245,-2.6839,-2.7258,-2.7767,-2.9177,-3.053,-3.1984,-3.2988,-3.3428,-3.3579,-3.3938,-3.4966,-3.6049,-3.649,-3.6368,-3.6127,-3.6003,-3.581,-3.6043,-3.6257,-3.6415,-3.6438,-3.6298,-3.0898,-3.0772,-2.9648,-2.9903,-3.0645,-2.9717,-2.8769,-2.8165,-2.7543,-2.6306,-2.4927,-2.4592,-2.4544,-2.4497,-2.4488,-2.4544,-2.4544,-2.4986,-2.5215,-2.5388,-2.6273,-2.6155,-2.5153,-2.4376,-2.3523,-2.2613,-2.2375,-2.2517,-2.2918,-2.3018,-2.2968,-2.2968,-2.3026,-2.2926,-2.3076,-2.2918,-2.2667,-2.2408,-2.2307,-2.2055,-2.16,-2.0743,-2.0282,-2.0179,-1.942,-1.885,-1.8961,-2.0684,-2.1194,-2.0341,-2.0238,-1.9826,-1.9109,-1.8857,-1.8909,-1.8857,-1.8499,-1.8244,-1.8199,-1.7898,-1.7589,-1.7589,-1.7589,-1.7589,-1.7589,-1.7589,-1.7589,-1.7589,-1.7635,-1.8146,-1.9265,-1.9576,-2.0621,-2.2717,-2.2918,-2.3085,-2.332,-2.3868,-2.4254,-2.4452,-2.5118,-2.5635,-2.5693,-2.5703,-2.5713,-2.5684,-2.5684,-2.5684,-2.5684,-2.5684,-2.5684,-2.5684,-2.5781,-2.5781,-2.6342,-2.6982,-2.8038,-2.9498,-3.0956,-3.2239,-3.2772,-3.3386,-3.3769,-3.4426,-3.554,-3.6084,-3.5949,-3.5702,-3.5486,-3.5734,-3.5882,-3.6236,-3.6697,-3.672,-3.6554,-3.0518,-2.9835,-2.8852,-2.8614,-2.8979,-2.7931,-2.7142,-2.655,-2.5881,-2.4686,-2.3306,-2.3065,-2.2983,-2.2983,-2.2983,-2.2983,-2.2983,-2.2983,-2.2645,-2.2597,-2.4378,-2.4654,-2.3667,-2.2491,-2.2031,-2.1726,-2.1208,-2.1194,-2.1702,-2.1693,-2.1693,-2.1693,-2.1693,-2.1744,-2.1693,-2.1693,-2.155,-2.1041,-2.0947,-2.0684,-2.0128,-1.9317,-1.8864,-1.876,-1.8048,-1.7635,-1.7733,-1.931,-1.9767,-1.9013,-1.8864,-1.8401,-1.7687,-1.7635,-1.7589,-1.7589,-1.7641,-1.7635,-1.7589,-1.7641,-1.7589,-1.7589,-1.7589,-1.7589,-1.7589,-1.7589,-1.7589,-1.7589,-1.7695,-1.8114,-1.8794,-1.912,-1.9625,-2.0406,-2.1348,-2.1691,-2.1961,-2.2579,-2.3494,-2.4029,-2.4764,-2.5326,-2.5819,-2.5977,-2.584,-2.5752,-2.5684,-2.5684,-2.5684,-2.5684,-2.5693,-2.5693,-2.5732,-2.5732,-2.5781,-2.6342,-2.6993,-2.8402,-2.9909,-3.1134,-3.204,-3.2871,-3.3437,-3.403,-3.4982,-3.5438,-3.5398,-3.4901,-3.464,-3.5141,-3.5674,-3.5927,-3.6243,-3.6787,-3.6828,-2.9648,-2.8358,-2.811,-2.7254,-2.6288,-2.5976,-2.5138,-2.3832,-2.3165,-2.2118,-2.0868,-2.1198,-2.1479,-2.1479,-2.1479,-2.1479,-2.1472,-2.1479,-2.0923,-2.0709,-2.2096,-2.3191,-2.2752,-2.1321,-2.091,-2.1189,-2.0179,-2.0174,-2.0939,-2.1041,-2.144,-2.1143,-2.1033,-2.1338,-2.1033,-2.1389,-2.059,-1.9627,-1.9472,-1.8909,-1.7943,-1.774,-1.7687,-1.774,-1.7687,-1.7589,-1.7687,-1.7891,-1.7838,-1.7635,-1.7793,-1.774,-1.7641,-1.7589,-1.7589,-1.7589,-1.7589,-1.7589,-1.7589,-1.7589,-1.7589,-1.7589,-1.7589,-1.7589,-1.7589,-1.7589,-1.7609,-1.7662,-1.7862,-1.8023,-1.8185,-1.8407,-1.8672,-1.8775,-2.0151,-2.1223,-2.1779,-2.188,-2.2553,-2.3748,-2.4316,-2.4679,-2.5846,-2.6097,-2.5992,-2.6035,-2.5888,-2.5927,-2.5898,-2.5937,-2.5781,-2.5762,-2.5791,-2.5684,-2.5732,-2.582,-2.6476,-2.7173,-2.8669,-2.9909,-3.1134,-3.2052,-3.3056,-3.3658,-3.4178,-3.4665,-3.4682,-3.4161,-3.4286,-3.4959,-3.5311,-3.5483,-3.5911,-3.6519,-3.6975,-2.7022,-2.653,-2.533,-2.5322,-2.5741,-2.4778,-2.3993,-2.3553,-2.2939,-2.1646,-2.0455,-2.0017,-2.0097,-1.9982,-2.0033,-1.9982,-2.009,-2.0033,-1.9866,-1.9591,-2.0033,-2.0395,-2.0231,-1.971,-1.9285,-1.9148,-1.8833,-1.8533,-1.867,-1.8909,-1.8805,-1.8655,-1.8909,-1.8805,-1.8708,-1.8857,-1.8551,-1.8192,-1.8146,-1.8048,-1.774,-1.7589,-1.7589,-1.7589,-1.7589,-1.7589,-1.7589,-1.7589,-1.7589,-1.7589,-1.7589,-1.7589,-1.7589,-1.7589,-1.7589,-1.7589,-1.7589,-1.7589,-1.7589,-1.7589,-1.7589,-1.7589,-1.7589,-1.7589,-1.7589,-1.7589,-1.7682,-1.7842,-1.7955,-1.8095,-1.8323,-1.8457,-1.851,-1.8532,-1.9254,-1.9603,-1.9776,-2.0332,-2.1163,-2.164,-2.2507,-2.3617,-2.472,-2.5236,-2.5559,-2.6227,-2.6431,-2.6541,-2.6374,-2.626,-2.6103,-2.6055,-2.6025,-2.584,-2.5684,-2.5684,-2.5917,-2.6197,-2.7305,-2.8598,-2.9818,-3.1,-3.2096,-3.3074,-3.3513,-3.3927,-3.3771,-3.3403,-3.4053,-3.4633,-3.4754,-3.486,-3.5666,-3.635,-3.6797,-2.5619,-2.4893,-2.3993,-2.3752,-2.3854,-2.2952,-2.2529,-2.24,-2.1879,-2.112,-2.0221,-1.9619,-1.9424,-1.9424,-1.9424,-1.9424,-1.9424,-1.9424,-1.9424,-1.9424,-1.9482,-1.9387,-1.9176,-1.9005,-1.8677,-1.8263,-1.8055,-1.7869,-1.7734,-1.7589,-1.7589,-1.7687,-1.7589,-1.7589,-1.774,-1.7589,-1.7589,-1.7635,-1.7589,-1.7589,-1.7589,-1.7589,-1.7589,-1.7589,-1.7589,-1.7589,-1.7589,-1.7589,-1.7589,-1.7589,-1.7589,-1.7589,-1.7589,-1.7589,-1.7589,-1.7589,-1.7589,-1.7589,-1.7589,-1.7589,-1.7589,-1.7589,-1.7589,-1.7662,-1.7749,-1.7782,-1.7896,-1.817,-1.8323,-1.849,-1.8644,-1.8778,-1.8851,-1.8941,-1.8858,-1.8811,-1.8691,-1.9369,-2.0188,-2.0833,-2.1549,-2.2479,-2.3943,-2.4103,-2.4764,-2.5594,-2.5862,-2.6302,-2.6701,-2.653,-2.6366,-2.6168,-2.6083,-2.5879,-2.5723,-2.5713,-2.5684,-2.5917,-2.6245,-2.7494,-2.8727,-3.0,-3.1178,-3.2183,-3.2711,-3.3124,-3.3124,-3.3124,-3.339,-3.3808,-3.3982,-3.4415,-3.5116,-3.5574,-3.6107,-2.4655,-2.3325,-2.3325,-2.2466,-2.1348,-2.1102,-2.1292,-2.1058,-2.0604,-2.0288,-2.0107,-1.9619,-1.9437,-1.9424,-1.9424,-1.9424,-1.9424,-1.9424,-1.9424,-1.9424,-1.9424,-1.9397,-1.9305,-1.9118,-1.8811,-1.8464,-1.8203,-1.7916,-1.7675,-1.7589,-1.7589,-1.7589,-1.7589,-1.7589,-1.7589,-1.7589,-1.7589,-1.7589,-1.7589,-1.7589,-1.7589,-1.7589,-1.7589,-1.7589,-1.7589,-1.7589,-1.7589,-1.7589,-1.7589,-1.7589,-1.7589,-1.7589,-1.7589,-1.7589,-1.7589,-1.7589,-1.7589,-1.7589,-1.7602,-1.7629,-1.7655,-1.7675,-1.7702,-1.7782,-1.7969,-1.8035,-1.8155,-1.8504,-1.8778,-1.8871,-1.8991,-1.9199,-1.9323,-1.9316,-1.9305,-1.9219,-1.9052,-1.8965,-1.9621,-2.1015,-2.107,-2.162,-2.2521,-2.31,-2.3453,-2.4756,-2.4996,-2.5279,-2.5829,-2.5961,-2.5969,-2.6092,-2.5948,-2.5898,-2.5781,-2.5742,-2.5703,-2.5781,-2.5771,-2.661,-2.7861,-2.9131,-3.035,-3.1311,-3.1965,-3.2612,-3.3124,-3.3124,-3.3167,-3.324,-3.3513,-3.3882,-3.4275,-3.4415,-3.4815,-2.1908,-2.167,-2.1607,-2.1411,-2.1109,-2.1102,-2.1102,-2.1049,-2.042,-2.0167,-2.0094,-1.9613,-1.9437,-1.9424,-1.9424,-1.9424,-1.9424,-1.9424,-1.9424,-1.9424,-1.9424,-1.9424,-1.941,-1.9252,-1.8971,-1.8584,-1.843,-1.8096,-1.7716,-1.7589,-1.7589,-1.7589,-1.7589,-1.7589,-1.7589,-1.7589,-1.7589,-1.7589,-1.7589,-1.7589,-1.7589,-1.7589,-1.7589,-1.7589,-1.7589,-1.7589,-1.7589,-1.7589,-1.7589,-1.7589,-1.7589,-1.7589,-1.7589,-1.7589,-1.7602,-1.7622,-1.7609,-1.7602,-1.7635,-1.7822,-1.7889,-1.7963,-1.8116,-1.8323,-1.837,-1.8397,-1.8537,-1.8764,-1.8898,-1.9038,-1.9212,-1.9312,-1.9417,-1.9424,-1.9424,-1.9397,-1.9285,-1.9259,-1.9516,-1.9761,-1.9977,-2.0323,-2.17,-2.1895,-2.2513,-2.3693,-2.4052,-2.4179,-2.4652,-2.5218,-2.5512,-2.5631,-2.5771,-2.5733,-2.6132,-2.6015,-2.5801,-2.5723,-2.5684,-2.5781,-2.702,-2.7861,-2.8947,-3.0135,-3.1311,-3.1965,-3.2612,-3.3124,-3.3167,-3.3124,-3.3124,-3.3398,-3.3641,-3.3586,-3.3742,-2.1102,-2.1102,-2.1102,-2.1102,-2.1102,-2.1102,-2.1036,-2.0842,-2.0434,-2.0093,-1.996,-1.9546,-1.943,-1.9424,-1.9424,-1.9424,-1.9424,-1.9424,-1.9424,-1.9424,-1.9417,-1.9285,-1.9165,-1.9132,-1.8911,-1.8517,-1.833,-1.8009,-1.7695,-1.7589,-1.7589,-1.7589,-1.7589,-1.7589,-1.7589,-1.7589,-1.7589,-1.7589,-1.7589,-1.7589,-1.7589,-1.7589,-1.7589,-1.7589,-1.7589,-1.7589,-1.7589,-1.7589,-1.7589,-1.7589,-1.7589,-1.7589,-1.7589,-1.7595,-1.7649,-1.7782,-1.7802,-1.7889,-1.8016,-1.815,-1.8257,-1.8257,-1.8417,-1.8551,-1.8651,-1.8691,-1.8838,-1.9045,-1.9145,-1.9212,-1.9403,-1.9424,-1.9424,-1.9424,-1.9424,-1.9424,-1.9424,-1.9424,-1.9424,-1.9424,-1.9468,-1.9795,-2.0307,-2.0702,-2.1358,-2.2367,-2.264,-2.2863,-2.3836,-2.4444,-2.488,-2.5136,-2.5365,-2.5729,-2.633,-2.6377,-2.6006,-2.5859,-2.5684,-2.5684,-2.6187,-2.6802,-2.7363,-2.8773,-3.0226,-3.1267,-3.1921,-3.2469,-3.2939,-3.3081,-3.3081,-3.3081,-3.3167,-3.3313,-3.3441,-2.1102,-2.1102,-2.1102,-2.1102,-2.1096,-2.1056,-2.0902,-2.0661,-2.0307,-2.0013,-1.978,-1.9492,-1.9424,-1.9424,-1.9424,-1.9424,-1.9424,-1.9417,-1.941,-1.9259,-1.9245,-1.9092,-1.8911,-1.8764,-1.8637,-1.841,-1.8149,-1.7836,-1.7662,-1.7589,-1.7589,-1.7589,-1.7589,-1.7589,-1.7589,-1.7589,-1.7589,-1.7589,-1.7589,-1.7589,-1.7589,-1.7589,-1.7589,-1.7589,-1.7589,-1.7589,-1.7589,-1.7589,-1.7609,-1.7649,-1.7655,-1.7682,-1.7709,-1.7682,-1.7796,-1.8029,-1.811,-1.8196,-1.835,-1.849,-1.8557,-1.8557,-1.8631,-1.8744,-1.8931,-1.8998,-1.9098,-1.9232,-1.939,-1.939,-1.9424,-1.9424,-1.9424,-1.9424,-1.9424,-1.9424,-1.9424,-1.9424,-1.9424,-1.9424,-1.9424,-1.9591,-1.9591,-1.9815,-2.0429,-2.0923,-2.1202,-2.1628,-2.2607,-2.3427,-2.3821,-2.4708,-2.5092,-2.5849,-2.6521,-2.6777,-2.6396,-2.6221,-2.5947,-2.5898,-2.5879,-2.627,-2.6988,-2.7799,-2.9039,-3.009,-3.0855,-3.1279,-3.1833,-3.2568,-3.2797,-3.2568,-3.2711,-3.3038,-3.321,-2.1102,-2.1102,-2.1102,-2.1102,-2.1069,-2.0855,-2.0728,-2.0588,-2.0107,-1.9853,-1.976,-1.9506,-1.9424,-1.9424,-1.9424,-1.9424,-1.9424,-1.9332,-1.9225,-1.9058,-1.9005,-1.8844,-1.8577,-1.8328,-1.8162,-1.8082,-1.7969,-1.7849,-1.7649,-1.7589,-1.7589,-1.7589,-1.7589,-1.7589,-1.7589,-1.7589,-1.7589,-1.7589,-1.7589,-1.7589,-1.7589,-1.7589,-1.7589,-1.7589,-1.7589,-1.7602,-1.7609,-1.7609,-1.7702,-1.7876,-1.7969,-1.8103,-1.821,-1.8103,-1.8163,-1.8337,-1.8417,-1.8477,-1.8591,-1.8738,-1.8824,-1.8905,-1.9025,-1.9223,-1.9316,-1.9272,-1.9285,-1.9377,-1.9424,-1.9424,-1.9424,-1.9424,-1.9424,-1.9424,-1.9424,-1.9424,-1.9424,-1.9424,-1.9424,-1.9424,-1.9424,-1.9424,-1.9424,-1.9424,-1.9815,-2.0148,-2.0256,-2.0314,-2.0723,-2.1711,-2.2511,-2.3638,-2.4832,-2.577,-2.6785,-2.691,-2.6855,-2.6758,-2.6592,-2.6455,-2.6406,-2.6318,-2.6783,-2.7452,-2.7946,-2.868,-2.9407,-3.0,-3.0643,-3.1323,-3.1601,-3.1877,-3.2339,-3.2754,-3.3081,-2.1102,-2.1102,-2.1102,-2.1102,-2.1049,-2.0802,-2.0581,-2.0388,-1.9993,-1.9713,-1.9573,-1.9484,-1.9424,-1.9424,-1.9424,-1.9424,-1.9397,-1.9185,-1.9065,-1.8918,-1.8771,-1.8544,-1.829,-1.8035,-1.7896,-1.7849,-1.7796,-1.7756,-1.7595,-1.7589,-1.7589,-1.7589,-1.7589,-1.7589,-1.7589,-1.7589,-1.7595,-1.7595,-1.7595,-1.7602,-1.7595,-1.7589,-1.7589,-1.7589,-1.7609,-1.7662,-1.7809,-1.7822,-1.7976,-1.821,-1.8277,-1.8444,-1.8571,-1.8611,-1.8502,-1.8684,-1.8718,-1.8798,-1.8911,-1.9092,-1.9145,-1.9165,-1.9357,-1.941,-1.9424,-1.9417,-1.9424,-1.9424,-1.9424,-1.9424,-1.9424,-1.9424,-1.9424,-1.9424,-1.9424,-1.9424,-1.9424,-1.9424,-1.9424,-1.9424,-1.9424,-1.9424,-1.9424,-1.9424,-1.9424,-1.9424,-1.9424,-1.9424,-1.9424,-2.0206,-2.1316,-2.2807,-2.4141,-2.5478,-2.6465,-2.6825,-2.7192,-2.7217,-2.7129,-2.7002,-2.6855,-2.6748,-2.6634,-2.6842,-2.73,-2.7862,-2.8319,-2.9085,-2.9636,-3.0181,-3.0721,-3.1267,-3.1965,-3.2469,-3.2754,-2.1102,-2.1102,-2.1102,-2.1102,-2.1049,-2.0728,-2.0454,-2.0133,-1.986,-1.9579,-1.945,-1.9424,-1.9424,-1.9424,-1.9424,-1.9424,-1.9397,-1.9072,-1.8911,-1.8758,-1.8524,-1.8243,-1.8023,-1.7929,-1.7829,-1.7669,-1.7629,-1.7589,-1.7589,-1.7589,-1.7589,-1.7589,-1.7589,-1.7589,-1.7589,-1.7682,-1.7649,-1.7682,-1.7742,-1.7749,-1.7689,-1.7615,-1.7589,-1.7609,-1.7642,-1.7802,-1.7929,-1.8096,-1.8283,-1.8484,-1.8597,-1.8711,-1.8951,-1.9011,-1.9011,-1.9018,-1.9018,-1.9158,-1.9272,-1.9397,-1.9377,-1.9377,-1.941,-1.9424,-1.9424,-1.9424,-1.9424,-1.9424,-1.9424,-1.9424,-1.9424,-1.9424,-1.9424,-1.9424,-1.9424,-1.9424,-1.9424,-1.9424,-1.9424,-1.9424,-1.9424,-1.9424,-1.9424,-1.9424,-1.9424,-1.9424,-1.9424,-1.9424,-1.9424,-1.9424,-2.0429,-2.1983,-2.3461,-2.4913,-2.5963,-2.6636,-2.7108,-2.7565,-2.7559,-2.7461,-2.7305,-2.7148,-2.7007,-2.6893,-2.7022,-2.7536,-2.7872,-2.7966,-2.8272,-2.8855,-2.9806,-3.0496,-3.0866,-3.1601,-3.2196,-2.1102,-2.1102,-2.1102,-2.1102,-2.1015,-2.0528,-2.0281,-2.0154,-1.9659,-1.947,-1.9424,-1.9424,-1.9424,-1.9424,-1.9424,-1.9424,-1.933,-1.9025,-1.8778,-1.8577,-1.8257,-1.7949,-1.7695,-1.7642,-1.7669,-1.7589,-1.7589,-1.7589,-1.7589,-1.7589,-1.7589,-1.7589,-1.7589,-1.7602,-1.7669,-1.7829,-1.7976,-1.8009,-1.8223,-1.823,-1.7942,-1.7762,-1.7669,-1.7702,-1.7849,-1.7989,-1.8109,-1.8337,-1.8584,-1.8824,-1.8871,-1.9018,-1.9252,-1.9319,-1.9319,-1.9319,-1.9319,-1.9332,-1.9417,-1.9424,-1.9424,-1.9424,-1.9424,-1.9424,-1.9424,-1.9424,-1.9424,-1.9424,-1.9424,-1.9424,-1.9424,-1.9424,-1.9424,-1.9424,-1.9424,-1.9424,-1.9424,-1.9424,-1.9424,-1.9424,-1.9424,-1.9424,-1.9424,-1.9424,-1.9424,-1.9424,-1.9424,-1.9424,-1.9424,-1.9424,-1.9533,-2.1038,-2.2363,-2.3842,-2.502,-2.573,-2.6735,-2.7497,-2.7857,-2.7809,-2.7725,-2.7539,-2.7334,-2.7233,-2.7321,-2.7043,-2.7028,-2.7066,-2.7037,-2.7688,-2.8806,-2.9272,-2.9464,-3.0384,-3.1571,-2.1102,-2.1102,-2.1102,-2.1009,-2.0815,-2.0346,-2.014,-1.992,-1.9553,-1.9424,-1.9424,-1.9424,-1.9424,-1.9424,-1.9424,-1.9424,-1.9265,-1.8911,-1.8631,-1.8404,-1.8056,-1.7729,-1.7629,-1.7589,-1.7589,-1.7589,-1.7589,-1.7589,-1.7589,-1.7536,-1.7589,-1.7595,-1.7609,-1.7702,-1.7776,-1.7922,-1.813,-1.8263,-1.8404,-1.8417,-1.8297,-1.8176,-1.809,-1.8096,-1.8223,-1.8357,-1.8524,-1.8644,-1.8885,-1.9112,-1.9172,-1.9219,-1.939,-1.9424,-1.9424,-1.9424,-1.9417,-1.9417,-1.9424,-1.9424,-1.9424,-1.9424,-1.9424,-1.9424,-1.9424,-1.9424,-1.9424,-1.9424,-1.9424,-1.9424,-1.9424,-1.9424,-1.9424,-1.9424,-1.9424,-1.9424,-1.9424,-1.9424,-1.9424,-1.9424,-1.9424,-1.9424,-1.9424,-1.9424,-1.9424,-1.9424,-1.9424,-1.9424,-1.9424,-1.9424,-1.9591,-2.004,-2.1309,-2.2622,-2.3661,-2.4633,-2.5837,-2.674,-2.7868,-2.7936,-2.8086,-2.793,-2.7715,-2.7559,-2.758,-2.7145,-2.6543,-2.6606,-2.6973,-2.7377,-2.784,-2.8326,-2.888,-2.9992,-3.117,-2.1102,-2.1102,-2.1102,-2.0942,-2.0655,-2.0354,-2.0074,-1.978,-1.9492,-1.9424,-1.9424,-1.9424,-1.9424,-1.9424,-1.9424,-1.9424,-1.9325,-1.8831,-1.8591,-1.833,-1.8003,-1.7709,-1.7615,-1.7589,-1.7589,-1.7582,-1.6988,-1.6882,-1.6796,-1.6734,-1.6637,-1.7576,-1.7736,-1.7889,-1.7988,-1.7721,-1.7599,-1.7911,-1.7847,-1.8101,-1.8466,-1.8497,-1.8464,-1.849,-1.8571,-1.8698,-1.8891,-1.9018,-1.9178,-1.9343,-1.9397,-1.9397,-1.9424,-1.9424,-1.9424,-1.9424,-1.9424,-1.9424,-1.9424,-1.9424,-1.9424,-1.9424,-1.9424,-1.9424,-1.9424,-1.9424,-1.9424,-1.9424,-1.9424,-1.9424,-1.9424,-1.9424,-1.9424,-1.9424,-1.9424,-1.9424,-1.9424,-1.943,-1.9424,-1.9424,-1.9424,-1.9424,-1.9424,-1.9424,-1.9424,-1.9424,-1.9424,-1.9424,-1.9424,-1.9424,-1.9533,-1.9758,-2.0199,-2.1422,-2.2476,-2.3582,-2.4812,-2.5818,-2.6943,-2.7492,-2.7381,-2.7854,-2.8057,-2.793,-2.774,-2.7676,-2.7344,-2.7178,-2.7053,-2.7231,-2.7522,-2.7873,-2.8541,-2.9644,-3.0596,-2.1102,-2.1102,-2.1102,-2.0922,-2.0635,-2.0354,-2.0067,-1.974,-1.9479,-1.943,-1.9424,-1.9424,-1.9424,-1.9424,-1.9424,-1.9424,-1.9403,-1.9032,-1.8771,-1.8484,-1.8115,-1.7883,-1.7742,-1.7649,-1.7503,-1.7206,-1.6452,-1.5855,-1.5374,-1.4783,-1.5837,-1.749,-1.7118,-1.7856,-1.7753,-1.6889,-1.6912,-1.7074,-1.6938,-1.7609,-1.8303,-1.8592,-1.8404,-1.8611,-1.8758,-1.8911,-1.8945,-1.9158,-1.935,-1.9424,-1.9424,-1.9424,-1.9424,-1.9424,-1.9424,-1.9424,-1.9424,-1.9424,-1.9424,-1.9424,-1.9424,-1.9424,-1.9424,-1.9424,-1.9424,-1.9424,-1.9424,-1.9424,-1.9424,-1.9424,-1.9424,-1.943,-1.9497,-1.9511,-1.9479,-1.9531,-1.9511,-1.943,-1.943,-1.9424,-1.9424,-1.9424,-1.9424,-1.9424,-1.9424,-1.9424,-1.9424,-1.9424,-1.9424,-1.9424,-1.9424,-1.9482,-1.9482,-2.0256,-2.1365,-2.242,-2.3255,-2.4258,-2.5325,-2.5882,-2.6145,-2.6851,-2.7722,-2.7927,-2.7685,-2.7956,-2.8096,-2.7715,-2.7373,-2.7119,-2.7265,-2.783,-2.8269,-2.913,-2.9934,-2.1102,-2.1089,-2.0922,-2.0668,-2.0394,-2.0281,-1.9967,-1.9559,-1.947,-1.9424,-1.9424,-1.9424,-1.9424,-1.9424,-1.9424,-1.9424,-1.9383,-1.9065,-1.8878,-1.8704,-1.845,-1.8156,-1.7969,-1.7562,-1.7349,-1.6342,-1.5547,-1.4877,-1.4199,-1.3442,-1.4198,-1.5283,-1.5429,-1.5536,-1.5453,-1.5732,-1.5962,-1.6311,-1.6113,-1.6471,-1.8577,-1.8109,-1.8027,-1.9052,-1.9092,-1.9192,-1.9219,-1.9299,-1.941,-1.9424,-1.9424,-1.9424,-1.9424,-1.9424,-1.9424,-1.9424,-1.9424,-1.9437,-1.9444,-1.9437,-1.9424,-1.9424,-1.9424,-1.9424,-1.9424,-1.9424,-1.9424,-1.9424,-1.9444,-1.947,-1.945,-1.9526,-1.9653,-1.9633,-1.9626,-1.9633,-1.9599,-1.9546,-1.9499,-1.9546,-1.9504,-1.9424,-1.9424,-1.9424,-1.9424,-1.9424,-1.9424,-1.9424,-1.9424,-1.9424,-1.9424,-1.9424,-1.9424,-1.9424,-2.0422,-2.1145,-2.1749,-2.2702,-2.3654,-2.4267,-2.482,-2.5982,-2.6752,-2.7159,-2.7672,-2.7912,-2.8038,-2.7926,-2.7793,-2.7637,-2.7695,-2.7966,-2.8388,-2.8756,-2.9392,-2.1056,-2.0962,-2.0762,-2.0508,-2.0241,-2.014,-1.9826,-1.9484,-1.943,-1.9424,-1.9424,-1.9424,-1.9424,-1.9424,-1.9424,-1.9424,-1.9383,-1.9172,-1.9032,-1.8871,-1.8684,-1.816,-1.7702,-1.7142,-1.6411,-1.5175,-1.4287,-1.3573,-1.2912,-1.2533,-1.2483,-1.257,-1.274,-1.315,-1.4341,-1.4025,-1.454,-1.495,-1.4891,-1.5133,-1.7384,-1.6956,-1.6533,-1.7775,-1.8137,-1.8493,-1.8668,-1.8933,-1.9417,-1.9424,-1.9424,-1.9424,-1.9424,-1.9424,-1.9424,-1.943,-1.9437,-1.9457,-1.9517,-1.9464,-1.9437,-1.9424,-1.9424,-1.9424,-1.943,-1.9437,-1.945,-1.9526,-1.9519,-1.9526,-1.9573,-1.9826,-1.992,-1.992,-1.9927,-1.9927,-1.99,-1.9853,-1.978,-1.9746,-1.9673,-1.9686,-1.97,-1.972,-1.9604,-1.9551,-1.943,-1.943,-1.9424,-1.9424,-1.9424,-1.9424,-1.9424,-1.9424,-1.9533,-2.0162,-2.078,-2.1031,-2.1983,-2.2766,-2.3543,-2.4654,-2.5818,-2.649,-2.7051,-2.7726,-2.7999,-2.8062,-2.8164,-2.8223,-2.8213,-2.8144,-2.8241,-2.863,-2.8953,-2.0929,-2.0695,-2.0655,-2.0474,-2.018,-1.9933,-1.9653,-1.9444,-1.9424,-1.9424,-1.9424,-1.9424,-1.9424,-1.9424,-1.9424,-1.9424,-1.9424,-1.9383,-1.9212,-1.9005,-1.8888,-1.7861,-1.6905,-1.6236,-1.5569,-1.3783,-1.2819,-1.2182,-1.154,-1.0845,-1.0329,-1.029,-1.0763,-1.1535,-1.4044,-1.2979,-1.2333,-1.2333,-1.2453,-1.3407,-1.4777,-1.5015,-1.496,-1.5671,-1.685,-1.7501,-1.7267,-1.8765,-1.9185,-1.8946,-1.9307,-1.9366,-1.9424,-1.9424,-1.9444,-1.9477,-1.9464,-1.9526,-1.9733,-1.9519,-1.9479,-1.9544,-1.9533,-1.9531,-1.9477,-1.9497,-1.9559,-1.9773,-1.98,-1.992,-2.0067,-2.0147,-2.0214,-2.0221,-2.0227,-2.0221,-2.0194,-2.008,-1.9993,-1.9947,-2.0087,-2.0194,-2.0187,-2.012,-1.9846,-1.9659,-1.9511,-1.9464,-1.9531,-1.9533,-1.9593,-1.9606,-1.9626,-1.9619,-1.9626,-1.9459,-1.9741,-1.9945,-2.0429,-2.1266,-2.2096,-2.3047,-2.4211,-2.5498,-2.6436,-2.6997,-2.7672,-2.8218,-2.8291,-2.8301,-2.8301,-2.8262,-2.8335,-2.8441,-2.8751,-2.0468,-2.0368,-2.0174,-2.004,-1.994,-1.9846,-1.9639,-1.9457,-1.9424,-1.9424,-1.9424,-1.9424,-1.9424,-1.9424,-1.9424,-1.9424,-1.9424,-1.9424,-1.9259,-1.9232,-1.9128,-1.8021,-1.6813,-1.5801,-1.476,-1.2765,-1.1548,-1.0895,-1.023,-0.9724,-0.9736,-0.9747,-0.9842,-1.035,-1.1016,-1.0838,-1.102,-1.1796,-1.1555,-1.1796,-1.4068,-1.3651,-1.3471,-1.4361,-1.5897,-1.625,-1.5666,-1.7636,-1.8525,-1.8104,-1.835,-1.901,-1.9133,-1.914,-1.9407,-1.9527,-1.9659,-1.9786,-1.9993,-1.9987,-1.996,-1.9893,-1.976,-1.9746,-1.9887,-1.9933,-2.0013,-2.0054,-2.0087,-2.0174,-2.0147,-2.0428,-2.0501,-2.0521,-2.0528,-2.0528,-2.0481,-2.0287,-2.016,-2.0147,-2.0167,-2.0287,-2.0307,-2.0408,-2.0227,-2.0127,-1.998,-1.9887,-1.992,-1.9967,-2.0013,-2.002,-2.002,-1.9987,-1.9913,-1.9746,-1.9659,-1.9888,-1.9856,-1.9924,-2.0766,-2.1713,-2.2415,-2.3593,-2.4962,-2.6327,-2.7168,-2.795,-2.8184,-2.8301,-2.8301,-2.8301,-2.8291,-2.8291,-2.8398,-2.0174,-2.006,-1.988,-1.974,-1.9659,-1.9653,-1.9533,-1.9444,-1.9424,-1.9424,-1.9424,-1.9424,-1.9424,-1.9424,-1.9424,-1.9424,-1.9424,-1.9424,-1.9424,-1.9307,-1.87,-1.7328,-1.617,-1.5178,-1.3206,-1.1511,-1.0868,-1.0414,-0.9856,-0.9739,-0.973,-0.9791,-0.9819,-0.994,-1.0001,-1.0122,-1.0301,-1.0838,-1.0539,-1.0721,-1.1976,-1.2032,-1.186,-1.2928,-1.3999,-1.4772,-1.4777,-1.579,-1.7331,-1.6797,-1.7097,-1.7818,-1.7889,-1.8347,-1.8684,-1.8962,-1.9793,-2.004,-2.0334,-2.0381,-2.0394,-2.0521,-2.018,-2.0067,-2.0194,-2.0167,-2.0274,-2.0334,-2.0381,-2.0461,-2.0541,-2.0762,-2.0775,-2.0795,-2.0795,-2.0795,-2.0762,-2.0581,-2.0535,-2.0508,-2.0488,-2.0494,-2.0488,-2.0568,-2.0601,-2.0568,-2.0473,-2.0434,-2.0314,-2.0314,-2.0321,-2.0307,-2.0213,-2.0194,-2.0127,-2.004,-1.9967,-1.9947,-1.9786,-1.9593,-1.9922,-2.0923,-2.1321,-2.1892,-2.3804,-2.5485,-2.6845,-2.7618,-2.8018,-2.8286,-2.8301,-2.8301,-2.8301,-2.8301,-2.8301,-2.004,-1.9806,-1.9786,-1.9619,-1.9464,-1.9457,-1.9379,-1.9424,-1.9424,-1.9424,-1.9424,-1.9424,-1.9424,-1.9424,-1.9424,-1.9424,-1.9424,-1.9424,-1.9185,-1.8823,-1.7923,-1.6222,-1.4628,-1.3191,-1.1894,-1.062,-0.9956,-1.0084,-0.9812,-0.9785,-0.9798,-0.9815,-0.9819,-0.9819,-0.9819,-0.9819,-0.994,-1.0061,-1.0122,-1.0179,-1.0657,-1.0358,-1.0361,-1.1197,-1.2032,-1.2573,-1.2993,-1.4063,-1.4718,-1.4782,-1.4842,-1.4852,-1.5336,-1.6378,-1.7003,-1.8004,-1.9578,-2.0396,-2.0675,-2.0681,-2.0775,-2.0855,-2.0568,-2.0361,-2.0334,-2.0428,-2.0535,-2.0635,-2.0695,-2.0855,-2.1009,-2.1022,-2.1036,-2.1042,-2.1042,-2.1042,-2.1049,-2.1002,-2.0995,-2.0975,-2.0962,-2.0949,-2.0915,-2.0949,-2.0848,-2.0869,-2.0815,-2.0715,-2.0601,-2.0501,-2.0501,-2.0481,-2.0373,-2.0293,-2.0307,-2.0327,-2.0274,-2.0247,-2.0147,-2.0013,-2.0181,-2.0308,-2.0777,-2.1656,-2.3157,-2.4782,-2.6579,-2.7597,-2.808,-2.8222,-2.8423,-2.834,-2.8359,-2.831,-2.8301,-1.9566,-1.9499,-1.9486,-1.9504,-1.943,-1.9424,-1.9424,-1.9424,-1.9424,-1.9424,-1.9424,-1.9424,-1.9424,-1.9424,-1.9424,-1.9424,-1.9424,-1.9243,-1.8525,-1.7864,-1.7085,-1.5182,-1.3581,-1.2277,-1.1137,-1.0301,-0.9819,-0.9819,-0.9819,-0.9819,-0.9819,-0.9819,-0.9819,-0.9819,-0.9819,-0.9819,-0.9819,-0.9819,-0.9819,-0.9819,-0.9819,-0.9819,-0.9819,-1.024,-1.1197,-1.1499,-1.1378,-1.3053,-1.3646,-1.3108,-1.4063,-1.4525,-1.4897,-1.5387,-1.5907,-1.7963,-1.9669,-2.0982,-2.0982,-2.0975,-2.1015,-2.1076,-2.0895,-2.0902,-2.0855,-2.0815,-2.0835,-2.0882,-2.0915,-2.1022,-2.1069,-2.1089,-2.1102,-2.1102,-2.1102,-2.1102,-2.1102,-2.1102,-2.1102,-2.1102,-2.1102,-2.1102,-2.1102,-2.1082,-2.0995,-2.1069,-2.1056,-2.0955,-2.0869,-2.0762,-2.0708,-2.0695,-2.0702,-2.0655,-2.0681,-2.0702,-2.0615,-2.0535,-2.0448,-2.0354,-2.0314,-2.0422,-2.0497,-2.1332,-2.2727,-2.4705,-2.6766,-2.7335,-2.729,-2.8343,-2.8616,-2.852,-2.8418,-2.8364,-2.8345,-1.9424,-1.9424,-1.9424,-1.9424,-1.9424,-1.9424,-1.9424,-1.9424,-1.9424,-1.9424,-1.9424,-1.9424,-1.9424,-1.9424,-1.9424,-1.9424,-1.9424,-1.9307,-1.8642,-1.7325,-1.6374,-1.4475,-1.2868,-1.1499,-1.066,-1.0001,-0.9819,-0.9819,-0.9819,-0.9819,-0.9819,-0.9819,-0.9819,-0.9819,-0.9819,-0.9819,-0.9819,-0.9819,-0.9819,-0.9819,-0.9819,-0.9819,-0.9819,-1.0001,-1.1016,-1.0539,-1.0122,-1.2213,-1.1976,-1.1378,-1.2453,-1.272,-1.3346,-1.4085,-1.6053,-1.8155,-1.9922,-2.0873,-2.1069,-2.1082,-2.1096,-2.1102,-2.1102,-2.1082,-2.1069,-2.1022,-2.1042,-2.1062,-2.1082,-2.1102,-2.1102,-2.1102,-2.1102,-2.1102,-2.1102,-2.1102,-2.1102,-2.1102,-2.1102,-2.1102,-2.1102,-2.1102,-2.1102,-2.1102,-2.1102,-2.1102,-2.1102,-2.1069,-2.1022,-2.0982,-2.0949,-2.0942,-2.0982,-2.1002,-2.1009,-2.0955,-2.0882,-2.0808,-2.0795,-2.0695,-2.0575,-2.0678,-2.0965,-2.1488,-2.227,-2.4142,-2.5859,-2.6045,-2.6241,-2.7247,-2.8023,-2.792,-2.7981,-2.8404,-2.841,-1.9424,-1.9424,-1.9424,-1.9424,-1.9424,-1.9424,-1.9424,-1.9424,-1.9424,-1.9424,-1.9424,-1.9424,-1.9424,-1.9424,-1.9424,-1.9424,-1.9424,-1.9366,-1.8227,-1.6786,-1.5548,-1.3765,-1.1856,-1.06,-1.0179,-0.9879,-0.9819,-0.9819,-0.9819,-0.9819,-0.9819,-0.9819,-0.9819,-0.9819,-0.9819,-0.9819,-0.9819,-0.9819,-0.9819,-0.9819,-0.9819,-0.9819,-0.9819,-0.9819,-0.994,-0.9819,-0.9819,-0.9943,-0.9825,-0.9836,-0.9988,-1.0238,-1.144,-1.3798,-1.6308,-1.8175,-1.9909,-2.0836,-2.1102,-2.1102,-2.1102,-2.1102,-2.1102,-2.1102,-2.1102,-2.1102,-2.1102,-2.1102,-2.1102,-2.1102,-2.1102,-2.1102,-2.1102,-2.1102,-2.1102,-2.1102,-2.1102,-2.1102,-2.1102,-2.1102,-2.1102,-2.1102,-2.1102,-2.1102,-2.1102,-2.1102,-2.1102,-2.1102,-2.1102,-2.1102,-2.1102,-2.1102,-2.1102,-2.1102,-2.1089,-2.1049,-2.1069,-2.1049,-2.1022,-2.1002,-2.0862,-2.1083,-2.1478,-2.1707,-2.1909,-2.3036,-2.4293,-2.4625,-2.5108,-2.5702,-2.6394,-2.6911,-2.7402,-2.7996,-2.8632,-1.9424,-1.9424,-1.9424,-1.9424,-1.9424,-1.9424,-1.9424,-1.9424,-1.9424,-1.9424,-1.9424,-1.9424,-1.9424,-1.9424,-1.9424,-1.9366,-1.9249,-1.9185,-1.7636,-1.6026,-1.4599,-1.3048,-1.0955,-1.0119,-0.9819,-0.9819,-0.9819,-0.9819,-0.9819,-0.9819,-0.9819,-0.9819,-0.9819,-0.9819,-0.9819,-0.9819,-0.9819,-0.9819,-0.9846,-0.9846,-0.9785,-0.9829,-0.9819,-0.9825,-0.9832,-0.9849,-0.9849,-0.9842,-0.9842,-0.9903,-0.993,-1.0137,-1.0564,-1.3886,-1.5768,-1.6942,-1.9355,-2.0519,-2.1102,-2.1102,-2.1102,-2.1102,-2.1102,-2.1102,-2.1102,-2.1102,-2.1102,-2.1102,-2.1102,-2.1102,-2.1102,-2.1102,-2.1102,-2.1102,-2.1102,-2.1102,-2.1102,-2.1102,-2.1102,-2.1102,-2.1102,-2.1102,-2.1102,-2.1102,-2.1102,-2.1102,-2.1102,-2.1102,-2.1102,-2.1102,-2.1102,-2.1102,-2.1102,-2.1102,-2.1102,-2.1102,-2.1102,-2.1102,-2.1069,-2.1082,-2.1102,-2.1202,-2.1301,-2.1308,-2.1589,-2.2476,-2.3223,-2.371,-2.4168,-2.44,-2.5122,-2.5755,-2.6624,-2.7274,-2.8333,-1.9424,-1.9424,-1.9424,-1.9424,-1.9424,-1.9424,-1.9424,-1.9424,-1.9424,-1.9424,-1.9424,-1.9424,-1.9424,-1.9424,-1.9424,-1.8823,-1.8706,-1.9185,-1.6738,-1.4658,-1.3885,-1.2453,-1.102,-0.9819,-0.9819,-0.9819,-0.9819,-0.9819,-0.9819,-0.9819,-0.9819,-0.9819,-0.9819,-0.9819,-0.9819,-0.9819,-0.9819,-0.9822,-0.9873,-0.9849,-0.9842,-0.9873,-0.988,-0.9886,-0.9927,-0.9947,-1.0015,-1.0022,-1.007,-1.0161,-1.0212,-1.029,-1.0984,-1.3064,-1.4916,-1.6366,-1.825,-2.0265,-2.0779,-2.1039,-2.1039,-2.1102,-2.1102,-2.1102,-2.1102,-2.1102,-2.1102,-2.1102,-2.1102,-2.1102,-2.1102,-2.1102,-2.1102,-2.1102,-2.1102,-2.1102,-2.1102,-2.1102,-2.1102,-2.1102,-2.1102,-2.1102,-2.1102,-2.1102,-2.1102,-2.1102,-2.1102,-2.1102,-2.1102,-2.1102,-2.1102,-2.1102,-2.1102,-2.1102,-2.1102,-2.1102,-2.1102,-2.1102,-2.1102,-2.1102,-2.1102,-2.1102,-2.1096,-2.1152,-2.1215,-2.1503,-2.2125,-2.2647,-2.2632,-2.2664,-2.3627,-2.469,-2.5615,-2.6422,-2.7144,-1.9424,-1.9424,-1.9424,-1.9424,-1.9424,-1.9424,-1.9424,-1.9424,-1.9424,-1.9424,-1.9424,-1.9424,-1.9424,-1.9424,-1.9366,-1.8221,-1.7741,-1.8344,-1.5902,-1.3765,-1.3706,-1.2037,-1.0717,-0.9819,-0.9819,-0.9819,-0.9819,-0.9819,-0.9819,-0.9819,-0.9819,-0.9819,-0.9819,-0.9819,-0.9819,-0.9819,-0.9822,-0.9859,-0.9859,-0.9957,-0.9995,-0.9947,-0.9998,-1.0049,-1.0027,-1.0154,-1.0236,-1.0273,-1.0273,-1.0358,-1.0422,-1.0493,-1.1062,-1.2534,-1.38,-1.5459,-1.7538,-1.9221,-2.0259,-2.0849,-2.0976,-2.1102,-2.1102,-2.1102,-2.1039,-2.1102,-2.1102,-2.1039,-2.1039,-2.1102,-2.1102,-2.1102,-2.1102,-2.1102,-2.1102,-2.1102,-2.1102,-2.1102,-2.1102,-2.1102,-2.1102,-2.1102,-2.1102,-2.1102,-2.1102,-2.1102,-2.1102,-2.1102,-2.1102,-2.1102,-2.1102,-2.1102,-2.1102,-2.1102,-2.1102,-2.1102,-2.1102,-2.1102,-2.1102,-2.1102,-2.1102,-2.1102,-2.1102,-2.1102,-2.1166,-2.1292,-2.1292,-2.1601,-2.1454,-2.1497,-2.2131,-2.3286,-2.4331,-2.5121,-2.5679,-1.9424,-1.9424,-1.9424,-1.9424,-1.9424,-1.9424,-1.9424,-1.9424,-1.9424,-1.9424,-1.9424,-1.9424,-1.9424,-1.9424,-1.9424,-1.8402,-1.6909,-1.7443,-1.5424,-1.2873,-1.2808,-1.1438,-1.0301,-0.9819,-0.9819,-0.9819,-0.9819,-0.9819,-0.9819,-0.9819,-0.9819,-0.9819,-0.9819,-0.9819,-0.9819,-0.9822,-0.9832,-0.9825,-0.992,-1.0021,-1.0061,-1.0127,-1.0205,-1.0232,-1.0239,-1.0256,-1.0273,-1.0343,-1.0348,-1.0456,-1.0575,-1.0636,-1.1121,-1.2053,-1.3246,-1.4423,-1.6501,-1.7859,-1.8896,-2.0068,-2.0392,-2.0716,-2.0779,-2.0976,-2.0976,-2.1039,-2.0976,-2.0843,-2.0843,-2.1039,-2.1102,-2.1102,-2.1102,-2.1102,-2.1102,-2.1102,-2.1102,-2.1102,-2.1102,-2.1102,-2.1102,-2.1102,-2.1102,-2.1102,-2.1102,-2.1102,-2.1102,-2.1102,-2.1102,-2.1102,-2.1102,-2.1102,-2.1102,-2.1102,-2.1102,-2.1102,-2.1102,-2.1102,-2.1102,-2.1102,-2.1102,-2.1102,-2.1102,-2.1102,-2.1102,-2.1166,-2.1102,-2.1102,-2.1096,-2.1272,-2.1222,-2.1888,-2.2952,-2.369,-2.4163]},{"header":{"parameterUnit":"m.s-1","parameterCategory":1,"la1":31.0,"la2":29.5877,"lo1":-88.7671,"lo2":-86.6584,"dy":0.0162,"dx":0.0185,"nx":115,"ny":88,"refTime":"2026-05-18T12:00:00:Z","depth":0,"parameterNumber":3,"parameterNumberName":"V-component_of_WINDS"},"data":[0.0,0.0,0.0,0.0,0.0,0.0,0.0,0.0,0.0,0.0,0.0,0.0,0.0,0.0,0.0,0.0,0.0,0.0,0.0,0.0,0.0,0.0,0.0,0.0,0.0,0.0,0.0,0.0,0.0,0.0,0.0,0.0,0.0,0.0,0.0,0.0,0.0,0.0,0.0,0.0,0.0,0.0,0.0,0.0,0.0,0.0,0.0,0.0,0.0,0.0,0.0,0.0,0.0,0.0,0.0,0.0,0.0,0.0,0.0,0.0,0.0,0.0,0.0,0.0,0.0,0.0,0.0,0.0,0.0,0.0,0.0,0.0,0.0,0.0,0.0,0.0,0.0,0.0,0.0,0.0,0.0,0.0,0.0,0.0,0.0,0.0,0.0,0.0,0.0,0.0,0.0,0.0,0.0,0.0,0.0,0.0,0.0,0.0,0.0,0.0,0.0,0.0,0.0,0.0,0.0,0.0,0.0,0.0,0.0,0.0,0.0,0.0,0.0,0.0,0.0,0.0,0.0,0.0,0.0,0.0,0.0,0.0,0.0,0.0,0.0,0.0,0.0,0.0,0.0,0.0,0.0,0.0,0.0,0.0,0.0,0.0,0.0,0.0,0.0,0.0,0.0,0.0,0.0,0.0,0.0,0.0,0.0,0.0,0.0,0.0,0.0,0.0,0.0,0.0,0.0,0.0,0.0,0.0,0.0,0.0,0.0,0.0,0.0,0.0,0.0,0.0,0.0,0.0,0.0,0.0,0.0,0.0,0.0,0.0,0.0,0.0,0.0,0.0,0.0,0.0,0.0,0.0,0.0,0.0,0.0,0.0,0.0,0.0,0.0,0.0,0.0,0.0,0.0,0.0,0.0,0.0,0.0,0.0,0.0,0.0,0.0,0.0,0.0,0.0,0.0,0.0,0.0,0.0,0.0,0.0,0.0,0.0,0.0,0.0,0.0,0.0,0.0,0.0,0.0,0.0,0.0,0.0,0.0,0.0,0.0,0.0,0.0,0.0,0.0,0.0,0.0,0.0,0.0,0.0,0.0,0.0,0.0,0.0,0.0,0.0,0.0,0.0,0.0,0.0,0.0,0.0,0.0,0.0,0.0,0.0,0.0,0.0,0.0,0.0,0.0,0.0,0.0,0.0,0.0,0.0,0.0,0.0,0.0,0.0,0.0,0.0,0.0,0.0,0.0,0.0,0.0,0.0,0.0,0.0,0.0,0.0,0.0,0.0,0.0,0.0,0.0,0.0,0.0,0.0,0.0,0.0,0.0,0.0,0.0,0.0,0.0,0.0,0.0,0.0,0.0,0.0,0.0,0.0,0.0,0.0,0.0,0.0,0.0,0.0,0.0,0.0,0.0,0.0,0.0,0.0,0.0,0.0,0.0,0.0,0.0,0.0,0.0,0.0,0.0,0.0,0.0,0.0,0.0,0.0,0.0,0.0,0.0,0.0,0.0,0.0,0.0,0.0,0.0,0.0,0.0,0.0,0.0,0.0,0.0,0.0,0.0,0.0,0.0,0.0,0.0,0.0,0.0,0.0,0.0,0.0,0.0,0.0,0.0,0.0,0.0,0.0,0.0,0.0,0.0,0.0,0.0,0.0,0.0,0.0,0.0,0.0,0.0,0.0,0.0,0.0,0.0,0.0,0.0,0.0,0.0,0.0,0.0,0.0,0.0,0.0,0.0,0.0,0.0,0.0,0.0,0.0,0.0,0.0,0.0,0.0,0.0,0.0,0.0,0.0,0.0,0.0,0.0,0.0,0.0,0.0,0.0,0.0,0.0,0.0,0.0,0.0,0.0,0.0,0.0,0.0,0.0,0.0,0.0,0.0,0.0,0.0,0.0,0.0,0.0,0.0,0.0,0.0,0.0,0.0,0.0,0.0,0.0,0.0,0.0,0.0,0.0,0.0,0.0,0.0,0.0,0.0,0.0,0.0,0.0,0.0,0.0,0.0,0.0,0.0,0.0,0.0,0.0,0.0,0.0,0.0,0.0,0.0,0.0,0.0,0.0,0.0,0.0,0.0,0.0,0.0,0.0,0.0,0.0,0.0,0.0,0.0,0.0,0.0,0.0,0.0,0.0,0.0,0.0,0.0,0.0,0.0,0.0,0.0,0.0,0.0,0.0,0.0,0.0,0.0,0.0,0.0,0.0,0.0,0.0,0.0,0.0,0.0,0.0,0.0,0.0,0.0,0.0,0.0,0.0,0.0,0.0,0.0,0.0,0.0,0.0,0.0,0.0,0.0,0.0,0.0,0.0,0.0,0.0,0.0,0.0,0.0,0.0,0.0,0.0,0.0,0.0,0.0,0.0,0.0,0.0,0.0,0.0,0.0,0.0,0.0,0.0,0.0,0.0,0.0,0.0,0.0,0.0,0.0,0.0,0.0,0.0,0.0,0.0,0.0,0.0,0.0,0.0,0.0,0.0,0.0,0.0,0.0,0.0,0.0,0.0,0.0,0.0,0.0,0.0,0.0,0.0,0.0,0.0,0.0,0.0,0.0,0.0,0.0,0.0,0.0,0.0,0.0,0.0,0.0,0.0,0.0,0.0,0.0,0.0,0.0,0.0,0.0,0.0,0.0,0.0,0.0,0.0,0.0,0.0,0.0,0.0,0.0,0.0,0.0,0.0,0.0,0.0,0.0,0.0,0.0,0.0,0.0,0.0,0.0,0.0,0.0,0.0,0.0,0.0,0.0,0.0,0.0,0.0,0.0,0.0,0.0,0.0,0.0,0.0,0.0,0.0,0.0,0.0,0.0,0.0,0.0,0.0,0.0,0.0,0.0,0.0,0.0,0.0,0.0,0.0,0.0,0.0,0.0,0.0,0.0,0.0,0.0,0.0,0.0,0.0,0.0,0.0,0.0,0.0,0.0,0.0,0.0,0.0,0.0,0.0,0.0,0.0,0.0,0.0,0.0,0.0,0.0,0.0,0.0,0.0,0.0,0.0,0.0,0.0,0.0,0.0,0.0,0.0,0.0,0.0,0.0,0.0,0.0,0.0,0.0,0.0,0.0,0.0,0.0,0.0,0.0,0.0,0.0,0.0,0.0,0.0,0.0,0.0,0.0,0.0,0.0,0.0,0.0,0.0,0.0,0.0,0.0,0.0,0.0,0.0,0.0,0.0,0.0,0.0,0.0,0.0,0.0,0.0,0.0,0.0,0.0,0.0,0.0,0.0,0.0,0.0,0.0,0.0,0.0,0.0,0.0,0.0,0.0,0.0,0.0,0.0,0.0,0.0,0.0,0.0,0.0,0.0,0.0,0.0,0.0,0.0,0.0,0.0,0.0,0.0,0.0,0.0,0.0,0.0,0.0,0.0,0.0,0.0,0.0,0.0,0.0,0.0,0.0,0.0,0.0,0.0,0.0,0.0,0.0,0.0,0.0,0.0,0.0,0.0,0.0,0.0,0.0,0.0,0.0,0.0,0.0,0.0,0.0,0.0,0.0,0.0,0.0,0.0,0.0,0.0,0.0,0.0,0.0,0.0,0.0,0.0,0.0,0.0,0.0,0.0,0.0,0.0,0.0,0.0,0.0,0.0,0.0,0.0,0.0,0.0,0.0,0.0,0.0,0.0,0.0,0.0,0.0,0.0,0.0,0.0,0.0,0.0,0.0,0.0,0.0,0.0,0.0,0.0,0.0,0.0,0.0,0.0,0.0,0.0,0.0,0.0,0.0,0.0,0.0,0.0,0.0,0.0,0.0,0.0,0.0,0.0,0.0,0.0,0.0,0.0,0.0,0.0,0.0,0.0,0.0,0.0,0.0,0.0,0.0,0.0,0.0,0.0,0.0,0.0,0.0,0.0,0.0,0.0,0.0,0.0,0.0,0.0,0.0,0.0,0.0,0.0,0.0,0.0,0.0,0.0,0.0,0.0,0.0,0.0,0.0,0.0,0.0,0.0,0.0,0.0,0.0,0.0,0.0,0.0,0.0,0.0,0.0,0.0,0.0,0.0,0.0,0.0,0.0,0.0,0.0,0.0,0.0,0.0,0.0,0.0,0.0,0.0,0.0,0.0,0.0,0.0,0.0,0.0,0.0,0.0,0.0,0.0,0.0,0.0,0.0,0.0,0.0,0.0,0.0,0.0,0.0,0.0,0.0,0.0,0.0,0.0,0.0,0.0,0.0,0.0,0.0,0.0,0.0,0.0,0.0,0.0,0.0,0.0,0.0,0.0,0.0,0.0,0.0,0.0,0.0,0.0,0.0,0.0,0.0,0.0,0.0,0.0,0.0,0.0,0.0,0.0,0.0,0.2073,0.0,0.0,0.0,-0.5315,0.0,0.0,0.0,0.0,0.0,0.0,0.0,0.0,0.0,0.0,0.0,0.0,0.0,0.0,0.0,0.0,0.0,0.0,0.0,0.0,0.0,0.0,0.0,0.0,0.0,0.0,0.0,0.0,0.0,0.0,0.0,0.0,0.0,0.0,0.0,0.0,0.0,0.0,0.0,0.0,0.0,0.0,0.0,0.0,0.0,0.0,0.0,0.0,0.0,0.0,0.0,0.0,0.0,0.0,0.0,0.0,0.0,0.0,0.0,0.0,0.0,0.0,0.0,0.0,0.0,0.0,0.0,0.0,0.0,0.0,0.0,0.0,0.0,0.0,0.0,0.0,0.0,0.0,0.0,0.0,0.0,0.0,0.0,0.0,0.0,0.0,0.0,0.0,0.0,0.0,0.0,0.0,0.0,0.0,0.0,0.0,0.0,0.0,0.0,0.0,0.0,0.0,0.0,0.0,0.0,0.0,0.0,0.0,0.0,0.0,0.1767,-0.2801,-0.3408,-0.4472,-0.6299,0.0,0.0,0.0,0.0,0.0,0.0,0.0,0.0,0.0,0.0,0.0,0.0,0.0,0.0,0.0,0.0,0.0,0.0,0.0,0.0,0.0,0.0,0.0,0.0,0.0,0.0,0.0,0.0,0.0,0.0,0.0,0.0,0.0,0.0,0.0,0.0,0.0,0.0,0.0,0.0,0.0,0.0,0.0,0.0,0.0,0.0,0.0,0.0,0.0,0.0,0.0,0.0,0.0,0.0,0.0,0.0,0.0,0.0,0.0,0.0,0.0,0.0,0.0,0.0,0.0,0.0,0.0,0.0,0.0,0.0,0.0,0.0,0.0,0.0,0.0,0.0,0.0,0.0,0.0,0.0,0.0,0.0,0.0,0.0,0.0,0.0,0.0,0.0,0.0,0.0,0.0,0.0,0.0,0.0,0.0,0.0,0.0,0.0,0.0,0.0,0.0,0.0,0.0,0.0,0.0,0.0,0.0,0.0,0.0,0.0,0.0,0.0,-0.3741,-0.4973,-0.7669,0.0,0.0,0.0,0.0,0.0,0.0,0.0,0.0,0.0,0.0,0.0,0.0,0.0,0.0,0.0,0.0,0.0,0.0,0.0,0.0,0.0,0.0,0.0,0.0,0.0,0.0,0.0,0.0,0.0,0.0,0.0,0.0,0.0,0.0,0.0,0.0,0.0,0.0,0.0,0.0,0.0,0.0,0.0,0.0,0.0,0.0,0.0,0.0,0.0,0.0,0.0,0.0,0.0,0.0,0.0,0.0,0.0,0.0,0.0,0.0,0.0,0.0,0.0,0.0,0.0,0.0,0.0,0.0,0.0,0.0,0.0,0.0,0.0,0.0,0.0,0.0,0.0,0.0,0.0,0.0,0.0,0.0,0.0,0.0,0.0,0.0,0.0,0.0,0.0,0.0,0.0,0.0,0.0,0.0,0.0,0.0,0.0,0.0,0.0,0.0,0.0,0.0,0.0,0.0,0.0,0.0,0.0,0.0,0.0,0.0,0.1463,-0.3797,-0.3982,0.0,-0.9669,0.0,0.0,0.0,0.0,0.0,0.0,0.0,0.0,0.0,0.0,0.0,0.0,0.0,0.0,0.0,0.0,0.0,0.0,0.0,0.0,0.0,0.0,0.0,0.0,0.0,0.0,0.0,0.0,0.0,0.0,0.0,0.0,0.0,0.0,0.0,0.0,0.0,0.0,0.0,0.0,0.0,0.0,0.0,0.0,0.0,0.0,0.0,0.0,0.0,0.0,0.0,0.0,0.0,0.0,0.0,0.0,0.0,0.0,0.0,0.0,0.0,0.0,0.0,0.0,0.0,0.0,0.0,0.0,0.0,0.0,0.0,0.0,0.0,0.0,0.0,0.0,0.0,0.0,0.0,0.0,0.0,0.0,0.0,0.0,0.0,0.0,0.0,0.0,0.0,0.0,0.0,0.0,0.0,0.0,0.0,0.0,0.0,0.0,0.0,0.0,0.0,0.0,0.0,0.0,0.0,0.0,0.0,0.0,0.0,0.0,0.1431,-0.3974,-0.6155,-0.819,0.0,0.0,0.0,0.0,0.0,0.0,0.0,0.0,0.0,0.0,0.0,0.0,0.0,0.0,0.0,0.0,0.0,0.0,0.0,0.0,0.0,0.0,0.0,0.0,0.0,0.0,0.0,0.0,0.0,0.0,0.0,0.0,0.0,0.0,0.0,0.0,0.0,0.0,0.0,0.0,0.0,0.0,0.0,0.0,0.0,0.0,0.0,0.0,0.0,0.0,0.0,0.0,0.0,0.0,0.0,0.0,0.0,0.0,0.0,0.0,0.0,0.0,0.0,0.0,0.0,0.0,0.0,0.0,0.0,0.0,0.0,0.0,0.0,0.0,0.0,0.0,0.0,0.0,0.0,0.0,0.0,0.0,0.0,0.0,0.0,0.0,0.0,0.0,0.0,0.0,0.0,0.0,0.0,0.0,0.0,0.0,0.0,0.0,0.0,0.0,0.0,0.0,0.0,0.0,0.0,0.0,0.0,0.0,0.0,0.0,0.4008,0.1394,-0.3996,-0.8222,-1.0344,-1.0251,0.0,0.0,0.0,0.0,0.0,0.0,0.0,0.0,0.0,0.0,0.0,0.0,0.0,0.0,0.0,0.0,0.0,0.0,0.0,0.0,0.0,0.0,0.0,0.0,0.0,0.0,0.0,0.0,0.0,0.0,0.0,0.0,0.0,0.0,0.0,0.0,0.0,0.0,0.0,0.0,0.0,0.0,0.0,0.0,0.0,0.0,0.0,0.0,0.0,0.0,0.0,0.0,0.0,0.0,0.0,0.0,0.0,0.0,0.0,0.0,0.0,0.0,0.0,0.0,0.0,0.0,0.0,0.0,0.0,0.0,0.0,0.0,0.0,0.0,0.0,0.0,0.0,0.0,0.0,0.0,0.0,0.0,0.0,0.0,0.0,0.0,0.0,0.0,0.0,0.0,0.0,0.0,0.0,0.0,0.0,0.0,0.0,0.0,0.0,0.0,0.0,0.0,0.0,0.0,0.0,0.0,0.0,0.0,0.4218,0.3956,0.135,-0.4077,-0.9701,-1.1948,0.0,0.0,0.0,0.0,0.0,0.0,0.0,0.0,0.0,0.0,0.0,0.0,0.0,0.0,0.0,0.0,0.0,0.0,0.0,0.0,0.0,0.0,0.0,0.0,0.0,0.0,0.0,0.0,0.0,0.0,0.0,0.0,0.0,0.0,0.0,0.0,0.0,0.0,0.0,0.0,0.0,0.0,0.0,0.0,0.0,0.0,0.0,0.0,0.0,0.0,0.0,0.0,0.0,0.0,0.0,0.0,0.0,0.0,0.0,0.0,0.0,0.0,0.0,0.0,0.0,0.0,0.0,0.0,0.0,0.0,0.0,0.0,0.0,0.0,0.0,0.0,0.0,0.0,0.0,0.0,0.0,0.0,0.0,0.0,0.0,0.0,0.0,0.0,0.0,0.0,0.0,0.0,0.0,0.0,0.0,0.0,0.0,0.0,0.0,0.0,0.0,0.0,0.0,0.0,0.0,0.0,0.0,0.0,0.0,0.411,0.0575,-0.2234,-0.4428,-0.9224,-1.1144,0.0,0.0,0.0,0.0,0.0,0.0,0.0,0.0,0.0,0.0,0.0,0.0,0.0,0.0,0.0,0.0,0.0,0.0,0.0,0.0,0.0,0.0,0.0,0.0,0.0,0.0,0.0,0.0,0.0,0.0,0.0,0.0,0.0,0.0,0.0,0.0,0.0,0.0,0.0,0.0,0.0,0.0,0.0,0.0,0.0,0.0,0.0,0.0,0.0,0.0,0.0,0.0,0.0,0.0,0.0,0.0,0.0,0.0,0.0,0.0,0.0,0.0,0.0,0.0,0.0,0.0,0.0,0.0,0.0,0.0,0.0,0.0,0.0,0.0,0.0,0.0,0.0,0.0,0.0,0.0,0.0,0.0,0.0,0.0,0.0,0.0,0.0,0.0,0.0,0.0,0.0,0.0,0.0,0.0,0.0,0.0,0.0,0.0,0.0,0.0,0.0,0.0,0.0,0.0,0.0,0.0,0.0,0.0,0.0,0.3323,0.0,-0.4505,-0.52,-0.9314,-1.0782,0.0,0.0,0.0,0.0,0.0,0.0,0.0,0.0,0.0,0.0,0.0,0.0,0.0,0.0,0.0,0.0,0.0,0.0,0.0,0.0,0.0,0.0,0.0,0.0,0.0,0.0,0.0,0.0,0.0,0.0,0.0,0.0,0.0,0.0,0.0,0.0,0.0,0.0,0.0,0.0,0.0,0.0,0.0,0.0,0.0,0.0,0.0,0.0,0.0,0.0,0.0,0.0,0.0,0.0,0.0,0.0,0.0,0.0,0.0,0.0,0.0,0.0,0.0,0.0,0.0,0.0,0.0,0.0,0.0,0.0,0.0,0.0,0.0,0.0,0.0,0.0,0.0,0.0,0.0,0.0,0.0,0.0,0.0,0.0,0.0,0.0,0.0,0.0,0.0,0.0,0.0,0.0,0.0,0.0,0.0,0.0,0.0,0.0,0.0,0.0,0.0,0.0,0.0,0.0,0.0,0.0,0.0,0.0,0.7217,0.1948,-0.2131,-0.4886,-0.6373,-1.0132,-1.112,0.0,0.0,0.0,0.0,0.0,0.0,0.0,0.0,0.0,0.0,0.0,0.0,0.0,0.0,0.0,0.0,0.0,0.0,0.0,0.0,0.0,0.0,0.0,0.0,0.0,0.0,0.0,0.0,0.0,0.0,0.0,0.0,0.0,0.0,0.0,0.0,0.0,0.0,0.0,0.0,0.0,0.0,0.0,0.0,0.0,0.0,0.0,0.0,0.0,0.0,0.0,0.0,0.0,0.0,0.0,0.0,0.0,0.0,0.0,0.0,0.0,0.0,0.0,0.0,0.0,0.0,0.0,0.0,0.0,0.0,0.0,0.0,0.0,0.0,0.0,0.0,0.0,0.0,0.0,0.0,0.0,0.0,0.0,0.0,0.0,0.0,0.0,0.0,0.0,0.0,0.0,0.0,0.0,0.0,0.0,0.0,0.0,0.0,0.0,0.0,0.0,0.0,0.0,0.0,0.0,0.0,0.0,0.0,0.0,0.0476,-0.2598,-0.5511,-0.8317,-1.0612,-1.1249,0.0,0.0,0.0,0.0,0.0,0.0,0.0,0.0,0.0,0.0,0.0,0.0,0.0,0.0,0.0,0.0,0.0,0.0,0.0,0.0,0.0,0.0,0.0,0.0,0.0,0.0,0.0,0.0,0.0,0.0,0.0,0.0,0.0,0.0,0.0,0.0,0.0,0.0,0.0,0.0,0.0,0.0,0.0,0.0,0.0,0.0,0.0,0.0,0.0,0.0,0.0,0.0,0.0,0.0,0.0,0.0,0.0,0.0,0.0,0.0,0.0,0.0,0.0,0.0,0.0,0.0,0.0,0.0,0.0,0.0,0.0,0.0,0.0,0.0,0.0,0.0,0.0,0.0,0.0,0.0,0.0,0.0,0.0,0.0,0.0,0.0,0.0,0.0,0.0,0.0,0.0,0.0,0.0,0.0,0.0,0.0,0.0,0.0,0.0,0.0,0.0,0.0,0.0,0.0,0.0,0.0,0.0,0.0,0.0,-0.1729,-0.3538,-0.5891,-0.9088,-1.0915,-1.1098,-0.9413,0.0,0.0,0.0,0.0,0.0,0.0,0.0,0.0,0.0,0.0,0.0,0.0,0.0,0.0,0.0,0.0,0.0,0.0,0.0,0.0,0.0,0.0,0.0,0.0,0.0,0.0,0.0,0.0,0.0,0.0,0.0,0.0,0.0,0.0,0.0,0.0,0.0,0.0,0.0,0.0,0.0,0.0,0.0,0.0,0.0,0.0,0.0,0.0,0.0,0.0,0.0,0.0,0.0,0.0,0.0,0.0,0.0,0.0,0.0,0.0,0.0,0.0,0.0,0.0,0.0,0.0,0.0,0.0,0.0,0.0,0.0,0.0,0.0,0.0,0.0,0.0,0.0,0.0,0.0,0.0,0.0,0.0,0.0,0.0,0.0,0.0,0.0,0.0,0.0,0.0,0.0,0.0,0.0,0.0,0.0,0.0,0.0,0.0,0.0,0.0,0.0,0.0,0.0,0.0,0.0,0.0,0.0,0.0,-0.4643,-0.4735,-0.6129,-0.904,-1.1032,-1.0728,0.0,0.0,0.0,0.0,0.0,0.0,0.0,0.0,0.0,0.0,0.0,0.0,0.0,0.0,0.0,0.0,0.0,0.0,0.0,0.0,0.0,0.0,0.0,0.0,0.0,0.0,0.0,0.0,0.0,0.0,0.0,0.0,0.0,0.0,0.0,0.0,0.0,0.0,0.0,0.0,0.0,0.0,0.0,0.0,0.0,0.0,0.0,0.0,0.0,0.0,0.0,0.0,0.0,0.0,0.0,0.0,0.0,0.0,0.0,0.0,0.0,0.0,0.0,0.0,0.0,0.0,0.0,0.0,0.0,0.0,0.0,0.0,0.0,0.0,0.0,0.0,0.0,0.0,0.0,0.0,0.0,0.0,0.0,0.0,0.0,0.0,0.0,0.0,0.0,0.0,0.0,0.0,0.0,0.0,0.0,0.0,0.0,0.0,0.0,0.0,0.0,0.0,0.0,0.0,0.0,0.0,0.0,0.0,0.0,-0.4569,-0.4843,-0.6877,-1.096,-1.1147,-1.0827,0.0,0.0,0.0,0.0,0.0,0.0,0.0,0.0,0.0,0.0,0.0,0.0,0.0,0.0,0.0,0.0,0.0,0.0,0.0,0.0,0.0,0.0,0.0,0.0,0.0,0.0,0.0,0.0,0.0,0.0,0.0,0.0,0.0,0.0,0.0,0.0,0.0,0.0,0.0,0.0,0.0,0.0,0.0,0.0,0.0,0.0,0.0,0.0,0.0,0.0,0.0,0.0,0.0,0.0,0.0,0.0,0.0,0.0,0.0,0.0,0.0,0.0,0.0,0.0,0.0,0.0,0.0,0.0,0.0,0.0,0.0,0.0,0.0,0.0,0.0,0.0,0.0,0.0,0.0,0.0,0.0,0.0,0.0,0.0,0.0,0.0,0.0,0.0,0.0,0.0,0.0,0.0,0.0,0.0,0.0,0.0,0.0,0.0,0.0,0.0,0.0,0.0,0.0,0.0,0.0,0.0,0.0,0.0,0.1672,-0.379,-0.4572,-0.6594,-0.9954,-1.0633,-1.0653,0.0,0.0,0.0,0.0,0.0,0.0,0.0,0.0,0.0,0.0,0.0,0.0,0.0,0.0,0.0,0.0,0.0,0.0,0.0,0.0,0.0,0.0,0.0,0.0,0.0,0.0,0.0,0.0,0.0,0.0,0.0,0.0,0.0,0.0,0.0,0.0,0.0,0.0,0.0,0.0,0.0,0.0,0.0,0.0,0.0,0.0,0.0,0.0,0.0,0.0,0.0,0.0,0.0,0.0,0.0,0.0,0.0,0.0,0.0,0.0,0.0,0.0,0.0,0.0,0.0,0.0,0.0,0.0,0.0,0.0,0.0,0.0,0.0,0.0,0.0,0.0,0.0,0.0,0.0,0.0,0.0,0.0,0.0,0.0,0.0,0.0,0.0,0.0,0.0,0.0,0.0,0.0,0.0,0.0,0.0,0.0,0.0,0.0,0.0,0.0,0.0,0.0,0.0,0.0,0.0,0.0,0.0,0.0,0.2302,-0.2164,-0.3842,-0.5527,-0.7352,-0.9783,-1.026,0.0,0.0,0.0,0.0,0.0,0.0,0.0,0.0,0.0,0.0,0.0,0.0,0.0,0.0,0.0,0.0,0.0,0.0,0.0,0.0,0.0,0.0,0.0,0.0,0.0,0.0,0.0,0.0,0.0,0.0,0.0,0.0,0.0,0.0,0.0,0.0,0.0,0.0,0.0,0.0,0.0,0.0,0.0,0.0,0.0,0.0,0.0,0.0,0.0,0.0,0.0,0.0,0.0,0.0,0.0,0.0,0.0,0.0,0.0,0.0,0.0,0.0,0.0,0.0,0.0,0.0,0.0,0.0,0.0,0.0,0.0,0.0,0.0,0.0,0.0,0.0,0.0,0.0,0.0,0.0,0.0,0.0,0.0,0.0,0.0,0.0,0.0,0.0,0.0,0.0,0.0,0.0,0.0,0.0,0.0,0.0,0.0,0.0,0.0,0.0,0.0,0.0,0.0,0.0,0.0,0.0,0.0,0.0,0.2891,-0.0419,-0.2134,-0.4424,-0.7357,-0.8878,-0.9363,0.0,0.0,0.0,0.0,0.0,0.0,0.0,0.0,0.0,0.0,0.0,0.0,0.0,0.0,0.0,0.0,0.0,0.0,0.0,0.0,0.0,0.0,0.0,0.0,0.0,0.0,0.0,0.0,0.0,0.0,0.0,0.0,0.0,0.0,0.0,0.0,0.0,0.0,0.0,0.0,0.0,0.0,0.0,0.0,0.0,0.0,0.0,0.0,0.2184,0.0,0.0,0.0,0.0,0.0,0.0,0.0,0.0,0.0,0.0,0.0,0.0,0.0,0.0,0.0,0.0,0.0,0.0,0.0,0.0,0.0,0.0,0.0,0.0,0.0,0.0,0.0,0.0,0.0,0.0,0.0,0.0,0.0,0.0,0.0,0.0,0.0,0.0,0.0,0.0,0.0,0.0,0.0,0.0,0.0,0.0,0.0,0.0,0.0,0.0,0.0,0.0,0.0,0.0,0.0,0.0,0.0,0.0,0.0,0.3463,0.1213,-0.1225,-0.3689,-0.613,-0.7498,-0.8419,0.0,0.0,0.0,0.0,0.0,0.0,0.0,0.0,0.0,0.0,0.0,0.0,0.0,0.0,0.0,0.0,0.0,0.0,0.0,0.0,0.0,0.0,0.0,0.0,0.0,0.0,0.0,0.0,0.0,0.0,0.0,0.0,0.0,0.0,0.0,0.0,0.0,0.0,0.0,0.0,0.0,0.0,0.0,0.0,0.0,0.0,0.0,0.0,0.0,0.0,0.0,0.0,0.0,0.0,0.0,0.0,0.0,0.0,0.0,0.0,0.0,0.0,0.0,0.0,0.0,0.0,0.0,0.0,0.0,0.0,0.0,0.0,0.0,0.0,0.0,0.0,0.0,0.0,0.0,0.0,0.0,0.0,0.0,0.0,0.0,0.0,0.0,0.0,0.0,0.0,0.0,0.0,0.0,0.0,0.0,0.0,0.0,0.0,0.0,0.0,0.0,0.0,0.0,0.0,0.0,0.0,0.0,0.757,0.4584,0.2828,-0.0123,-0.2645,-0.4487,-0.5762,-0.7003,-0.8116,0.0,0.0,0.0,0.0,0.0,0.0,0.0,0.0,0.0,0.0,0.0,0.0,0.0,0.0,0.0,0.0,0.0,0.0,0.0,0.0,0.0,0.0,0.0,0.0,0.0,0.0,0.0,0.0,0.0,0.0,0.0,0.0,0.0,0.0,0.0,0.0,0.0,0.0,2.0842,1.6759,0.0,0.0,0.0,0.0,0.0,0.0,0.0,0.0,0.204,0.0,0.0,0.0,0.0,0.0,0.0,0.0,0.0,0.0,0.0,0.0,0.0,0.0,0.0,0.0,0.0,0.0,0.0,0.0,0.0,0.0,0.0,0.0,0.0,0.0,0.0,0.0,0.0,0.0,0.0,0.0,0.0,0.0,0.0,0.0,0.0,0.0,0.0,0.0,0.0,0.0,0.0,0.0,0.0,0.0,0.0,0.0,0.0,0.0,0.0,0.0,0.0,0.0,0.0,0.0,0.0,1.3702,1.0203,0.7128,0.4544,0.2645,0.0246,-0.2769,-0.3131,-0.3873,-0.499,0.0,0.0,0.0,0.0,0.0,0.0,0.0,0.0,0.0,0.0,0.0,0.0,0.0,0.0,0.0,0.0,0.0,0.0,0.0,0.0,0.0,0.0,0.0,0.0,0.0,0.0,0.0,0.0,0.0,0.0,0.0,0.0,0.0,0.0,0.0,0.0,0.0,0.0,0.0,1.8462,1.52,0.0,0.0,0.0,0.0,0.0,0.0,0.0,0.0,0.1437,0.0,0.0,0.0,0.0,0.0,0.0,0.0,0.0,0.0,0.0,0.0,0.0,0.0,0.0,0.0,0.0,0.0,0.0,0.0,0.0,0.0,0.0,0.0,0.0,0.0,0.0,0.0,0.0,0.0,0.0,0.0,0.0,0.0,0.0,0.0,0.0,0.0,0.0,0.0,0.0,0.0,0.0,0.0,0.0,0.0,0.0,0.0,0.0,0.0,0.0,0.0,0.0,0.0,0.0,0.0,1.3924,1.0961,0.8423,0.6257,0.4608,0.2151,-0.1044,-0.1219,-0.1894,0.0,0.0,0.0,0.0,0.0,0.0,0.0,0.0,0.0,0.0,0.0,0.0,0.0,0.0,0.0,0.0,0.0,0.0,0.0,0.0,0.0,0.0,0.0,0.0,0.0,0.0,0.0,0.0,0.0,0.0,0.0,0.0,0.0,0.0,0.0,0.0,0.0,0.0,0.0,0.0,1.883,1.5682,1.4422,0.0,0.0,0.0,0.0,0.0,0.0,0.2974,0.1703,0.0,0.0,0.0,0.0,0.0,0.0,0.0,0.0,0.0,0.0,0.0,0.0,0.0,0.0,0.0,0.0,0.0,0.0,0.0,0.0,0.0,0.0,0.0,0.0,0.0,0.0,0.0,0.0,0.0,0.0,0.0,0.0,0.0,0.0,0.0,0.0,0.0,0.0,0.0,0.0,0.0,0.0,0.0,0.0,0.0,0.0,0.0,0.0,0.0,0.0,0.0,0.0,0.0,0.0,0.0,1.4625,1.2047,0.9787,0.7958,0.6259,0.3989,0.1103,0.0969,0.0353,0.0,0.0,0.0,0.0,0.0,0.0,0.0,0.0,0.0,0.0,0.0,0.0,0.0,0.0,0.0,0.0,0.0,0.0,0.0,0.0,0.0,0.0,0.0,0.0,0.0,0.0,0.0,0.0,0.0,0.0,0.0,0.0,0.0,0.0,0.0,0.0,0.0,0.0,0.0,0.0,0.0,1.6238,1.4922,1.3051,0.0,0.0,0.0,0.0,0.4796,0.3735,0.0,0.0,0.0,0.0,0.0,0.0,0.0,0.0,0.0,0.0,0.0,0.0,0.0,0.0,0.0,0.0,0.0,0.0,0.0,0.0,0.0,0.0,0.0,0.0,0.0,0.0,0.0,0.0,0.0,0.0,0.0,0.0,0.0,0.0,0.0,0.0,0.0,0.0,0.0,0.0,0.0,0.0,0.0,0.0,0.0,0.0,0.0,0.0,0.0,0.0,0.0,0.0,0.0,0.0,0.0,0.0,1.7582,1.499,1.236,0.9627,0.7958,0.6198,0.4421,0.4354,0.4169,0.0,0.0,0.0,0.0,0.0,0.0,0.0,0.0,0.0,0.0,0.0,0.0,0.0,0.0,0.0,0.0,0.0,0.0,0.0,0.0,0.0,0.0,0.0,0.0,0.0,0.0,0.0,0.0,0.0,0.0,0.0,0.0,0.0,0.0,0.0,0.0,0.0,0.0,0.0,0.0,0.0,1.8071,1.6036,1.4382,1.2872,0.0,0.0,0.9396,0.6668,0.6187,0.0,0.0,0.0,0.0,0.0,0.0,0.0,0.0,0.0,0.0,0.0,0.0,0.0,0.0,0.0,0.0,0.0,0.0,0.0,0.0,0.0,0.0,0.0,0.0,0.0,0.0,0.0,0.0,0.0,0.0,0.0,0.0,0.0,0.0,0.0,0.0,0.0,0.0,0.0,0.0,0.0,0.0,0.0,0.0,0.0,0.0,0.0,0.0,0.0,0.0,0.0,0.0,0.0,0.0,0.0,2.0217,1.7812,1.6474,1.4713,1.2594,1.0925,0.9354,0.7702,0.669,0.5625,0.0,0.0,0.0,0.0,0.0,0.0,0.0,0.0,0.0,0.0,0.0,0.0,0.0,0.0,0.0,0.0,0.0,0.0,0.0,0.0,0.0,0.0,0.0,0.0,0.0,0.0,0.0,0.0,0.0,0.0,0.0,0.0,0.0,0.0,0.0,0.0,0.0,0.0,0.0,0.0,0.0,0.0,1.6464,1.5549,0.0,0.0,0.0,1.0174,0.8015,0.0,0.0,0.0,0.0,0.0,0.0,0.0,0.0,0.0,0.0,0.0,0.0,0.0,0.0,0.0,0.0,0.0,0.0,0.0,0.0,0.0,0.0,0.0,0.0,0.0,0.0,0.0,0.0,0.0,0.0,0.0,0.0,0.0,0.0,0.0,0.0,0.0,0.0,0.0,0.0,0.0,0.0,0.0,0.0,0.0,0.0,0.0,0.0,0.0,0.0,0.0,0.0,0.0,0.0,0.0,0.0,0.0,1.8666,1.79,1.6774,1.5192,1.3651,1.2192,1.1019,0.9288,0.0,0.0,0.0,0.0,0.0,0.0,0.0,0.0,0.0,0.0,0.0,0.0,0.0,0.0,0.0,0.0,0.0,0.0,0.0,0.0,0.0,0.0,0.0,0.0,0.0,0.0,0.0,1.9709,0.0,0.0,0.0,0.0,0.0,0.0,0.0,0.0,0.0,0.0,0.0,0.0,0.0,0.0,1.7707,1.6868,1.6643,1.6041,0.0,0.0,1.1514,0.9992,0.8986,0.7908,0.0,0.0,0.0,0.0,0.0,0.0,0.0,0.0,0.0,0.0,0.0,0.0,0.0,0.0,0.0,0.0,0.0,0.0,0.0,0.0,0.0,0.0,0.0,0.0,0.0,0.0,0.0,0.0,0.0,0.0,0.0,0.0,0.0,0.0,0.0,0.0,0.0,0.0,0.0,0.0,0.0,0.0,0.0,0.0,0.0,0.0,0.0,0.0,0.0,0.0,0.0,0.0,0.0,0.0,2.2782,2.1603,1.9906,1.8371,1.6844,1.5252,1.4361,1.4232,1.2604,1.136,0.0,0.0,0.0,0.0,0.0,0.0,0.0,0.0,0.0,0.0,0.0,0.0,0.0,0.0,0.0,0.0,0.0,0.0,0.0,0.0,0.0,0.0,0.0,0.0,0.0,0.0,0.0,0.0,0.0,0.0,0.0,0.0,0.0,0.0,0.0,0.0,0.0,0.0,0.0,0.0,0.0,1.7896,1.7543,1.7722,1.7373,0.0,1.5408,1.4635,1.318,1.2911,1.2661,1.2085,0.0,0.0,0.0,0.0,0.0,0.0,0.0,0.0,0.0,0.0,0.0,0.0,0.0,0.0,0.0,0.0,0.0,0.0,0.0,0.0,0.0,0.0,0.0,0.0,0.0,0.0,0.0,0.0,0.0,0.0,0.0,0.0,0.0,0.0,0.0,0.0,0.0,0.0,0.0,0.0,0.0,0.0,0.0,0.0,0.0,0.0,0.0,0.0,0.0,0.0,0.0,0.0,0.0,2.3306,2.2858,2.1438,2.0408,1.9791,1.7418,1.6079,1.6085,1.4182,1.2965,0.0,0.0,0.0,0.0,0.0,0.0,0.0,0.0,0.0,0.0,0.0,0.0,0.0,0.0,0.0,0.0,0.0,0.0,0.0,0.0,0.0,0.0,0.0,0.0,0.0,0.0,0.0,0.0,1.9913,1.9787,2.0131,0.0,0.0,0.0,0.0,0.0,0.0,0.0,0.0,0.0,0.0,1.7589,1.7836,1.7916,0.0,0.0,1.6179,1.5204,1.4663,1.3683,1.2898,1.2648,1.2481,0.0,0.0,0.0,0.0,0.0,0.0,0.0,0.0,0.0,0.0,0.0,0.0,0.0,0.0,0.0,0.0,0.0,0.0,0.0,0.0,0.0,0.0,0.0,0.0,0.0,0.0,0.0,0.0,0.0,0.0,0.0,0.0,0.0,0.0,0.0,0.0,0.0,0.0,0.0,0.0,0.0,0.0,0.0,0.0,0.0,0.0,0.0,0.0,0.0,0.0,0.0,0.0,2.3949,2.3493,2.3141,2.2694,2.2258,1.9733,1.8351,1.8345,1.6,1.4545,0.0,0.0,0.0,0.0,0.0,0.0,0.0,0.0,0.0,0.0,0.0,0.0,0.0,0.0,0.0,0.0,0.0,0.0,0.0,0.0,0.0,0.0,0.0,0.0,0.0,0.0,0.0,0.0,2.0509,2.0686,2.1693,0.0,0.0,0.0,0.0,0.0,0.0,0.0,0.0,0.0,0.0,1.8591,1.9017,1.9095,1.8996,1.8564,1.7821,1.6983,1.6168,1.5709,1.5116,1.4122,0.0,0.0,0.0,0.0,0.0,0.0,0.0,0.0,0.0,0.0,0.0,0.0,0.0,0.0,0.0,0.0,0.0,0.0,0.0,0.0,0.0,0.0,0.0,0.0,0.0,0.0,0.0,2.38,0.0,0.0,2.7505,0.0,0.0,0.0,0.0,0.0,0.0,0.0,0.0,0.0,0.0,0.0,0.0,0.0,0.0,0.0,0.0,0.0,0.0,0.0,0.0,0.0,0.0,2.4922,2.3569,2.5075,2.5197,2.3766,2.2307,2.1465,2.14,1.8345,1.6485,1.6017,0.0,0.0,0.0,0.0,0.0,0.0,0.0,0.0,0.0,0.0,0.0,0.0,0.0,0.0,0.0,0.0,0.0,0.0,0.0,0.0,0.0,0.0,0.0,0.0,0.0,0.0,2.1132,2.1904,2.2557,0.0,0.0,0.0,0.0,0.0,0.0,0.0,0.0,0.0,2.2229,2.1613,2.1238,2.1517,2.1608,2.1073,1.9797,2.0641,2.0582,1.7982,1.9701,2.0558,0.0,0.0,0.0,0.0,0.0,0.0,0.0,0.0,0.0,0.0,0.0,0.0,0.0,0.0,0.0,0.0,0.0,0.0,0.0,0.0,0.0,0.0,0.0,0.0,0.0,0.0,0.0,2.8009,2.6994,0.0,0.0,0.0,0.0,0.0,0.0,0.0,0.0,0.0,0.0,0.0,3.1981,3.0909,0.0,0.0,0.0,0.0,0.0,0.0,0.0,0.0,0.0,0.0,0.0,0.0,2.5324,2.5457,2.5546,2.555,2.5316,2.3813,2.3039,2.3031,2.1515,1.9791,1.7902,0.0,0.0,0.0,0.0,0.0,0.0,0.0,0.0,0.0,0.0,0.0,0.0,0.0,0.0,0.0,0.0,0.0,0.0,0.0,0.0,0.0,0.0,0.0,0.0,0.0,2.1625,0.0,0.0,0.0,0.0,0.0,0.0,0.0,0.0,0.0,0.0,2.2636,2.2167,2.2712,2.1865,2.1329,2.1644,2.1693,2.1541,0.0,0.0,0.0,0.0,0.0,0.0,0.0,0.0,0.0,0.0,0.0,0.0,0.0,0.0,1.5126,1.2365,1.181,1.134,0.9801,0.0,0.0,0.0,0.0,0.0,0.0,0.0,0.0,0.0,0.0,0.0,0.0,0.0,0.0,3.0431,2.9412,3.0167,0.0,0.0,0.0,0.0,0.0,0.0,0.0,0.0,3.5378,3.542,3.5437,3.4807,3.3683,0.0,3.1238,2.8903,0.0,0.0,0.0,0.0,0.0,0.0,0.0,0.0,2.6985,2.7649,2.7119,2.706,2.746,2.5636,2.4539,2.434,2.3145,2.1642,1.9805,1.8413,1.7497,0.0,0.0,0.0,0.0,0.0,0.0,0.0,0.0,0.0,0.0,0.0,0.0,0.0,0.0,0.0,0.0,0.0,0.0,0.0,0.0,0.0,0.0,0.0,2.1897,0.0,0.0,0.0,0.0,0.0,0.0,0.0,0.0,0.0,2.4023,2.3741,2.369,2.3706,2.3156,2.2835,2.3041,0.0,0.0,0.0,0.0,0.0,0.0,0.0,2.2444,2.1545,2.159,2.1298,1.9807,1.8737,1.7977,1.7916,0.0,0.0,1.4083,1.3525,1.306,1.1583,1.1428,1.1032,0.9574,0.9179,0.8593,0.0,0.0,0.0,0.0,0.0,0.0,0.0,0.0,3.3097,3.2441,0.0,3.1413,0.0,0.0,0.0,0.0,3.5714,3.7233,0.0,0.0,3.9335,3.9322,3.8367,3.8768,3.8164,3.6478,3.5109,3.3481,3.1472,2.9398,0.0,0.0,0.0,0.0,0.0,0.0,2.9653,3.0133,2.9749,2.9805,3.0234,2.763,2.5982,2.5405,2.3312,2.209,2.1752,2.1412,2.0795,1.9833,1.8642,0.0,0.0,0.0,0.0,0.0,0.0,0.0,0.0,0.0,0.0,0.0,0.0,0.0,0.0,0.0,0.0,0.0,0.0,0.0,0.0,2.253,0.0,0.0,0.0,0.0,0.0,0.0,0.0,0.0,0.0,2.7141,2.4436,2.5696,2.6527,2.5409,0.0,0.0,0.0,0.0,2.5274,2.3949,2.4864,2.4766,2.2265,2.3989,2.4815,2.2257,0.0,0.0,2.1576,2.0362,1.9574,1.9224,1.8367,1.7199,1.5778,1.5351,1.4781,1.3341,1.3068,1.2531,1.1166,1.0634,0.9725,3.9043,0.0,0.0,0.0,0.0,3.7263,3.7733,3.7935,3.7935,3.7274,3.6171,3.6569,0.0,0.0,0.0,0.0,0.0,0.0,3.8836,4.0053,4.0369,4.0583,4.0627,4.0798,4.0182,3.889,3.8052,3.7375,3.6714,3.4969,3.1878,2.7629,0.0,0.0,0.0,0.0,2.9926,3.065,3.0958,3.1301,3.1724,2.9714,2.7877,2.6171,2.4506,2.3523,2.3144,2.2784,2.2433,2.2144,2.1044,0.0,0.0,0.0,0.0,0.0,0.0,0.0,0.0,0.0,0.0,0.0,0.0,0.0,0.0,0.0,0.0,0.0,0.0,0.0,2.5348,2.5568,2.5656,0.0,0.0,0.0,0.0,0.0,0.0,0.0,0.0,0.0,2.7577,2.7886,2.8227,0.0,0.0,2.8038,2.7173,2.703,2.66,2.5314,2.5479,0.0,2.4658,2.5177,2.543,2.4658,2.4097,2.3547,2.3076,2.1938,2.0754,1.9698,1.9258,1.8603,1.7292,1.693,1.638,1.5082,1.4581,1.3912,1.2526,1.1259,1.0124,4.3629,4.1865,4.0022,3.9391,3.9673,4.0226,4.0671,4.1027,4.0745,3.9976,3.8888,3.9227,3.862,3.7497,3.8407,0.0,0.0,0.0,4.0556,4.1799,4.1799,4.1964,4.2275,4.2275,4.1906,4.1239,4.018,3.9717,3.9703,3.8002,3.5184,3.1377,0.0,3.0343,3.0299,3.0956,3.1793,3.2688,3.2538,3.2546,3.2772,3.0839,2.9161,2.7865,2.6868,2.6191,2.5982,2.5712,2.5548,2.5378,2.4254,2.3491,0.0,0.0,0.0,0.0,0.0,0.0,0.0,0.0,0.0,0.0,0.0,2.7597,2.7157,0.0,0.0,0.0,2.683,2.6976,2.6838,2.739,0.0,0.0,0.0,0.0,0.0,0.0,0.0,2.9793,3.0867,3.1233,3.0268,3.0378,3.0215,2.9499,2.9396,2.9131,2.8412,0.0,2.8038,2.7258,2.6754,2.6428,2.6428,2.6014,2.5625,2.5498,2.466,2.4082,2.4173,2.3028,2.1776,2.1102,2.0537,1.9877,1.9074,1.8667,1.7882,1.6453,1.5851,1.5203,1.3787,1.2562,1.1558,4.6521,4.6236,4.2939,4.1721,4.2104,4.2481,4.2706,4.2764,4.2114,4.1254,4.0258,4.0173,3.9868,3.9368,3.9862,0.0,4.1021,4.2011,4.2761,4.3305,4.3305,4.3305,4.3305,4.3305,4.3305,4.3235,4.173,4.0981,4.0926,3.9307,3.8171,3.7627,3.5424,3.4193,3.4029,3.4105,3.4614,3.5483,3.4302,3.366,3.347,3.1385,3.0169,2.9983,2.9607,2.9361,2.9396,2.9498,2.9387,2.9003,2.785,2.6642,2.5519,0.0,0.0,0.0,0.0,0.0,0.0,0.0,0.0,0.0,0.0,0.0,0.0,0.0,0.0,2.7121,2.7897,0.0,2.7912,2.8703,0.0,0.0,0.0,3.0396,3.0994,3.1858,3.2263,3.1835,0.0,0.0,3.2579,3.2869,3.2283,3.0124,2.9772,2.9681,2.9544,2.9544,2.9498,2.9269,2.8459,2.7709,2.7578,2.6574,2.566,2.5352,2.4771,2.4516,2.4761,2.3758,2.2842,2.2738,2.1899,2.1007,2.0966,2.0093,1.9162,1.7701,1.7025,1.6249,1.4915,1.4295,1.3309,4.8404,4.8574,4.7727,4.628,4.4466,4.4579,4.4642,4.4588,4.3964,4.3519,4.3213,4.2743,4.242,4.2258,4.2421,4.257,4.2718,4.2971,4.314,4.329,4.3305,4.3305,4.3305,4.3305,4.3305,4.3275,4.2872,4.2703,4.2663,4.1391,4.0537,3.9936,3.8532,3.6938,3.5303,3.6057,3.6167,3.5495,3.565,3.5011,3.3684,3.2712,3.1576,3.0193,2.9665,2.9396,2.9407,3.0271,3.0718,3.0634,3.0047,2.9587,2.9261,2.7166,0.0,0.0,0.0,0.0,0.0,0.0,0.0,0.0,0.0,2.9808,2.9875,0.0,3.0087,0.0,3.2586,3.2945,3.2864,3.3064,0.0,0.0,3.3601,3.3825,3.4737,3.4736,3.4749,3.5047,3.4629,3.457,3.5184,3.4004,3.3202,3.3369,3.2722,3.1877,3.0956,3.0765,3.0451,2.9636,2.9223,2.8815,2.8337,2.7024,2.5961,2.5883,2.5051,2.4463,2.4551,2.426,2.3645,2.277,2.2304,2.1722,2.0798,2.0127,1.979,1.923,1.7893,1.6584,1.5963,1.4893,1.3815,4.9425,4.9395,4.9699,4.8968,4.7472,4.6592,4.636,4.6561,4.5565,4.5133,4.5102,4.4732,4.4577,4.4577,4.4577,4.4593,4.4577,4.4577,4.4381,4.3989,4.4403,4.4151,4.3329,4.3771,4.3747,4.329,4.3305,4.3305,4.3235,4.2389,4.181,4.1498,4.0854,3.9626,3.7924,3.7991,3.7721,3.7041,3.7387,3.7046,3.6038,3.4792,3.3603,3.2613,3.1574,3.1057,3.1045,3.1701,3.2052,3.204,3.1815,3.1608,3.129,2.9923,2.885,0.0,0.0,0.0,0.0,0.0,0.0,0.0,0.0,0.0,0.0,0.0,3.2177,3.3901,3.4598,3.4958,3.4958,3.5142,3.5446,3.5739,3.5463,3.5571,3.6129,3.5908,3.5892,3.6156,3.5694,3.5588,3.6079,3.5197,3.4678,3.5278,3.4843,3.3901,3.2389,3.2052,3.1789,3.1134,3.0541,2.9772,2.8791,2.7458,2.6529,2.6474,2.5876,2.5241,2.4921,2.47,2.4217,2.3276,2.3,2.2815,2.2044,2.1379,2.0994,2.0615,1.9384,1.7959,1.7081,1.5782,1.4609,5.0263,4.9742,5.0489,5.0779,5.0634,4.8639,4.7979,4.8205,4.6833,4.6208,4.6208,4.6208,4.6208,4.6208,4.6208,4.6208,4.6208,4.6208,4.5762,4.5042,4.5834,4.529,4.3717,4.4571,4.4472,4.3512,4.3382,4.3328,4.3195,4.259,4.2276,4.2276,4.2261,4.172,4.0582,3.9728,3.9214,3.9028,3.9001,3.9002,3.8975,3.6993,3.5898,3.5761,3.4399,3.359,3.3513,3.3513,3.3513,3.3513,3.3513,3.3263,3.2733,3.2631,3.2149,0.0,3.1955,0.0,0.0,0.0,0.0,0.0,0.0,0.0,0.0,3.4002,3.4402,3.4864,3.5525,3.5927,3.5927,3.6336,3.659,3.659,3.6604,3.6604,3.6604,3.6604,3.6604,3.6604,3.6473,3.6448,3.6682,3.6408,3.6212,3.633,3.6158,3.5413,3.3898,3.3386,3.3215,3.3154,3.2017,3.058,2.9236,2.7971,2.7226,2.7181,2.6724,2.6296,2.5646,2.5263,2.4816,2.4283,2.4039,2.3905,2.3915,2.309,2.2399,2.2117,2.0934,1.9581,1.8241,1.6958,1.5717,5.1671,5.1798,5.2603,5.2921,5.2787,5.1162,4.9631,4.8205,4.6817,4.6208,4.6208,4.6208,4.6208,4.6208,4.6208,4.6208,4.6208,4.6208,4.6103,4.5941,4.6103,4.6012,4.5674,4.5869,4.5452,4.4517,4.3963,4.3304,4.2575,4.1931,4.1564,4.1602,4.1564,4.1219,4.0486,0.0,0.0,0.0,3.9179,3.8904,3.8876,3.8074,3.7346,3.6839,3.6566,0.0,3.5655,3.5614,3.5614,3.5614,3.5614,0.0,0.0,0.0,0.0,0.0,0.0,0.0,0.0,0.0,0.0,0.0,3.6902,3.6327,3.4369,3.6155,3.7241,3.6632,3.7828,3.8642,3.8642,3.8745,3.8782,3.8819,3.8782,3.8819,3.8804,3.8767,3.8782,3.8782,3.8017,3.7829,3.8494,3.7329,3.6565,3.7305,3.6774,3.6079,3.5694,3.4897,3.4079,3.322,3.2117,3.1125,3.0364,2.8906,2.7963,2.7812,2.7085,2.6558,2.6357,2.624,2.6182,2.593,2.5232,2.4602,2.4602,2.373,2.299,2.2919,2.1885,2.0663,1.9413,1.818,1.7264,5.252,5.2384,5.3162,5.3518,0.0,5.2249,5.0961,4.9664,4.8215,4.7572,4.7589,4.7589,4.7572,4.7589,4.7572,4.7589,4.7589,4.7589,4.734,4.6918,4.7373,4.7104,4.6208,4.6678,4.64,4.5457,4.478,4.4214,4.3712,4.27,4.2204,4.2169,4.2204,4.1801,4.1075,4.1265,4.113,4.0639,4.0625,4.0452,4.011,3.9676,3.8979,3.7969,3.7487,0.0,0.0,0.0,0.0,0.0,0.0,0.0,0.0,0.0,0.0,3.7605,3.8027,3.8007,3.7459,3.801,3.8473,3.8633,3.9329,3.9155,3.7669,3.8772,3.9323,3.8887,3.9206,3.9388,3.9424,3.9773,4.0025,4.0045,4.0045,4.006,3.9975,3.9666,3.9424,3.9373,3.8929,3.8819,3.9301,3.8531,3.8003,3.8457,3.813,3.7558,3.7007,3.6107,3.4995,3.3623,3.2269,3.1223,3.0656,2.9725,2.8924,2.8858,2.8502,2.7919,2.7371,2.729,2.7168,2.6637,2.6016,2.5504,2.4872,2.4339,2.3757,2.3212,2.2624,2.2041,2.1311,1.9861,1.8411,5.3027,5.2384,5.3162,5.3518,5.3433,5.2503,5.1623,5.0712,4.9543,0.0,0.0,4.9018,4.9018,4.9018,4.9018,4.9018,4.9018,4.9018,4.8576,4.7917,4.8639,4.8193,4.6747,4.7489,4.7274,4.6244,4.55,4.5012,4.4699,4.3452,4.2829,4.2829,4.2829,4.2465,4.1797,4.1576,4.1501,4.1546,4.1859,4.1858,4.1445,4.1124,4.0451,3.9377,3.8621,3.7923,3.7244,3.7215,3.7215,3.7215,3.7215,3.7624,3.8517,3.9227,4.0002,4.0878,4.1593,4.1741,4.1197,4.1321,4.1218,4.0815,4.132,4.1507,4.1228,4.1015,4.0912,4.0946,4.0289,3.9864,3.9879,4.0466,4.0946,4.0927,4.0912,4.0946,4.0894,4.015,3.9666,3.9595,3.9481,3.9388,3.9388,3.9352,3.9388,3.9388,3.9265,3.9104,3.8144,3.6968,3.5581,3.4099,3.2921,3.1791,3.0861,3.0392,3.0023,2.974,2.9702,2.9443,2.8676,2.8386,2.8028,2.7424,2.6964,2.6419,2.5577,2.5073,2.45,2.3594,2.3222,2.3101,2.296,2.1543,1.9852,5.3044,5.2367,5.3179,5.3518,5.3399,5.1946,5.0591,4.9323,4.9103,4.9018,4.9018,4.9018,4.9018,4.9018,4.9018,4.9018,4.9018,4.9018,4.894,4.8829,4.894,4.8861,4.8608,4.875,4.7972,4.6487,4.5749,4.4691,4.3342,4.2541,4.2141,4.219,4.2141,4.2093,4.1963,4.1912,4.1894,4.1926,4.1097,4.0997,4.1617,4.1587,4.157,4.1601,4.194,4.1859,4.1217,4.1119,4.1201,4.1185,4.1201,4.1283,4.1398,4.1496,4.1675,4.1804,4.1933,4.1949,4.1885,4.2577,4.3258,4.3893,4.4051,4.3485,4.2013,4.1837,4.1804,4.1804,4.1642,4.1657,4.1642,4.1739,4.1836,4.1788,4.1836,4.1836,4.1788,4.1046,4.05,4.05,3.9829,3.9424,3.9481,3.9424,3.9388,3.9388,3.9388,3.9316,3.887,3.7444,3.5806,3.464,3.4169,3.3198,3.1719,3.1099,3.0697,2.9895,2.9843,2.979,2.9495,2.9417,2.9326,2.9287,2.845,2.7815,2.7481,2.6025,2.5073,2.4585,2.3963,2.3343,2.3309,2.2721,2.2041,5.3281,5.301,5.3348,5.3518,5.3382,5.1877,5.0828,5.0135,4.934,4.9018,4.9018,4.9018,4.9018,4.9018,4.9018,4.9018,4.9018,4.9018,4.9018,4.9018,4.9018,4.9018,4.8968,4.8612,4.7992,4.7233,4.6129,4.5213,4.445,4.3743,4.341,4.338,4.2939,4.2676,4.2676,4.2221,4.1981,4.2013,4.187,4.1819,4.185,4.2575,4.2651,4.2045,4.2653,4.2685,4.2029,4.1981,4.1981,4.1981,4.1981,4.1981,4.1981,4.2442,4.2724,4.2707,4.3152,4.341,4.341,4.3768,4.4167,4.457,4.4598,4.4281,4.3469,4.297,4.2724,4.2676,4.23,4.1981,4.2013,4.2426,4.2724,4.2676,4.2724,4.2707,4.2614,4.1933,4.1412,4.1346,4.0638,4.0115,4.0115,3.9702,3.9388,3.9388,3.9388,3.9424,3.9424,3.8605,3.7422,3.6088,3.505,3.3945,3.2707,3.1966,3.1386,3.0647,3.0367,3.0146,2.988,2.9779,2.9779,2.9792,2.9326,2.8819,2.8295,2.7348,2.6479,2.5714,2.5389,2.4808,2.4264,2.3594,2.2677,5.3518,5.3518,5.3518,5.3399,5.3112,5.1792,5.1133,5.0845,4.956,4.9018,4.9018,4.9018,4.9018,4.9018,4.9018,4.9018,4.9018,4.9018,4.9018,4.9018,4.9018,4.9018,4.8934,4.8274,4.7834,4.753,4.6329,4.5618,4.5399,4.4857,4.4598,4.4542,4.3948,4.3591,4.3575,4.2923,4.2567,4.2599,4.3086,4.2991,4.2349,4.3298,4.3428,4.2729,4.3102,4.3103,4.2615,4.2583,4.2583,4.2583,4.2583,4.2567,4.2614,4.3229,4.3608,4.3667,4.4224,4.4598,4.4598,4.4598,4.4598,4.4598,4.4598,4.4598,4.4542,4.4006,4.3591,4.3532,4.3031,4.2629,4.2738,4.3199,4.3591,4.3591,4.3591,4.3591,4.3532,4.28,4.2284,4.2189,4.1543,4.0979,4.0844,4.0413,4.0095,4.0095,3.9829,3.9717,3.9702,3.9589,3.8831,3.7733,3.6225,3.5122,3.4312,3.3551,3.2613,3.1681,3.1177,3.0674,3.0098,2.9779,2.9779,2.9792,2.9792,2.9443,2.8676,2.8176,2.7683,2.6953,2.6513,2.6016,2.4925,2.4135,2.2974,5.3518,5.3518,5.3518,5.3078,5.2418,5.1589,5.0879,5.0185,4.934,4.9018,4.9018,4.9018,4.9018,4.9018,4.9018,4.9018,4.9018,4.9018,4.9018,4.9018,4.9018,4.9001,4.89,4.8223,4.7547,4.687,4.6041,4.5314,4.4801,4.4649,4.4598,4.4598,4.4514,4.4457,4.444,4.4338,4.4327,4.4338,4.4422,4.4044,4.3262,4.3317,4.3694,4.4355,4.4406,4.4422,4.4253,4.4355,4.4355,4.4355,4.4327,4.4355,4.4327,4.4412,4.4468,4.444,4.4542,4.4598,4.4598,4.4598,4.4598,4.4598,4.4598,4.4598,4.4626,4.4542,4.4468,4.444,4.4384,4.4224,4.4355,4.4384,4.4384,4.4355,4.4384,4.4485,4.431,4.371,4.3185,4.3169,4.2426,4.1869,4.1869,4.1674,4.1626,4.1478,4.0927,4.0569,4.0535,3.9955,3.9538,3.9113,3.8406,3.7349,3.6129,3.5741,3.4537,3.2724,3.2127,3.1576,3.0675,3.0047,2.9804,2.9981,2.9792,2.9675,2.9404,2.8885,2.8176,2.7976,2.729,2.6224,2.5168,2.467,2.3793,5.3518,5.3518,5.3518,5.3315,5.2926,5.2198,5.1437,5.071,4.9965,4.9407,4.9035,4.9018,4.9018,4.9018,4.9018,4.9018,4.9018,4.9018,4.9018,4.9018,4.9001,4.8781,4.8308,4.7597,4.687,4.6143,4.5382,4.4874,4.4649,4.4598,4.4598,4.4598,4.4598,4.4598,4.4598,4.4598,4.4598,4.4598,4.4598,4.4412,4.4109,4.4064,4.4224,4.4542,4.4598,4.4598,4.4598,4.4598,4.4598,4.4598,4.4598,4.4598,4.4598,4.4598,4.4598,4.4598,4.4598,4.4598,4.4598,4.4598,4.4598,4.4598,4.4598,4.4748,4.5062,4.4814,4.472,4.5025,4.4814,4.4598,4.4598,4.4598,4.4598,4.4598,4.4598,4.4598,4.457,4.4298,4.4064,4.3989,4.3336,4.2785,4.2676,4.2332,4.2029,4.1997,4.1626,4.1478,4.1412,4.074,4.0239,4.0085,3.9501,3.8615,3.7579,3.6837,3.5868,3.4826,3.4224,3.3515,3.2109,3.1383,3.1087,3.0452,3.0069,2.9854,2.974,2.9534,2.9067,2.887,2.8227,2.7279,2.6808,2.5692,2.4426,5.3518,5.3518,5.3518,5.3518,5.3433,5.2638,5.1894,5.1166,5.0405,4.9678,4.9035,4.9018,4.9018,4.9018,4.9018,4.9018,4.9018,4.9018,4.9018,4.9018,4.9018,4.8582,4.7885,4.7141,4.6413,4.5686,4.4959,4.4615,4.4598,4.4598,4.4598,4.4598,4.4598,4.4598,4.4598,4.4598,4.4598,4.4598,4.4598,4.4598,4.457,4.4598,4.4598,4.4598,4.4598,4.4598,4.4598,4.4598,4.4598,4.4598,4.4598,4.4598,4.4598,4.4598,4.4598,4.4626,4.4776,4.4824,4.4841,4.4998,4.5089,4.5089,4.5089,4.5284,4.5588,4.5346,4.5311,4.5648,4.5346,4.5035,4.4626,4.4598,4.4598,4.4598,4.4598,4.4598,4.4598,4.4598,4.457,4.4525,4.4006,4.3667,4.3575,4.3169,4.2831,4.2831,4.2583,4.2363,4.2252,4.1642,4.1046,4.1046,4.05,3.9757,3.8857,3.8132,3.7288,3.6453,3.592,3.5214,3.3769,3.2963,3.2195,3.1306,3.0545,2.9994,2.9817,2.9753,2.9765,2.9624,2.9106,2.8347,2.7844,2.6603,2.5817,5.3518,5.3518,5.3518,5.3518,5.345,5.2672,5.1928,5.1234,5.0456,4.9695,4.9103,4.9018,4.9018,4.9018,4.9018,4.9018,4.9018,4.9018,4.9018,4.9018,4.9018,4.8629,4.7902,4.7141,4.6413,4.5686,4.4942,4.4598,4.4598,4.4598,4.4598,4.4598,4.4598,4.4598,4.4598,4.4598,4.4598,4.4598,4.4598,4.4598,4.4598,4.4598,4.4654,4.4637,4.4598,4.4598,4.4598,4.4598,4.4598,4.4598,4.4654,4.4626,4.4626,4.4654,4.4665,4.472,4.5152,4.5459,4.5537,4.5933,4.6216,4.6264,4.6167,4.6312,4.6336,4.6216,4.6216,4.6342,4.6264,4.5783,4.4841,4.4692,4.4637,4.4598,4.4598,4.4598,4.4598,4.4598,4.4598,4.4598,4.4485,4.4384,4.4468,4.4514,4.431,4.415,4.371,4.3229,4.3139,4.252,4.2029,4.1933,4.1707,4.1264,3.9768,3.9206,3.8491,3.7704,3.7091,3.6496,3.5002,3.3718,3.3041,3.22,3.1396,3.0709,3.0097,2.9804,2.9829,2.979,2.9753,2.9236,2.8648,2.8215,2.7429,5.3518,5.3518,5.3518,5.3518,5.3484,5.3196,5.2638,5.186,5.1116,5.0405,4.9695,4.9204,4.9018,4.9018,4.9018,4.9018,4.9001,4.9018,4.9018,4.9018,4.9018,4.8612,4.7855,4.7141,4.6413,4.5686,4.4959,4.4598,4.4598,4.4598,4.4598,4.4598,4.4598,4.4598,4.4598,4.4598,4.4598,4.4598,4.4598,4.4598,4.4665,4.4971,4.5178,4.5152,4.4786,4.4598,4.4598,4.4598,4.4759,4.5169,4.5178,4.5346,4.5724,4.5757,4.5757,4.5783,4.5965,4.6088,4.6094,4.6264,4.6389,4.6389,4.6389,4.6641,4.6847,4.6664,4.6571,4.6864,4.6618,4.6014,4.5407,4.5178,4.5008,4.4665,4.4598,4.4598,4.4598,4.4598,4.4598,4.4598,4.4598,4.4598,4.4598,4.4598,4.4598,4.457,4.4327,4.4121,4.4006,4.3396,4.2847,4.2724,4.2363,4.1804,4.1313,4.0535,3.9888,3.9068,3.8428,3.7892,3.6787,3.5921,3.5236,3.3653,3.2633,3.1597,3.1016,3.0478,3.0388,2.9905,2.9867,2.9763,2.9287,2.884,2.8235,5.3518,5.3518,5.3518,5.3518,5.3518,5.3518,5.3193,5.2605,5.1887,5.1261,5.0704,4.9774,4.9316,4.9299,4.9346,4.9346,4.9269,4.9107,4.9018,4.9018,4.9018,4.8629,4.7855,4.7141,4.6542,4.5931,4.5237,4.4814,4.4598,4.4598,4.4598,4.4598,4.4598,4.4598,4.4598,4.4598,4.4682,4.4841,4.4879,4.4971,4.5222,4.5571,4.5783,4.5732,4.5381,4.5178,4.5178,4.5178,4.5346,4.5724,4.5783,4.5965,4.6318,4.6389,4.6389,4.6389,4.66,4.6751,4.6756,4.6892,4.7026,4.7004,4.7026,4.7219,4.7614,4.7281,4.7284,4.747,4.7324,4.6778,4.6264,4.6112,4.5699,4.4852,4.4598,4.4598,4.4598,4.4598,4.4598,4.4598,4.4598,4.4598,4.4598,4.4598,4.4598,4.4598,4.4598,4.4598,4.4514,4.4167,4.3726,4.368,4.332,4.2878,4.2426,4.1901,4.0995,4.0167,3.9224,3.8884,3.845,3.7768,3.6819,3.5212,3.3899,3.2775,3.1972,3.1388,3.0849,3.03,3.0093,3.0077,2.9729,2.9394,2.8998,5.3518,5.3501,5.3501,5.3534,5.3501,5.3584,5.3536,5.338,5.2593,5.2184,5.1954,5.0662,5.0033,5.0004,5.0004,5.0004,4.9907,4.9479,4.9243,4.9212,4.9107,4.8782,4.818,4.7406,4.6816,4.649,4.584,4.5205,4.4803,4.4786,4.4786,4.4692,4.4786,4.4841,4.4665,4.4814,4.5015,4.5399,4.5511,4.5757,4.6312,4.6383,4.6407,4.6413,4.6389,4.643,4.6389,4.6336,4.6288,4.6365,4.6407,4.6407,4.6548,4.6553,4.6501,4.6646,4.7066,4.7363,4.7449,4.7877,4.8094,4.8094,4.8191,4.8132,4.8152,4.8152,4.8152,4.8153,4.8152,4.7937,4.7367,4.7216,4.6566,4.5042,4.4797,4.4797,4.4731,4.4637,4.4626,4.4654,4.4654,4.4598,4.4598,4.4598,4.4598,4.4598,4.4598,4.4598,4.4598,4.4485,4.4542,4.4497,4.4224,4.3798,4.3515,4.3169,4.2157,4.1164,4.012,3.94,3.9053,3.8458,3.7775,3.6366,3.5041,3.3953,3.3106,3.2529,3.1993,3.1474,3.1057,3.0626,3.0286,3.0104,3.0121,5.3518,5.3568,5.4042,5.3946,5.3618,5.4027,5.425,5.4104,5.2909,5.2619,5.2703,5.1413,5.0743,5.0787,5.077,5.0743,5.0743,5.0527,5.0435,5.0369,4.9936,4.9844,4.9767,4.8758,4.7568,4.6622,4.6259,4.6039,4.584,4.579,4.5815,4.5815,4.5808,4.5858,4.5783,4.584,4.5965,4.607,4.6119,4.624,4.6454,4.6864,4.7066,4.711,4.747,4.77,4.7677,4.6869,4.6641,4.7062,4.7106,4.7281,4.7596,4.7718,4.7697,4.7718,4.7879,4.7997,4.8035,4.819,4.8324,4.8324,4.8324,4.8324,4.8324,4.8324,4.8324,4.8324,4.8287,4.8055,4.7533,4.7406,4.7004,4.594,4.584,4.58,4.5768,4.5485,4.5258,4.5152,4.4852,4.4626,4.4615,4.4632,4.4649,4.4598,4.4598,4.4598,4.4598,4.4598,4.4598,4.4598,4.4542,4.4542,4.4167,4.371,4.297,4.1933,4.0894,3.999,3.958,3.909,3.8421,3.7569,3.6245,3.5229,3.4414,3.388,3.3455,3.2816,3.245,3.1848,3.1135,3.1017,3.1151,5.3668,5.3962,5.4405,5.453,5.4359,5.4818,5.5191,5.5197,5.3806,5.3548,5.3759,5.2265,5.1469,5.1469,5.1469,5.1469,5.1469,5.1469,5.1618,5.1661,5.0823,5.0689,5.0899,4.9784,4.8342,4.7128,4.6806,4.6641,4.6407,4.6389,4.6389,4.6389,4.6389,4.6365,4.6389,4.6389,4.6478,4.671,4.6774,4.6869,4.7132,4.7512,4.7736,4.7777,4.8113,4.8287,4.823,4.7494,4.7284,4.7656,4.7736,4.7937,4.8267,4.8287,4.8324,4.8324,4.8305,4.8287,4.8324,4.8305,4.8324,4.8324,4.8324,4.8324,4.8324,4.8324,4.8324,4.8324,4.8618,4.861,4.833,4.8538,4.842,4.8075,4.6979,4.6649,4.6695,4.6551,4.6359,4.6282,4.5849,4.5339,4.506,4.4993,4.4869,4.4716,4.4598,4.4598,4.4598,4.4598,4.4615,4.4615,4.457,4.457,4.4542,4.4167,4.3726,4.2707,4.1642,4.0758,4.01,3.9523,3.8891,3.8295,3.7187,3.6617,3.5864,3.5749,3.5404,3.4684,3.3853,3.3211,3.2633,3.2404,3.2298,5.4042,5.462,5.4726,5.5114,5.5581,5.5706,5.6132,5.6487,5.5073,5.4744,5.4898,5.3134,5.2177,5.2177,5.2177,5.2177,5.2159,5.2177,5.2445,5.2572,5.1898,5.1332,5.1101,5.0381,4.9261,4.8013,4.7683,4.724,4.6756,4.671,4.6507,4.6664,4.6692,4.6553,4.6692,4.653,4.6932,4.7385,4.7449,4.7697,4.8152,4.8248,4.8267,4.8248,4.8267,4.8324,4.8267,4.8172,4.8191,4.8287,4.8229,4.8248,4.8305,4.8324,4.8324,4.8324,4.8324,4.8324,4.8324,4.8324,4.8324,4.8324,4.8324,4.8324,4.8324,4.8324,4.8379,4.8526,4.9077,4.9517,4.9625,5.0063,5.0444,5.0385,4.85,4.7528,4.7791,4.7873,4.7819,4.7761,4.7212,4.6537,4.6033,4.5892,4.5592,4.5094,4.4953,4.5021,4.497,4.5038,4.4767,4.4733,4.4784,4.4598,4.457,4.4497,4.4064,4.3591,4.2504,4.1642,4.0758,4.0115,3.9394,3.8804,3.8294,3.7748,3.7519,3.7362,3.6848,3.5965,3.5234,3.4642,3.4227,3.398,3.3512,5.525,5.5466,5.6067,5.6049,5.5836,5.6313,5.6695,5.6688,5.5209,5.4953,5.5074,5.3716,5.2872,5.2915,5.2875,5.2915,5.2853,5.2875,5.2959,5.3103,5.2875,5.2276,5.1857,5.1514,5.0568,4.924,4.8901,4.8598,4.7854,4.7697,4.7738,4.7818,4.7697,4.7738,4.7797,4.7718,4.7858,4.8017,4.8055,4.8113,4.8248,4.8324,4.8324,4.8324,4.8324,4.8324,4.8324,4.8324,4.8324,4.8324,4.8324,4.8324,4.8324,4.8324,4.8324,4.8324,4.8324,4.8324,4.8324,4.8324,4.8324,4.8324,4.8324,4.8324,4.8324,4.8324,4.8581,4.9022,4.95,4.9886,5.0343,5.071,5.0857,5.0745,4.9995,4.9607,4.9727,4.9545,4.9259,4.918,4.8682,4.8022,4.7486,4.7214,4.6951,4.6357,4.6128,4.6087,4.5913,4.5483,4.5213,4.5128,4.5077,4.4756,4.4598,4.4598,4.444,4.4253,4.3486,4.2599,4.1707,4.086,4.008,3.9328,3.898,3.8517,3.8679,3.8766,3.7986,3.7139,3.6945,3.6495,3.59,3.5488,3.4996,5.5893,5.6241,5.6695,5.6817,5.6711,5.7166,5.7376,5.7049,5.5722,5.5199,5.5181,5.3904,5.3185,5.3185,5.3185,5.3185,5.3185,5.3185,5.3185,5.3185,5.3164,5.2907,5.2506,5.2215,5.1316,5.0178,4.9776,4.9095,4.8396,4.8324,4.8324,4.8267,4.8324,4.8324,4.8248,4.8324,4.8324,4.8287,4.8324,4.8324,4.8324,4.8324,4.8324,4.8324,4.8324,4.8324,4.8324,4.8324,4.8324,4.8324,4.8324,4.8324,4.8324,4.8324,4.8324,4.8324,4.8324,4.8324,4.8324,4.8324,4.8324,4.8324,4.8324,4.8526,4.8765,4.8857,4.9169,4.9921,5.0343,5.0802,5.1224,5.1591,5.1793,5.1864,5.1811,5.1683,5.1353,5.0955,5.0762,5.0606,5.0157,4.9468,4.882,4.8741,4.8211,4.7509,4.7141,4.6965,4.6716,4.6184,4.5783,4.5784,4.5292,4.4823,4.4666,4.4649,4.4598,4.444,4.4224,4.3366,4.2489,4.1576,4.0724,4.001,3.9681,3.9388,3.9388,3.9388,3.9009,3.8465,3.8494,3.8055,3.7329,3.6838,3.6344,5.6367,5.7015,5.7015,5.7401,5.7867,5.7978,5.7909,5.7662,5.6226,5.5552,5.5244,5.3904,5.3222,5.3185,5.3185,5.3185,5.3185,5.3185,5.3185,5.3185,5.3185,5.3112,5.3041,5.2527,5.1683,5.0729,5.0013,4.9224,4.8563,4.8324,4.8324,4.8324,4.8324,4.8324,4.8324,4.8324,4.8324,4.8324,4.8324,4.8324,4.8324,4.8324,4.8324,4.8324,4.8324,4.8324,4.8324,4.8324,4.8324,4.8324,4.8324,4.8324,4.8324,4.8324,4.8324,4.8324,4.8324,4.8324,4.8361,4.8434,4.8508,4.8563,4.8636,4.8857,4.9537,4.9721,5.0051,5.0839,5.1591,5.1848,5.2179,5.2747,5.291,5.2892,5.3041,5.2803,5.2344,5.2105,5.2133,5.2177,5.1501,5.0933,5.0434,5.0107,4.9727,4.8982,4.8663,4.856,4.807,4.7443,4.6971,4.659,4.5864,4.4857,4.4767,4.4699,4.4632,4.4542,4.4525,4.396,4.3108,4.2189,4.1297,4.0622,4.0185,3.9737,3.9388,3.9388,3.9352,3.9265,3.898,3.8634,3.8234,3.8055,3.7663,5.7637,5.7768,5.7792,5.7844,5.7997,5.7978,5.7978,5.7831,5.6294,5.5596,5.5207,5.3885,5.3222,5.3185,5.3185,5.3185,5.3185,5.3185,5.3185,5.3185,5.3185,5.3185,5.3148,5.2894,5.2123,5.1059,5.0637,4.9719,4.8673,4.8324,4.8324,4.8324,4.8324,4.8324,4.8324,4.8324,4.8324,4.8324,4.8324,4.8324,4.8324,4.8324,4.8324,4.8324,4.8324,4.8324,4.8324,4.8324,4.8324,4.8324,4.8324,4.8324,4.8324,4.8324,4.8361,4.8416,4.8379,4.8361,4.8453,4.8967,4.9317,4.9352,4.9774,5.0343,5.0472,5.0545,5.093,5.1555,5.1922,5.2307,5.2784,5.3059,5.3167,5.3185,5.3185,5.3112,5.2986,5.2913,5.2901,5.2852,5.2729,5.2429,5.1748,5.1581,5.1164,5.0521,5.0286,5.0268,4.958,4.8702,4.8107,4.7578,4.6612,4.5716,4.5376,4.5173,4.4801,4.4666,4.4598,4.4542,4.3663,4.3108,4.2316,4.1478,4.0622,4.0185,3.9737,3.9388,3.9352,3.9388,3.9388,3.9104,3.887,3.8892,3.873,5.7978,5.7978,5.7978,5.7978,5.7978,5.7978,5.7795,5.7262,5.6143,5.5394,5.484,5.3702,5.3203,5.3185,5.3185,5.3185,5.3185,5.3185,5.3185,5.3185,5.3167,5.2986,5.2656,5.2564,5.1958,5.0875,5.0362,4.9481,4.8618,4.8324,4.8324,4.8324,4.8324,4.8324,4.8324,4.8324,4.8324,4.8324,4.8324,4.8324,4.8324,4.8324,4.8324,4.8324,4.8324,4.8324,4.8324,4.8324,4.8324,4.8324,4.8324,4.8324,4.8324,4.8343,4.8489,4.8857,4.8912,4.915,4.9499,4.9866,5.016,5.016,5.06,5.0967,5.1242,5.1353,5.1756,5.2325,5.2601,5.2784,5.313,5.3185,5.3185,5.3185,5.3185,5.3185,5.3185,5.3185,5.3185,5.3185,5.3127,5.2944,5.2729,5.2554,5.2206,5.1441,5.1301,5.1201,5.054,4.9705,4.9094,4.8414,4.7455,4.6657,4.6186,4.5686,4.5043,4.479,4.4598,4.4598,4.4236,4.3844,4.3472,4.2458,4.1412,4.0656,4.022,3.9829,3.9517,3.9424,3.9424,3.9424,3.9352,3.9177,3.9068,5.7978,5.7978,5.7978,5.7978,5.796,5.785,5.7428,5.6767,5.5794,5.4987,5.4344,5.3555,5.3185,5.3185,5.3185,5.3185,5.3185,5.3167,5.3148,5.2913,5.2876,5.2454,5.1958,5.1555,5.1206,5.0582,5.0033,4.917,4.8526,4.8324,4.8324,4.8324,4.8324,4.8324,4.8324,4.8324,4.8324,4.8324,4.8324,4.8324,4.8324,4.8324,4.8324,4.8324,4.8324,4.8324,4.8324,4.8324,4.8379,4.8489,4.8508,4.8581,4.8655,4.8581,4.8893,4.9702,4.9756,4.9994,5.0417,5.0802,5.0986,5.0986,5.1187,5.1499,5.2013,5.2197,5.2472,5.2839,5.3093,5.3093,5.3185,5.3185,5.3185,5.3185,5.3185,5.3185,5.3185,5.3185,5.3185,5.3185,5.3185,5.3103,5.3103,5.2999,5.2702,5.2445,5.2312,5.2053,5.1379,5.0817,5.0223,4.9422,4.8459,4.7238,4.6639,4.638,4.572,4.5415,4.5055,4.497,4.4936,4.4709,4.4256,4.3218,4.2252,4.1511,4.0946,4.0672,4.0289,3.9773,3.961,3.9773,3.9681,3.946,3.9316,5.7978,5.7978,5.7978,5.7978,5.7886,5.7299,5.695,5.6565,5.5244,5.4546,5.4289,5.3592,5.3185,5.3185,5.3185,5.3185,5.3185,5.3115,5.2821,5.2362,5.2215,5.1775,5.1041,5.0528,5.0069,4.9849,4.9537,4.904,4.8489,4.8324,4.8324,4.8324,4.8324,4.8324,4.8324,4.8324,4.8324,4.8324,4.8324,4.8324,4.8324,4.8324,4.8324,4.8324,4.8324,4.8361,4.8379,4.8379,4.8636,4.928,4.937,4.9738,5.0031,4.9738,4.9903,5.038,5.06,5.0765,5.1077,5.1481,5.172,5.194,5.227,5.2635,5.2892,5.2949,5.2986,5.3057,5.3185,5.3185,5.3185,5.3185,5.3185,5.3185,5.3185,5.3185,5.3185,5.3185,5.3185,5.3185,5.3185,5.3185,5.3185,5.3185,5.2999,5.2831,5.2769,5.2747,5.2441,5.1933,5.1464,5.0547,4.9534,4.8213,4.6983,4.6844,4.6515,4.6346,4.6058,4.5821,4.5737,4.5585,4.5018,4.4039,4.3239,4.252,4.1997,4.1576,4.1129,4.0638,4.0447,4.0255,3.9935,3.9646,3.9424,5.7978,5.7978,5.7978,5.7978,5.7831,5.7152,5.6547,5.6014,5.4932,5.4161,5.3775,5.335,5.3185,5.3185,5.3185,5.3185,5.3112,5.2711,5.238,5.1977,5.1573,5.0949,5.0251,4.9721,4.9335,4.904,4.8893,4.8783,4.8343,4.8324,4.8324,4.8324,4.8324,4.8324,4.8324,4.8324,4.8343,4.8343,4.8343,4.8361,4.8343,4.8324,4.8324,4.8324,4.8379,4.8526,4.893,4.8967,4.9389,5.0031,5.0215,5.0674,5.1022,5.1132,5.1006,5.1334,5.1426,5.1646,5.1958,5.2454,5.2601,5.2656,5.3002,5.3148,5.3185,5.3167,5.3185,5.3185,5.3185,5.3185,5.3185,5.3185,5.3185,5.3185,5.3185,5.3185,5.3185,5.3185,5.3185,5.3185,5.3185,5.3185,5.3185,5.3185,5.3185,5.3185,5.3185,5.3185,5.3185,5.2809,5.2266,5.1376,5.033,4.9205,4.7991,4.7656,4.7336,4.7141,4.6989,4.6769,4.6515,4.6329,4.5785,4.5006,4.4225,4.3525,4.2785,4.2221,4.1836,4.1445,4.1046,4.0656,4.0185,3.9829,3.9646,5.7978,5.7978,5.7978,5.7978,5.7831,5.695,5.6198,5.5504,5.4564,5.3794,5.3259,5.3185,5.3185,5.3185,5.3185,5.3185,5.3112,5.2399,5.1958,5.1536,5.0894,5.0123,4.9517,4.926,4.8985,4.8545,4.8434,4.8324,4.8324,4.8324,4.8324,4.8324,4.8324,4.8324,4.8324,4.8581,4.8489,4.8581,4.8746,4.8765,4.86,4.8398,4.8324,4.8379,4.8471,4.8912,4.9427,4.9719,5.0233,5.0784,5.1096,5.1408,5.2068,5.2234,5.2234,5.2252,5.2252,5.2637,5.2949,5.3112,5.3057,5.3057,5.3148,5.3185,5.3185,5.3185,5.3185,5.3185,5.3185,5.3185,5.3185,5.3185,5.3185,5.3185,5.3185,5.3185,5.3185,5.3185,5.3185,5.3185,5.3185,5.3185,5.3185,5.3185,5.3185,5.3185,5.3185,5.3185,5.3185,5.3185,5.2702,5.1946,5.1038,5.0105,4.9216,4.8677,4.8281,4.7864,4.7733,4.7564,4.7293,4.7022,4.6427,4.5883,4.5307,4.4607,4.3751,4.3064,4.2816,4.2379,4.1691,4.1213,4.0961,4.0447,4.0025,5.7978,5.7978,5.7978,5.7978,5.774,5.64,5.5721,5.5372,5.4014,5.3314,5.3185,5.3185,5.3185,5.3185,5.3185,5.3185,5.2928,5.227,5.1591,5.1041,5.016,4.9315,4.8618,4.8471,4.8545,4.8324,4.8324,4.8324,4.8324,4.8324,4.8324,4.8324,4.8324,4.8361,4.8545,4.8985,4.9389,4.9481,5.0068,5.0086,4.9463,4.8802,4.8545,4.8636,4.904,4.9592,4.9922,5.038,5.1059,5.172,5.1848,5.2252,5.2894,5.3078,5.3078,5.3078,5.3078,5.3115,5.3167,5.3185,5.3185,5.3185,5.3185,5.3185,5.3185,5.3185,5.3185,5.3185,5.3185,5.3185,5.3185,5.3185,5.3185,5.3185,5.3185,5.3185,5.3185,5.3185,5.3185,5.3185,5.3185,5.3185,5.3185,5.3185,5.3185,5.3185,5.3185,5.3185,5.3185,5.3185,5.3124,5.2399,5.1741,5.0839,5.0183,4.9691,4.9112,4.86,4.8372,4.8287,4.802,4.7699,4.7344,4.6815,4.6266,4.5681,4.4871,4.4277,4.3905,4.3567,4.3213,4.259,4.1981,4.1344,4.0866,5.7978,5.7978,5.7978,5.7721,5.7189,5.6092,5.5335,5.473,5.372,5.3185,5.3185,5.3185,5.3185,5.3185,5.3185,5.3185,5.2931,5.1958,5.1187,5.0563,4.9609,4.871,4.8434,4.8324,4.8324,4.8324,4.8324,4.8324,4.8324,4.8343,4.8324,4.8343,4.8379,4.8636,4.9004,4.9408,4.9811,5.0178,5.0563,5.06,5.027,4.9939,4.9701,4.9719,5.0068,5.0435,5.0894,5.1224,5.1885,5.2509,5.2674,5.2803,5.3093,5.3185,5.3185,5.3185,5.3167,5.3167,5.3185,5.3185,5.3185,5.3185,5.3185,5.3185,5.3185,5.3185,5.3185,5.3185,5.3185,5.3185,5.3185,5.3185,5.3185,5.3185,5.3185,5.3185,5.3185,5.3185,5.3185,5.3185,5.3185,5.3185,5.3185,5.3185,5.3185,5.3185,5.3185,5.3185,5.3185,5.3185,5.3103,5.2893,5.2247,5.1564,5.1031,5.0504,4.9899,4.9377,4.8883,4.8755,4.8646,4.8376,4.8003,4.7733,4.7292,4.6663,4.5974,4.5621,4.5337,4.5117,4.4879,4.4249,4.3632,4.3233,4.2706,5.7978,5.7978,5.7978,5.7538,5.6748,5.5923,5.5152,5.4344,5.3555,5.3185,5.3185,5.3185,5.3185,5.3185,5.3185,5.3185,5.3096,5.1738,5.1077,5.0362,4.9462,4.8655,4.8398,4.8324,4.8324,4.8306,4.8477,4.8514,4.8606,4.8771,4.9011,4.862,4.8728,4.915,4.9759,5.0393,5.0932,5.1651,5.1466,5.1294,5.1081,5.082,5.0729,5.0802,5.1022,5.1371,5.1903,5.2252,5.2692,5.2965,5.3112,5.3112,5.3185,5.3185,5.3185,5.3185,5.3185,5.3185,5.3185,5.3185,5.3185,5.3185,5.3185,5.3185,5.3185,5.3185,5.3185,5.3185,5.3185,5.3185,5.3185,5.3185,5.3185,5.3185,5.3185,5.3185,5.3185,5.3203,5.3185,5.3185,5.3185,5.3185,5.3185,5.3185,5.3185,5.3185,5.3185,5.3185,5.3185,5.3185,5.3124,5.302,5.2791,5.2201,5.1692,5.1154,5.0591,5.0129,4.9622,4.9342,4.927,4.8982,4.8595,4.8376,4.8169,4.7936,4.7361,4.7073,4.6739,4.6228,4.5805,4.5821,4.5454,4.5,4.4311,5.7978,5.7978,5.7978,5.7483,5.6693,5.5923,5.5133,5.4234,5.3518,5.3203,5.3185,5.3185,5.3185,5.3185,5.3185,5.3185,5.313,5.2289,5.1573,5.0784,4.9941,4.9132,4.8746,4.8489,4.8418,4.842,4.8641,4.8797,4.9135,4.9907,4.9849,4.9563,4.9713,5.0076,5.0837,5.1788,5.2438,5.294,5.2717,5.2249,5.1865,5.143,5.1083,5.1132,5.1536,5.1958,5.205,5.2637,5.2983,5.3185,5.3185,5.3185,5.3185,5.3185,5.3185,5.3185,5.3185,5.3185,5.3185,5.3185,5.3185,5.3185,5.3185,5.3185,5.3185,5.3185,5.3185,5.3185,5.3185,5.3185,5.3185,5.3203,5.3387,5.3424,5.3518,5.3479,5.3424,5.3203,5.3203,5.3185,5.3185,5.3185,5.3185,5.3185,5.3185,5.3185,5.3185,5.3185,5.3185,5.3185,5.3185,5.3164,5.3164,5.2769,5.2224,5.1716,5.1325,5.0858,5.038,5.0118,4.9959,4.9583,4.9124,4.8985,4.8808,4.8789,4.8663,4.8003,4.7411,4.6972,4.6752,4.6895,4.67,4.6168,4.544,5.7978,5.7941,5.7483,5.6785,5.6033,5.5721,5.4858,5.3739,5.3314,5.3185,5.3185,5.3185,5.3185,5.3185,5.3185,5.3185,5.3075,5.238,5.1867,5.1389,5.0692,4.9884,4.937,4.9082,4.8991,4.8842,4.8937,4.9431,5.0137,5.0831,5.1415,5.1389,5.1264,5.1619,5.2377,5.311,5.3673,5.3772,5.375,5.3457,5.2825,5.278,5.254,5.2344,5.2454,5.2729,5.2803,5.3023,5.3148,5.3185,5.3185,5.3185,5.3185,5.3185,5.3185,5.3185,5.3185,5.3222,5.324,5.3222,5.3185,5.3185,5.3185,5.3185,5.3185,5.3185,5.3185,5.3185,5.324,5.3314,5.3259,5.3647,5.3995,5.394,5.3922,5.394,5.3849,5.3702,5.3573,5.3702,5.3405,5.3185,5.3185,5.3185,5.3185,5.3185,5.3185,5.3185,5.3185,5.3185,5.3185,5.3185,5.3185,5.3185,5.2684,5.2335,5.2024,5.1593,5.1164,5.0876,5.0608,5.0044,4.9658,4.9504,4.9286,4.9084,4.8809,4.8491,4.8139,4.7868,4.797,4.8196,4.7835,4.7273,4.6696,5.785,5.7593,5.7042,5.6345,5.5611,5.5335,5.4473,5.335,5.3203,5.3185,5.3185,5.3185,5.3185,5.3185,5.3185,5.3185,5.3075,5.2674,5.2289,5.1848,5.1334,5.0755,5.0337,5.0139,5.0136,4.983,5.0031,5.0654,5.131,5.1706,5.2501,5.3123,5.3323,5.3485,5.3522,5.4231,5.45,5.4369,5.4385,5.4338,5.3702,5.3777,5.3867,5.3512,5.3431,5.333,5.3269,5.3279,5.3167,5.3185,5.3185,5.3185,5.3185,5.3185,5.3185,5.3203,5.3222,5.3277,5.3442,5.3295,5.3222,5.3185,5.3185,5.3185,5.3203,5.3222,5.3259,5.3647,5.3628,5.3647,5.3775,5.4473,5.473,5.473,5.4748,5.4748,5.4675,5.4546,5.4344,5.4252,5.4051,5.4087,5.4124,5.4179,5.368,5.3534,5.3203,5.3203,5.3185,5.3185,5.3185,5.3185,5.3185,5.3185,5.3124,5.2868,5.2586,5.2381,5.1946,5.1586,5.1215,5.0689,5.0129,4.9821,4.9563,4.9256,4.8989,4.8728,4.8781,4.8883,4.8866,4.8748,4.8669,4.8123,4.8067,5.7501,5.6859,5.6748,5.6253,5.5445,5.4766,5.3995,5.324,5.3185,5.3185,5.3185,5.3185,5.3185,5.3185,5.3185,5.3185,5.3185,5.3075,5.2784,5.2215,5.2071,5.1688,5.1454,5.13,5.1323,5.1892,5.1897,5.199,5.2596,5.3302,5.4081,5.4526,5.4733,5.4855,5.4549,5.4852,5.5061,5.5061,5.5034,5.479,5.4436,5.4371,5.4406,5.4206,5.3851,5.3663,5.3739,5.3359,5.3251,5.3316,5.3227,5.3206,5.3185,5.3185,5.324,5.3332,5.3295,5.3647,5.4216,5.3628,5.3518,5.3515,5.3665,5.3479,5.3332,5.3387,5.3739,5.4326,5.4399,5.473,5.5133,5.5541,5.5537,5.5556,5.5574,5.5556,5.5482,5.517,5.4932,5.4803,5.5188,5.5482,5.5464,5.528,5.4528,5.4014,5.3424,5.3295,5.3479,5.3665,5.383,5.3867,5.3922,5.3904,5.3922,5.3463,5.3152,5.2992,5.2702,5.2307,5.1898,5.1462,5.0903,5.0314,4.985,4.9593,4.9286,4.8998,4.9001,4.9018,4.9018,4.8951,4.8954,4.8892,4.8688,5.6235,5.5959,5.5427,5.506,5.4785,5.4528,5.3959,5.3277,5.3185,5.3185,5.3185,5.3185,5.3185,5.3185,5.3185,5.3185,5.3185,5.3185,5.2913,5.2839,5.2732,5.2522,5.2326,5.2294,5.2333,5.2413,5.2635,5.3252,5.3881,5.4451,5.4865,5.528,5.5462,5.5508,5.538,5.5435,5.5399,5.5199,5.525,5.5199,5.4644,5.475,5.4794,5.4547,5.4099,5.3994,5.4187,5.3681,5.3422,5.3525,5.3482,5.3314,5.329,5.3309,5.3503,5.3833,5.4014,5.4363,5.4932,5.4913,5.484,5.4656,5.4289,5.4252,5.4638,5.4766,5.4987,5.5097,5.5188,5.5427,5.5541,5.6124,5.6326,5.6381,5.64,5.64,5.6271,5.5739,5.539,5.5354,5.5596,5.5739,5.5794,5.6069,5.5574,5.5299,5.4895,5.4638,5.473,5.4858,5.4987,5.5005,5.5005,5.4913,5.4711,5.4252,5.4014,5.3909,5.3463,5.2937,5.2549,5.2419,5.2016,5.1622,5.0757,4.9907,4.9521,4.9152,4.9063,4.9018,4.9018,4.9018,4.9001,4.9001,4.894,5.5427,5.5115,5.462,5.4234,5.4014,5.3995,5.3665,5.324,5.3185,5.3185,5.3185,5.3185,5.3185,5.3185,5.3185,5.3185,5.3185,5.3185,5.3185,5.3227,5.3361,5.333,5.3304,5.3372,5.3713,5.3582,5.3716,5.4204,5.4844,5.4885,5.5184,5.553,5.5684,5.5662,5.5651,5.5629,5.5577,5.5435,5.5512,5.5477,5.516,5.5128,5.5205,5.4905,5.4621,5.4417,5.4436,5.4171,5.3739,5.3888,5.3814,5.3641,5.3659,5.3855,5.407,5.449,5.5129,5.5434,5.5868,5.5996,5.6033,5.6381,5.5445,5.5133,5.5482,5.5409,5.5702,5.5868,5.5996,5.6216,5.6436,5.7042,5.7079,5.7134,5.7134,5.7134,5.7042,5.6547,5.6418,5.6345,5.629,5.6308,5.629,5.651,5.6602,5.651,5.644,5.6143,5.5812,5.5812,5.5831,5.5794,5.5724,5.5482,5.5299,5.506,5.4858,5.4803,5.4363,5.383,5.4001,5.3977,5.3443,5.2852,5.1933,5.0976,4.983,4.9316,4.927,4.9117,4.9018,4.9018,4.9018,4.9018,4.9018,5.506,5.4418,5.4363,5.3904,5.3295,5.3277,5.3243,5.3185,5.3185,5.3185,5.3185,5.3185,5.3185,5.3185,5.3185,5.3185,5.3185,5.3185,5.3251,5.3339,5.3565,5.3901,5.4355,5.4681,5.4778,5.5278,5.5401,5.508,5.5645,5.5491,5.5568,5.5665,5.5684,5.5684,5.5684,5.5684,5.5662,5.564,5.5629,5.5599,5.547,5.5546,5.5566,5.5343,5.5128,5.5007,5.4909,5.4625,5.4452,5.4455,5.4439,5.4476,5.4606,5.4853,5.4969,5.541,5.6261,5.6614,5.6804,5.6822,5.7079,5.7299,5.651,5.5941,5.5868,5.6124,5.6418,5.6693,5.6859,5.7299,5.7721,5.7758,5.7795,5.7813,5.7813,5.7813,5.7831,5.7703,5.7685,5.7629,5.7593,5.7556,5.7464,5.7556,5.7281,5.7336,5.7189,5.6914,5.6602,5.6326,5.6326,5.6271,5.6165,5.5945,5.5794,5.5849,5.5702,5.5629,5.5354,5.4987,5.5258,5.5232,5.4661,5.394,5.31,5.2102,5.0922,5.0043,4.9505,4.9379,4.9354,4.9086,4.912,4.9035,4.9018,5.3757,5.3573,5.3537,5.3405,5.3203,5.3185,5.3185,5.3185,5.3185,5.3185,5.3185,5.3185,5.3185,5.3185,5.3185,5.3185,5.3185,5.323,5.3422,5.3585,5.3777,5.4284,5.4727,5.5094,5.5356,5.5577,5.5684,5.5684,5.5684,5.5684,5.5684,5.5684,5.5684,5.5684,5.5684,5.5684,5.5684,5.5684,5.5684,5.5684,5.5684,5.5684,5.5684,5.5588,5.5343,5.5282,5.5306,5.4895,5.4731,5.4862,5.4625,5.4686,5.5355,5.5484,5.5703,5.6756,5.7325,5.7648,5.7648,5.7629,5.774,5.7905,5.7409,5.7428,5.7299,5.7189,5.7244,5.7373,5.7464,5.7758,5.7886,5.7941,5.7978,5.7978,5.7978,5.7978,5.7978,5.7978,5.7978,5.7978,5.7978,5.7978,5.7978,5.7923,5.7685,5.7886,5.785,5.7574,5.7336,5.7042,5.6895,5.6859,5.6877,5.6748,5.6822,5.6877,5.6638,5.6418,5.618,5.5923,5.5812,5.5731,5.5558,5.5033,5.4197,5.3131,5.1969,5.1274,5.0789,5.0096,4.9941,4.9523,4.9221,4.9252,4.9218,5.3185,5.3185,5.3185,5.3185,5.3185,5.3185,5.3185,5.3185,5.3185,5.3185,5.3185,5.3185,5.3185,5.3185,5.3185,5.3185,5.3185,5.3227,5.3381,5.372,5.3977,5.4497,5.4919,5.5282,5.5489,5.5651,5.5684,5.5684,5.5684,5.5684,5.5684,5.5684,5.5684,5.5684,5.5684,5.5684,5.5684,5.5684,5.5684,5.5684,5.5684,5.5684,5.5684,5.5651,5.538,5.5512,5.5629,5.5088,5.516,5.5306,5.5034,5.5374,5.613,5.6493,5.692,5.7802,5.7857,5.7937,5.7886,5.7923,5.796,5.7978,5.7978,5.7923,5.7886,5.7758,5.7813,5.7868,5.7923,5.7978,5.7978,5.7978,5.7978,5.7978,5.7978,5.7978,5.7978,5.7978,5.7978,5.7978,5.7978,5.7978,5.7978,5.7978,5.7978,5.7978,5.7978,5.7886,5.7758,5.7648,5.7556,5.7538,5.7648,5.7703,5.7721,5.7574,5.7373,5.7171,5.7134,5.6859,5.6528,5.6428,5.6447,5.5978,5.5293,5.4224,5.3166,5.2814,5.2345,5.1652,5.1079,5.0891,5.0478,4.9949,4.9834,5.3185,5.3185,5.3185,5.3185,5.3185,5.3185,5.3185,5.3185,5.3185,5.3185,5.3185,5.3185,5.3185,5.3185,5.3185,5.3185,5.3185,5.3206,5.3504,5.3851,5.4221,5.4701,5.5186,5.5501,5.5599,5.5673,5.5684,5.5684,5.5684,5.5684,5.5684,5.5684,5.5684,5.5684,5.5684,5.5684,5.5684,5.5684,5.5684,5.5684,5.5684,5.5684,5.5684,5.5684,5.5662,5.5684,5.5684,5.5682,5.5722,5.578,5.5931,5.6264,5.7187,5.7749,5.8309,5.8307,5.8233,5.8033,5.7978,5.7978,5.7978,5.7978,5.7978,5.7978,5.7978,5.7978,5.7978,5.7978,5.7978,5.7978,5.7978,5.7978,5.7978,5.7978,5.7978,5.7978,5.7978,5.7978,5.7978,5.7978,5.7978,5.7978,5.7978,5.7978,5.7978,5.7978,5.7978,5.7978,5.7978,5.7978,5.7978,5.7978,5.7978,5.7978,5.7941,5.7831,5.7886,5.7831,5.7758,5.7703,5.7317,5.7341,5.7444,5.6919,5.6339,5.5444,5.4563,5.4349,5.3999,5.3285,5.2793,5.2532,5.1946,5.1161,5.0606,5.3185,5.3185,5.3185,5.3185,5.3185,5.3185,5.3185,5.3185,5.3185,5.3185,5.3185,5.3185,5.3185,5.3185,5.3185,5.3206,5.3248,5.3251,5.3681,5.4102,5.4484,5.4876,5.5392,5.561,5.5684,5.5684,5.5684,5.5684,5.5684,5.5684,5.5684,5.5684,5.5684,5.5684,5.5684,5.5684,5.5684,5.5684,5.5838,5.5838,5.5848,5.5742,5.5684,5.5722,5.5761,5.5857,5.5857,5.5818,5.6175,5.6522,5.6676,5.7492,5.8785,5.8973,5.9105,5.9084,5.8482,5.8146,5.7978,5.7978,5.7978,5.7978,5.7978,5.7978,5.7978,5.7978,5.7978,5.7978,5.7978,5.7978,5.7978,5.7978,5.7978,5.7978,5.7978,5.7978,5.7978,5.7978,5.7978,5.7978,5.7978,5.7978,5.7978,5.7978,5.7978,5.7978,5.7978,5.7978,5.7978,5.7978,5.7978,5.7978,5.7978,5.7978,5.7978,5.7978,5.7978,5.7978,5.7886,5.7923,5.7978,5.7859,5.7739,5.7757,5.7361,5.6515,5.6064,5.6199,5.5748,5.4964,5.4337,5.3996,5.3399,5.2674,5.1912,5.3185,5.3185,5.3185,5.3185,5.3185,5.3185,5.3185,5.3185,5.3185,5.3185,5.3185,5.3185,5.3185,5.3185,5.3185,5.3339,5.338,5.3251,5.3906,5.4468,5.4671,5.5034,5.5399,5.5684,5.5684,5.5684,5.5684,5.5684,5.5684,5.5684,5.5684,5.5684,5.5684,5.5684,5.5684,5.5684,5.5684,5.5703,5.5992,5.6214,5.6175,5.5992,5.603,5.6069,5.6299,5.6415,5.6799,5.6838,5.7107,5.7627,5.7915,5.8357,5.9264,5.9541,5.9547,5.9266,5.8775,5.8235,5.8074,5.8001,5.8001,5.7978,5.7978,5.7978,5.7978,5.7978,5.7978,5.7978,5.7978,5.7978,5.7978,5.7978,5.7978,5.7978,5.7978,5.7978,5.7978,5.7978,5.7978,5.7978,5.7978,5.7978,5.7978,5.7978,5.7978,5.7978,5.7978,5.7978,5.7978,5.7978,5.7978,5.7978,5.7978,5.7978,5.7978,5.7978,5.7978,5.7978,5.7978,5.7978,5.7978,5.7978,5.796,5.7918,5.7895,5.7706,5.7449,5.7309,5.7272,5.6629,5.6001,5.5455,5.4775,5.4173,5.3706,5.3185,5.3185,5.3185,5.3185,5.3185,5.3185,5.3185,5.3185,5.3185,5.3185,5.3185,5.3185,5.3185,5.3185,5.3206,5.3485,5.3605,5.3464,5.4118,5.4701,5.4716,5.5147,5.5458,5.5684,5.5684,5.5684,5.5684,5.5684,5.5684,5.5684,5.5684,5.5684,5.5684,5.5684,5.5684,5.5684,5.5703,5.5915,5.6272,5.683,5.6684,5.6415,5.6703,5.6992,5.7234,5.7588,5.805,5.8261,5.8261,5.8742,5.9108,5.9511,5.9687,5.9934,5.9775,5.9509,5.8971,5.8505,5.8216,5.807,5.8024,5.7978,5.7978,5.7978,5.8001,5.7978,5.7978,5.8001,5.8001,5.7978,5.7978,5.7978,5.7978,5.7978,5.7978,5.7978,5.7978,5.7978,5.7978,5.7978,5.7978,5.7978,5.7978,5.7978,5.7978,5.7978,5.7978,5.7978,5.7978,5.7978,5.7978,5.7978,5.7978,5.7978,5.7978,5.7978,5.7978,5.7978,5.7978,5.7978,5.7978,5.7978,5.7978,5.7978,5.7955,5.7909,5.7909,5.7774,5.7766,5.7687,5.7279,5.6566,5.6125,5.5604,5.5542,5.3185,5.3185,5.3185,5.3185,5.3185,5.3185,5.3185,5.3185,5.3185,5.3185,5.3185,5.3185,5.3185,5.3185,5.3185,5.3444,5.3833,5.3683,5.4236,5.4938,5.4933,5.5294,5.5577,5.5684,5.5684,5.5684,5.5684,5.5684,5.5684,5.5684,5.5684,5.5684,5.5684,5.5684,5.5684,5.5703,5.5761,5.6079,5.6618,5.7195,5.7426,5.7434,5.7877,5.803,5.8069,5.8165,5.8261,5.8288,5.8684,5.93,5.9973,6.0319,6.0371,6.0251,6.006,5.9789,5.9249,5.8874,5.8591,5.8282,5.819,5.8097,5.8074,5.8024,5.8024,5.8001,5.8024,5.8051,5.8051,5.8001,5.7978,5.7978,5.7978,5.7978,5.7978,5.7978,5.7978,5.7978,5.7978,5.7978,5.7978,5.7978,5.7978,5.7978,5.7978,5.7978,5.7978,5.7978,5.7978,5.7978,5.7978,5.7978,5.7978,5.7978,5.7978,5.7978,5.7978,5.7978,5.7978,5.7978,5.7978,5.7978,5.7978,5.7978,5.7978,5.7955,5.7978,5.7978,5.796,5.7854,5.7914,5.7582,5.7166,5.6843,5.658]}]]